[[{"header":{"parameterUnit":"m.s-1","parameterCategory":1,"la1":30.6,"la2":28.766,"lo1":-90.7593,"lo2":-88.6598,"dy":0.0162,"dx":0.0183,"nx":116,"ny":114,"refTime":"2023-08-06T06:00:00:Z","depth":0,"parameterNumber":2,"parameterNumberName":"U-component_of_WINDS"},"data":[0.0,0.0,0.0,0.0,0.0,0.0,0.0,0.0,0.0,0.0,0.0,0.0,0.0,0.0,0.0,0.0,0.0,0.0,0.0,0.0,0.0,0.0,0.0,0.0,0.0,0.0,0.0,0.0,0.0,0.0,0.0,0.0,0.0,0.0,0.0,0.0,0.0,0.0,0.0,0.0,0.0,0.0,0.0,0.0,0.0,0.0,0.0,0.0,0.0,0.0,0.0,0.0,0.0,0.0,0.0,0.0,0.0,0.0,0.0,0.0,0.0,0.0,0.0,0.0,0.0,0.0,0.0,0.0,0.0,0.0,0.0,0.0,0.0,0.0,0.0,0.0,0.0,0.0,0.0,0.0,0.0,0.0,0.0,0.0,0.0,0.0,0.0,0.0,0.0,0.0,0.0,0.0,0.0,0.0,0.0,0.0,0.0,0.0,0.0,0.0,0.0,0.0,0.0,0.0,0.0,0.0,0.0,0.0,0.0,0.0,0.0,0.0,0.0,0.0,0.0,0.0,0.0,0.0,0.0,0.0,0.0,0.0,0.0,0.0,0.0,0.0,0.0,0.0,0.0,0.0,0.0,0.0,0.0,0.0,0.0,0.0,0.0,0.0,0.0,0.0,0.0,0.0,0.0,0.0,0.0,0.0,0.0,0.0,0.0,0.0,0.0,0.0,0.0,0.0,0.0,0.0,0.0,0.0,0.0,0.0,0.0,0.0,0.0,0.0,0.0,0.0,0.0,0.0,0.0,0.0,0.0,0.0,0.0,0.0,0.0,0.0,0.0,0.0,0.0,0.0,0.0,0.0,0.0,0.0,0.0,0.0,0.0,0.0,0.0,0.0,0.0,0.0,0.0,0.0,0.0,0.0,0.0,0.0,0.0,0.0,0.0,0.0,0.0,0.0,0.0,0.0,0.0,0.0,0.0,0.0,0.0,0.0,0.0,0.0,0.0,0.0,0.0,0.0,0.0,0.0,0.0,0.0,0.0,0.0,0.0,0.0,0.0,0.0,0.0,0.0,0.0,0.0,0.0,0.0,0.0,0.0,0.0,0.0,0.0,0.0,0.0,0.0,0.0,0.0,0.0,0.0,0.0,0.0,0.0,0.0,0.0,0.0,0.0,0.0,0.0,0.0,0.0,0.0,0.0,0.0,0.0,0.0,0.0,0.0,0.0,0.0,0.0,0.0,0.0,0.0,0.0,0.0,0.0,0.0,0.0,0.0,0.0,0.0,0.0,0.0,0.0,0.0,0.0,0.0,0.0,0.0,0.0,0.0,0.0,0.0,0.0,0.0,0.0,0.0,0.0,0.0,0.0,0.0,0.0,0.0,0.0,0.0,0.0,0.0,0.0,0.0,0.0,0.0,0.0,0.0,0.0,0.0,0.0,0.0,0.0,0.0,0.0,0.0,0.0,0.0,0.0,0.0,0.0,0.0,0.0,0.0,0.0,0.0,0.0,0.0,0.0,0.0,0.0,0.0,0.0,0.0,0.0,0.0,0.0,0.0,0.0,0.0,0.0,0.0,0.0,0.0,0.0,0.0,0.0,0.0,0.0,0.0,0.0,0.0,0.0,0.0,0.0,0.0,0.0,0.0,0.0,0.0,0.0,0.0,0.0,0.0,0.0,0.0,0.0,0.0,0.0,0.0,0.0,0.0,0.0,0.0,0.0,0.0,0.0,0.0,0.0,0.0,0.0,0.0,0.0,0.0,0.0,0.0,0.0,0.0,0.0,0.0,0.0,0.0,0.0,0.0,0.0,0.0,0.0,0.0,0.0,0.0,0.0,0.0,0.0,0.0,0.0,0.0,0.0,0.0,0.0,0.0,0.0,0.0,0.0,0.0,0.0,0.0,0.0,0.0,0.0,0.0,0.0,0.0,0.0,0.0,0.0,0.0,0.0,0.0,0.0,0.0,0.0,0.0,0.0,0.0,0.0,0.0,0.0,0.0,0.0,0.0,0.0,0.0,0.0,0.0,0.0,0.0,0.0,0.0,0.0,0.0,0.0,0.0,0.0,0.0,0.0,0.0,0.0,0.0,0.0,0.0,0.0,0.0,0.0,0.0,0.0,0.0,0.0,0.0,0.0,0.0,0.0,0.0,0.0,0.0,0.0,0.0,0.0,0.0,0.0,0.0,0.0,0.0,0.0,0.0,0.0,0.0,0.0,0.0,0.0,0.0,0.0,0.0,0.0,0.0,0.0,0.0,0.0,0.0,0.0,0.0,0.0,0.0,0.0,0.0,0.0,0.0,0.0,0.0,0.0,0.0,0.0,0.0,0.0,0.0,0.0,0.0,0.0,0.0,0.0,0.0,0.0,0.0,0.0,0.0,0.0,0.0,0.0,0.0,0.0,0.0,0.0,0.0,0.0,0.0,0.0,0.0,0.0,0.0,0.0,0.0,0.0,0.0,0.0,0.0,0.0,0.0,0.0,0.0,0.0,0.0,0.0,0.0,0.0,0.0,0.0,0.0,0.0,0.0,0.0,0.0,0.0,0.0,0.0,0.0,0.0,0.0,0.0,0.0,0.0,0.0,0.0,0.0,0.0,0.0,0.0,0.0,0.0,0.0,0.0,0.0,0.0,0.0,0.0,0.0,0.0,0.0,0.0,0.0,0.0,0.0,0.0,0.0,0.0,0.0,0.0,0.0,0.0,0.0,0.0,0.0,0.0,0.0,0.0,0.0,0.0,0.0,0.0,0.0,0.0,0.0,0.0,0.0,0.0,0.0,0.0,0.0,0.0,0.0,0.0,0.0,0.0,0.0,0.0,0.0,0.0,0.0,0.0,0.0,0.0,0.0,0.0,0.0,0.0,0.0,0.0,0.0,0.0,0.0,0.0,0.0,0.0,0.0,0.0,0.0,0.0,0.0,0.0,0.0,0.0,0.0,0.0,0.0,0.0,0.0,0.0,0.0,0.0,0.0,0.0,0.0,0.0,0.0,0.0,0.0,0.0,0.0,0.0,0.0,0.0,0.0,0.0,0.0,0.0,0.0,0.0,0.0,0.0,0.0,0.0,0.0,0.0,0.0,0.0,0.0,0.0,0.0,0.0,0.0,0.0,0.0,0.0,0.0,0.0,0.0,0.0,0.0,0.0,0.0,0.0,0.0,0.0,0.0,0.0,0.0,0.0,0.0,0.0,0.0,0.0,0.0,0.0,0.0,0.0,0.0,0.0,0.0,0.0,0.0,0.0,0.0,0.0,0.0,0.0,0.0,0.0,0.0,0.0,0.0,0.0,0.0,0.0,0.0,0.0,0.0,0.0,0.0,0.0,0.0,0.0,0.0,0.0,0.0,0.0,0.0,0.0,0.0,0.0,0.0,0.0,0.0,0.0,0.0,0.0,0.0,0.0,0.0,0.0,0.0,0.0,0.0,0.0,0.0,0.0,0.0,0.0,0.0,0.0,0.0,0.0,0.0,0.0,0.0,0.0,0.0,0.0,0.0,0.0,0.0,0.0,0.0,0.0,0.0,0.0,0.0,0.0,0.0,0.0,0.0,0.0,0.0,0.0,0.0,0.0,0.0,0.0,0.0,0.0,0.0,0.0,0.0,0.0,0.0,0.0,0.0,0.0,0.0,0.0,0.0,0.0,0.0,0.0,0.0,0.0,0.0,0.0,0.0,0.0,0.0,0.0,0.0,0.0,0.0,0.0,0.0,0.0,0.0,0.0,0.0,0.0,0.0,0.0,0.0,0.0,0.0,0.0,0.0,0.0,0.0,0.0,0.0,0.0,0.0,0.0,0.0,0.0,0.0,0.0,0.0,0.0,0.0,0.0,0.0,0.0,0.0,0.0,0.0,0.0,0.0,0.0,0.0,0.0,0.0,0.0,0.0,0.0,0.0,0.0,0.0,0.0,0.0,0.0,0.0,0.0,0.0,0.0,0.0,0.0,0.0,0.0,0.0,0.0,0.0,0.0,0.0,0.0,0.0,0.0,0.0,0.0,0.0,0.0,0.0,0.0,0.0,0.0,0.0,0.0,0.0,0.0,0.0,0.0,0.0,0.0,0.0,0.0,0.0,0.0,0.0,0.0,0.0,0.0,0.0,0.0,0.0,0.0,0.0,0.0,0.0,0.0,0.0,0.0,0.0,0.0,0.0,0.0,0.0,0.0,0.0,0.0,0.0,0.0,0.0,0.0,0.0,0.0,0.0,0.0,0.0,0.0,0.0,0.0,0.0,0.0,0.0,0.0,0.0,0.0,0.0,0.0,0.0,0.0,0.0,0.0,0.0,0.0,0.0,0.0,0.0,0.0,0.0,0.0,0.0,0.0,0.0,0.0,0.0,0.0,0.0,0.0,0.0,0.0,0.0,0.0,0.0,0.0,0.0,0.0,0.0,0.0,0.0,0.0,0.0,0.0,0.0,0.0,0.0,0.0,0.0,0.0,0.0,0.0,0.0,0.0,0.0,0.0,0.0,0.0,0.0,0.0,0.0,0.0,0.0,0.0,0.0,0.0,0.0,0.0,0.0,0.0,0.0,0.0,0.0,0.0,0.0,0.0,0.0,0.0,0.0,0.0,0.0,0.0,0.0,0.0,0.0,0.0,0.0,0.0,0.0,0.0,0.0,0.0,0.0,0.0,0.0,0.0,0.0,0.0,0.0,0.0,0.0,0.0,0.0,0.0,0.0,0.0,0.0,0.0,0.0,0.0,0.0,0.0,0.0,0.0,0.0,0.0,0.0,0.0,0.0,0.0,0.0,0.0,0.0,0.0,0.0,0.0,0.0,0.0,0.0,0.0,0.0,0.0,0.0,0.0,0.0,0.0,0.0,0.0,0.0,0.0,0.0,0.0,0.0,0.0,0.0,0.0,0.0,0.0,0.0,0.0,0.0,0.0,0.0,0.0,0.0,0.0,0.0,0.0,0.0,0.0,0.0,0.0,0.0,0.0,0.0,0.0,0.0,0.0,0.0,0.0,0.0,0.0,0.0,0.0,0.0,0.0,0.0,0.0,0.0,0.0,0.0,0.0,0.0,0.0,0.0,0.0,0.0,0.0,0.0,0.0,0.0,0.0,0.0,0.0,0.0,0.0,0.0,0.0,0.0,0.0,0.0,0.0,0.0,0.0,0.0,0.0,0.0,0.0,0.0,0.0,0.0,0.0,0.0,0.0,0.0,0.0,0.0,0.0,0.0,0.0,0.0,0.0,0.0,0.0,0.0,0.0,0.0,0.0,0.0,0.0,0.0,0.0,0.0,0.0,0.0,0.0,0.0,0.0,0.0,0.0,0.0,0.0,0.0,0.0,0.0,0.0,0.0,0.0,0.0,0.0,0.0,0.0,0.0,0.0,0.0,0.0,0.0,0.0,0.0,0.0,0.0,0.0,0.0,0.0,0.0,0.0,0.0,0.0,0.0,0.0,0.0,0.0,0.0,0.0,0.0,0.0,0.0,0.0,0.0,0.0,0.0,0.0,0.0,0.0,0.0,0.0,0.0,0.0,0.0,0.0,0.0,0.0,0.0,0.0,0.0,0.0,0.0,0.0,0.0,0.0,0.0,0.0,0.0,0.0,0.0,0.0,0.0,0.0,0.0,0.0,0.0,0.0,0.0,0.0,0.0,0.0,0.0,0.0,0.0,0.0,0.0,0.0,0.0,0.0,0.0,0.0,0.0,0.0,0.0,0.0,0.0,0.0,0.0,0.0,0.0,0.0,0.0,0.0,0.0,0.0,0.0,0.0,0.0,0.0,0.0,0.0,0.0,0.0,0.0,0.0,0.0,0.0,0.0,0.0,0.0,0.0,0.0,0.0,0.0,0.0,0.0,0.0,0.0,0.0,0.0,0.0,0.0,0.0,0.0,0.0,0.0,0.0,0.0,0.0,0.0,0.0,0.0,0.0,0.0,0.0,0.0,0.0,0.0,0.0,0.0,0.0,0.0,0.0,0.0,0.0,0.0,0.0,0.0,0.0,0.0,0.0,0.0,0.0,0.0,0.0,0.0,0.0,0.0,0.0,0.0,0.0,0.0,0.0,0.0,0.0,0.0,0.0,0.0,0.0,0.0,0.0,0.0,0.0,0.0,0.0,0.0,0.0,0.0,0.0,0.0,0.0,0.0,0.0,0.0,0.0,0.0,0.0,0.0,0.0,0.0,0.0,0.0,0.0,0.0,-3.8328,0.0,0.0,0.0,0.0,0.0,0.0,0.0,0.0,0.0,0.0,0.0,0.0,0.0,0.0,0.0,0.0,0.0,0.0,0.0,0.0,0.0,0.0,0.0,0.0,0.0,0.0,0.0,0.0,0.0,0.0,0.0,0.0,0.0,0.0,0.0,0.0,0.0,0.0,0.0,0.0,0.0,0.0,0.0,0.0,0.0,0.0,0.0,0.0,0.0,0.0,0.0,0.0,0.0,0.0,0.0,0.0,0.0,0.0,0.0,0.0,0.0,0.0,0.0,0.0,0.0,0.0,0.0,0.0,0.0,0.0,0.0,0.0,0.0,0.0,0.0,0.0,0.0,0.0,0.0,0.0,0.0,0.0,0.0,0.0,0.0,0.0,0.0,0.0,0.0,0.0,0.0,0.0,0.0,0.0,0.0,0.0,0.0,0.0,0.0,0.0,0.0,0.0,0.0,0.0,0.0,0.0,0.0,0.0,0.0,0.0,0.0,0.0,0.0,0.0,0.0,0.0,-3.8979,0.0,0.0,0.0,0.0,0.0,0.0,0.0,0.0,0.0,0.0,0.0,0.0,0.0,0.0,0.0,0.0,0.0,0.0,0.0,0.0,0.0,0.0,0.0,0.0,0.0,0.0,0.0,0.0,0.0,0.0,0.0,0.0,0.0,0.0,0.0,0.0,0.0,0.0,0.0,0.0,0.0,0.0,0.0,0.0,0.0,0.0,0.0,0.0,0.0,0.0,0.0,0.0,0.0,0.0,0.0,0.0,0.0,0.0,0.0,0.0,0.0,0.0,0.0,0.0,0.0,0.0,0.0,0.0,0.0,0.0,0.0,0.0,0.0,0.0,0.0,0.0,0.0,0.0,0.0,0.0,0.0,0.0,0.0,0.0,0.0,0.0,0.0,0.0,0.0,0.0,0.0,0.0,0.0,0.0,0.0,0.0,0.0,0.0,0.0,0.0,0.0,0.0,0.0,0.0,0.0,0.0,0.0,0.0,-4.5164,-4.5914,-4.5164,-4.552,-4.5299,-4.4503,-4.2027,-4.11,-4.1207,0.0,0.0,0.0,0.0,0.0,0.0,0.0,0.0,0.0,0.0,0.0,0.0,0.0,0.0,0.0,0.0,0.0,0.0,0.0,0.0,0.0,0.0,0.0,0.0,0.0,0.0,0.0,0.0,0.0,0.0,0.0,0.0,0.0,0.0,0.0,0.0,0.0,0.0,0.0,0.0,0.0,0.0,0.0,0.0,0.0,0.0,0.0,0.0,0.0,0.0,0.0,0.0,0.0,0.0,0.0,0.0,0.0,0.0,0.0,0.0,0.0,0.0,0.0,0.0,0.0,0.0,0.0,0.0,0.0,0.0,0.0,0.0,0.0,0.0,0.0,0.0,0.0,0.0,0.0,0.0,0.0,0.0,0.0,0.0,0.0,0.0,0.0,-2.6992,-2.8174,0.0,0.0,0.0,0.0,0.0,0.0,0.0,0.0,0.0,0.0,0.0,0.0,0.0,-4.0268,-4.1408,-4.3732,-4.477,-4.4443,-4.6723,-4.7009,-4.5486,-4.5795,-4.5287,-4.4164,-4.4033,0.0,-4.2158,-4.0663,0.0,0.0,0.0,0.0,0.0,0.0,0.0,0.0,0.0,0.0,0.0,0.0,0.0,0.0,0.0,0.0,0.0,0.0,0.0,0.0,0.0,0.0,0.0,0.0,0.0,0.0,0.0,0.0,0.0,0.0,0.0,0.0,0.0,0.0,0.0,0.0,0.0,0.0,0.0,0.0,0.0,0.0,0.0,0.0,0.0,0.0,0.0,0.0,0.0,0.0,0.0,0.0,0.0,0.0,0.0,0.0,0.0,0.0,0.0,0.0,0.0,0.0,0.0,0.0,0.0,0.0,0.0,0.0,0.0,0.0,0.0,0.0,0.0,0.0,0.0,0.0,0.0,0.0,0.0,0.0,0.0,0.0,0.0,0.0,0.0,-2.6204,-2.8274,-2.8943,-3.0736,-3.1717,0.0,0.0,0.0,0.0,0.0,0.0,0.0,0.0,0.0,-4.0255,-4.1218,-4.229,-4.3511,-4.5885,-4.6781,-4.6225,-4.8599,-4.8743,-4.681,-4.7317,-4.6777,-4.546,-4.4941,-4.4143,-4.2888,-4.1677,-4.0377,-3.9,0.0,0.0,0.0,0.0,-3.2813,-3.2197,0.0,0.0,0.0,0.0,0.0,0.0,0.0,0.0,0.0,0.0,0.0,0.0,0.0,0.0,0.0,0.0,0.0,0.0,0.0,0.0,0.0,0.0,0.0,0.0,0.0,0.0,0.0,0.0,0.0,0.0,0.0,0.0,0.0,0.0,0.0,0.0,0.0,0.0,0.0,0.0,0.0,0.0,0.0,0.0,0.0,0.0,0.0,0.0,0.0,0.0,0.0,0.0,0.0,0.0,0.0,0.0,0.0,0.0,0.0,0.0,0.0,0.0,0.0,0.0,0.0,0.0,0.0,0.0,0.0,0.0,0.0,0.0,0.0,0.0,0.0,0.0,0.0,-2.7902,-3.0021,-2.9992,-3.2634,-3.3811,0.0,0.0,0.0,0.0,0.0,0.0,-3.9034,-3.9251,-4.0241,-4.2195,-4.3267,-4.4312,-4.537,-4.7055,-4.7595,-4.7042,-4.8557,-4.8499,-4.6842,-4.7061,-4.6655,-4.5577,-4.4656,-4.3813,-4.3202,-4.2386,-4.1103,-3.9697,-3.7816,-3.5973,-3.4451,-3.4254,-3.378,-3.3355,0.0,0.0,0.0,0.0,0.0,0.0,0.0,0.0,0.0,0.0,0.0,0.0,0.0,0.0,0.0,0.0,0.0,0.0,0.0,0.0,0.0,0.0,0.0,0.0,0.0,0.0,0.0,0.0,0.0,0.0,0.0,0.0,0.0,0.0,0.0,0.0,0.0,0.0,0.0,0.0,0.0,0.0,0.0,0.0,0.0,0.0,0.0,0.0,0.0,0.0,0.0,0.0,0.0,0.0,0.0,0.0,0.0,0.0,0.0,0.0,0.0,0.0,0.0,0.0,0.0,0.0,0.0,0.0,0.0,0.0,0.0,0.0,0.0,0.0,0.0,0.0,0.0,0.0,0.0,-3.1896,-3.6328,0.0,0.0,0.0,0.0,-3.6468,-3.7636,-3.9102,-4.0892,-4.1517,-4.2914,-4.5288,-4.5967,-4.6591,-4.7215,-4.709,-4.6689,-4.6107,-4.5428,-4.4712,-4.4035,-4.3323,-4.3061,-4.342,-4.2506,-4.2421,-4.2794,-4.2204,-4.0745,-3.8815,-3.82,-3.6589,-3.4786,-3.4809,-3.4297,-3.377,0.0,0.0,0.0,0.0,0.0,0.0,0.0,0.0,0.0,0.0,0.0,0.0,0.0,0.0,0.0,0.0,0.0,0.0,0.0,0.0,0.0,0.0,0.0,0.0,0.0,0.0,0.0,0.0,0.0,0.0,0.0,0.0,0.0,0.0,0.0,0.0,0.0,0.0,0.0,0.0,0.0,0.0,0.0,0.0,0.0,0.0,0.0,0.0,0.0,0.0,0.0,0.0,0.0,0.0,0.0,0.0,0.0,0.0,0.0,0.0,0.0,0.0,0.0,0.0,0.0,0.0,0.0,0.0,0.0,0.0,0.0,0.0,0.0,0.0,0.0,0.0,0.0,0.0,0.0,-3.5197,-3.8648,0.0,-3.7874,-3.9308,-3.9905,-3.8952,-4.0743,-4.2141,-4.2792,-4.3402,-4.4135,-4.499,-4.5029,-4.5395,-4.5888,-4.5695,-4.535,-4.4668,-4.4823,-4.3866,-4.1978,-4.2038,-4.1694,-4.0913,-4.0925,-4.0872,-4.0739,-4.0044,-3.9793,-3.9717,-3.8467,-3.6766,-3.4807,-3.4807,-3.4018,-3.2986,0.0,0.0,0.0,0.0,0.0,0.0,0.0,0.0,0.0,0.0,0.0,0.0,0.0,0.0,0.0,0.0,0.0,0.0,0.0,0.0,0.0,0.0,0.0,0.0,0.0,0.0,0.0,0.0,0.0,0.0,0.0,0.0,0.0,0.0,0.0,0.0,0.0,0.0,0.0,0.0,0.0,0.0,-2.1192,0.0,0.0,0.0,0.0,0.0,0.0,0.0,0.0,0.0,0.0,0.0,0.0,0.0,0.0,0.0,0.0,0.0,0.0,0.0,0.0,0.0,0.0,0.0,0.0,0.0,0.0,0.0,0.0,0.0,0.0,0.0,0.0,0.0,0.0,0.0,-3.6451,-3.7672,-4.0439,-4.1612,-3.9779,-4.1182,-4.189,-4.1123,-4.2955,-4.4062,-4.3936,-4.4326,-4.4452,-4.4143,-4.3756,-4.3716,-4.4121,-4.3727,-4.3199,-4.2627,-4.2802,-4.1863,-4.0168,-4.0461,-4.0001,-3.903,-3.9208,-3.8936,-3.8335,-3.7679,-3.7862,-3.8451,-3.7304,-3.5897,-3.4303,-3.4191,-3.3391,-3.217,0.0,0.0,0.0,0.0,0.0,0.0,0.0,0.0,0.0,0.0,0.0,0.0,0.0,0.0,0.0,0.0,0.0,0.0,0.0,0.0,0.0,0.0,0.0,0.0,0.0,0.0,0.0,0.0,0.0,0.0,0.0,0.0,0.0,0.0,0.0,0.0,0.0,0.0,0.0,0.0,0.0,0.0,-2.0289,0.0,0.0,0.0,0.0,0.0,0.0,0.0,0.0,0.0,0.0,0.0,0.0,0.0,0.0,0.0,0.0,0.0,0.0,0.0,0.0,0.0,0.0,0.0,0.0,0.0,0.0,0.0,0.0,0.0,0.0,0.0,0.0,0.0,-3.2105,-3.6233,-3.9201,-3.9056,-4.1842,-4.3012,-4.1072,-4.2072,-4.2914,-4.2887,-4.3913,-4.4501,-4.4124,-4.4164,-4.3861,-4.302,-4.2387,-4.2106,-4.2131,-4.1254,-4.055,-4.0028,-3.9091,-3.8683,-3.8659,-3.8119,-3.7866,-3.7643,-3.715,-3.6522,-3.5862,-3.5277,-3.4967,-3.4718,-3.4739,-3.4015,-3.2933,-3.2685,-3.2136,-3.1522,0.0,0.0,0.0,0.0,0.0,0.0,0.0,0.0,0.0,0.0,0.0,0.0,0.0,0.0,0.0,0.0,0.0,0.0,0.0,0.0,0.0,0.0,0.0,0.0,0.0,0.0,0.0,0.0,0.0,0.0,0.0,0.0,0.0,0.0,0.0,0.0,0.0,0.0,0.0,0.0,0.0,0.0,-1.7462,0.0,0.0,0.0,0.0,0.0,0.0,0.0,0.0,0.0,0.0,0.0,0.0,0.0,0.0,0.0,0.0,0.0,0.0,0.0,0.0,0.0,0.0,0.0,0.0,0.0,0.0,0.0,0.0,0.0,0.0,0.0,0.0,-3.477,-3.5851,-3.7468,-3.9215,-4.0923,-4.2248,-4.2847,-4.2358,-4.2871,-4.2928,-4.2119,-4.2548,-4.2463,-4.1453,-4.1931,-4.1943,-4.1721,-4.0963,-4.0771,-4.1171,-3.995,-3.8912,-3.7848,-3.7169,-3.6449,-3.5645,-3.5511,-3.5167,-3.4847,-3.4714,-3.4427,-3.389,-3.2884,-3.228,-3.209,-3.3304,-3.279,-3.1287,-3.0862,-2.9976,-2.887,0.0,0.0,0.0,0.0,0.0,0.0,0.0,0.0,0.0,0.0,0.0,0.0,0.0,0.0,0.0,0.0,0.0,0.0,0.0,0.0,0.0,0.0,0.0,0.0,0.0,0.0,0.0,0.0,0.0,0.0,0.0,0.0,0.0,0.0,0.0,0.0,0.0,0.0,0.0,0.0,0.0,0.0,-1.5357,-1.4209,-1.3761,-1.3459,-1.2114,-1.1818,-1.1905,-1.1327,0.0,0.0,0.0,0.0,0.0,0.0,0.0,0.0,0.0,0.0,0.0,0.0,0.0,0.0,0.0,0.0,0.0,0.0,0.0,0.0,0.0,0.0,0.0,0.0,-3.3333,-3.5564,-3.6828,-3.7951,-3.9309,-4.134,-4.114,-4.1045,-4.1528,-4.1576,-4.1308,-4.0919,-4.1221,-4.1016,-3.9943,-4.0019,-3.9966,-3.954,-3.8368,-3.7983,-3.8297,-3.7049,-3.6144,-3.5373,-3.508,-3.4609,-3.3956,-3.3956,-3.3464,0.0,-3.2758,-3.2391,-3.1615,-3.075,-3.0309,0.0,0.0,0.0,0.0,0.0,-2.8314,-2.727,0.0,0.0,0.0,0.0,0.0,0.0,0.0,0.0,0.0,0.0,0.0,0.0,0.0,0.0,0.0,0.0,0.0,0.0,0.0,0.0,0.0,0.0,0.0,0.0,0.0,0.0,0.0,0.0,0.0,0.0,0.0,0.0,0.0,0.0,0.0,0.0,0.0,0.0,0.0,0.0,0.0,0.0,-1.3626,-1.1947,-1.1512,-1.1361,-0.8788,-0.8202,-0.8382,-0.7431,0.0,0.0,0.0,0.0,0.0,0.0,0.0,0.0,0.0,0.0,0.0,0.0,0.0,0.0,0.0,0.0,0.0,0.0,0.0,0.0,0.0,0.0,0.0,0.0,-3.3073,-3.4479,-3.5734,-3.7245,-3.8776,-4.0202,-3.8886,-3.8178,-3.9197,-3.8753,-3.863,-3.9143,-3.9512,-3.9396,-3.8699,0.0,0.0,0.0,0.0,-3.468,-3.468,-3.3721,-3.3156,-3.3005,-3.3005,-3.2899,-3.2792,-3.2792,-3.2201,-3.1034,-3.1034,-3.0328,-2.9277,-2.8954,-2.8611,-2.8397,-2.8492,-2.8277,-2.7902,-2.7621,-2.705,-2.6454,0.0,0.0,0.0,0.0,0.0,0.0,0.0,0.0,0.0,0.0,0.0,0.0,0.0,0.0,0.0,0.0,0.0,0.0,0.0,0.0,0.0,0.0,0.0,0.0,0.0,0.0,0.0,0.0,0.0,0.0,0.0,0.0,0.0,0.0,0.0,0.0,0.0,0.0,0.0,0.0,0.0,0.0,-1.0475,-0.9903,-0.9052,-0.8028,-0.7575,-0.7316,-0.7126,-0.6735,-0.6479,-0.6303,-0.6088,0.0,0.0,0.0,0.0,0.0,0.0,0.0,0.0,0.0,0.0,0.0,0.0,0.0,0.0,0.0,0.0,0.0,0.0,0.0,0.0,-2.9986,-3.129,-3.2404,-3.3184,-3.3006,-3.3965,-3.6959,-3.6561,-3.6106,-3.631,-3.5636,-3.529,-3.5418,-3.4981,-3.4525,-3.4441,-3.4245,0.0,-3.4549,-3.4255,-3.4092,-3.4092,-3.3887,-3.3041,-3.1724,0.0,0.0,-3.0329,-3.0329,-2.9829,-2.8848,-2.8848,-2.8241,-2.7188,-2.7083,-2.6779,-2.6433,-2.689,-2.6719,-2.6378,-2.5949,-2.5738,-2.5601,0.0,0.0,0.0,0.0,0.0,0.0,0.0,0.0,0.0,0.0,0.0,0.0,0.0,0.0,0.0,0.0,0.0,0.0,0.0,0.0,0.0,0.0,0.0,0.0,0.0,0.0,0.0,0.0,0.0,0.0,0.0,0.0,0.0,0.0,0.0,0.0,0.0,0.0,0.0,0.0,0.0,0.0,-0.5162,-0.6839,-0.6469,-0.5079,-0.4684,-0.391,-0.301,-0.2838,-0.2779,-0.2617,-0.2536,-0.2453,-0.2462,0.0,0.0,0.0,0.0,0.0,0.0,0.0,0.0,0.0,0.0,0.0,0.0,0.0,0.0,-2.3881,0.0,0.0,-2.7985,-2.8881,-3.0072,-3.083,-3.0662,-3.0503,-3.1235,-3.3356,-3.2991,-3.2485,-3.2499,-3.2552,-3.2574,-3.2667,-3.2778,-3.2641,-3.2411,-3.24,-3.2498,-3.2729,-3.22,-3.1881,-3.1881,-3.1356,-3.0725,-2.9884,-2.9884,-2.9449,-2.8623,-2.8623,-2.8262,-2.7646,-2.7542,-2.7091,-2.6593,-2.6294,-2.5994,-2.5607,-2.5706,-2.5674,-2.5637,-2.5445,-2.5115,-2.4785,0.0,0.0,0.0,0.0,0.0,0.0,0.0,0.0,0.0,0.0,0.0,0.0,0.0,0.0,0.0,0.0,0.0,0.0,0.0,0.0,0.0,0.0,0.0,0.0,0.0,0.0,0.0,0.0,0.0,0.0,0.0,0.0,0.0,0.0,0.0,0.0,0.0,0.0,0.0,0.0,0.0,0.0,-0.0434,-0.3212,-0.3518,-0.2237,-0.1596,-0.0402,0.1006,0.101,0.1032,0.1058,0.1061,0.1076,0.0977,-0.0106,-0.0739,0.0,0.0,0.0,0.0,0.0,0.0,0.0,0.0,0.0,-1.9322,-2.1593,-2.2162,-2.2775,-2.4932,-2.5894,-2.6481,-2.6948,-2.7952,-2.8345,-2.739,-2.7704,-2.8148,-2.8653,-2.9052,-2.923,-2.9222,-2.9818,-3.0149,-3.0231,-3.0959,-3.1259,-3.0981,-3.0959,-3.0959,-3.0959,-3.0026,-2.9618,-2.9618,-2.8698,-2.8252,-2.8174,-2.8174,-2.7949,-2.7539,-2.7539,-2.7201,-2.6783,-2.6381,-2.6139,-2.6139,-2.5647,-2.5348,-2.5096,-2.4785,-2.4803,-2.5014,-2.5014,-2.4546,-2.3861,0.0,0.0,0.0,0.0,0.0,0.0,0.0,0.0,0.0,0.0,0.0,0.0,0.0,0.0,0.0,0.0,0.0,0.0,0.0,0.0,0.0,0.0,0.0,0.0,0.0,0.0,0.0,0.0,0.0,0.0,0.0,0.0,0.0,0.0,0.0,0.0,0.0,0.0,0.0,0.0,0.0,0.0,0.0695,0.0534,0.0368,0.0383,0.0695,0.1107,0.1513,0.1741,0.1859,0.1873,0.1798,0.1722,0.1517,0.1152,0.0,-0.0,-0.1519,-0.4307,-0.7403,-1.0293,-1.203,-1.3886,0.0,0.0,-1.9508,-2.1131,-2.153,-2.1542,-2.142,-2.192,-2.2366,-2.2441,-2.2929,-2.3032,-2.2183,-2.2282,-2.2153,-2.1344,-2.5515,-2.8295,-2.7754,-2.7584,-2.7583,-2.7682,-2.7829,-2.814,-2.8688,-2.8708,-2.8708,-2.8708,-2.8601,-2.8495,-2.8495,-2.8398,-2.8105,-2.7734,-2.7734,-2.751,-2.709,-2.6875,-2.6541,-2.6025,-2.5135,-2.4768,-2.4768,-2.4489,-2.4389,-2.429,-2.4244,-2.4024,-2.3749,-2.3749,-2.3474,-2.2899,0.0,0.0,0.0,0.0,0.0,0.0,0.0,0.0,0.0,0.0,0.0,0.0,0.0,0.0,0.0,0.0,0.0,0.0,0.0,0.0,0.0,0.0,0.0,0.0,0.0,0.0,0.0,0.0,0.0,0.0,0.0,0.0,0.0,0.0,0.0,0.0,0.0,0.0,0.0,0.0,0.0,0.0,0.5188,0.5584,0.5433,0.4935,0.3131,0.3067,0.0,0.0,0.4072,0.4191,0.4471,0.4519,0.4427,0.415,0.3429,0.0,-0.1229,-0.3799,0.0,0.0,-1.0742,-1.2263,-1.4531,-1.5388,-1.6168,-1.782,-1.8092,-1.8541,-1.952,-2.0364,-2.0949,0.0,-2.1951,-2.2164,-2.157,-2.1628,-2.152,-2.1105,-2.3637,-2.5194,-2.4458,-2.5487,-2.64,-2.6814,-2.7197,-2.7631,-2.8271,-2.8291,-2.8174,-2.7939,-2.793,-2.7803,-2.7549,-2.7549,-2.7461,-2.7285,-2.7285,-2.706,-2.665,-2.655,-2.6106,-2.5286,-2.4712,-2.443,-2.4341,-2.4251,-2.4015,-2.3794,-2.3794,-2.34,-2.2896,-2.3373,-2.2754,-2.1585,0.0,0.0,0.0,0.0,0.0,0.0,0.0,0.0,0.0,0.0,0.0,0.0,0.0,0.0,0.0,0.0,0.0,0.0,0.0,0.0,0.0,0.0,0.0,0.0,0.0,0.0,0.0,0.0,0.0,0.0,0.0,0.0,0.0,0.0,0.0,0.0,0.0,0.0,0.0,0.0,0.0,0.0,0.8611,0.8968,0.8988,0.8426,0.5896,0.5545,0.0,0.0,0.6435,0.6454,0.6839,0.679,0.6718,0.6513,0.5519,0.3592,-0.082,0.0,0.0,-0.7849,-0.9242,-1.0278,-1.2068,-1.2685,-1.3346,-1.5005,-1.5329,-1.5798,-1.7361,-1.8227,-1.8871,-1.9633,-2.0274,-2.0677,-2.0444,-2.0796,-2.0998,-2.0998,-2.2367,-2.3042,-2.2593,-2.4317,-2.5805,-2.6634,-2.696,-2.7526,-2.8271,-2.8291,-2.8096,-2.7676,-2.7666,-2.7461,-2.7021,-2.7012,-2.6953,-2.6846,-2.6846,-2.6553,-2.5917,-2.5702,-2.5147,-2.4468,-2.4272,-2.4239,-2.4143,-2.4033,-2.3877,-2.3684,-2.3474,-2.3015,-2.2557,-2.3033,-2.2102,-2.0619,0.0,0.0,0.0,0.0,0.0,0.0,0.0,0.0,0.0,0.0,0.0,0.0,0.0,0.0,0.0,0.0,0.0,0.0,0.0,0.0,0.0,0.0,0.0,0.0,0.0,0.0,0.0,0.0,0.0,0.0,0.0,0.0,0.0,0.0,0.0,0.0,0.0,0.0,0.0,0.0,0.0,0.0,0.9512,0.9687,0.9804,0.9722,0.9159,0.0,0.0,0.0,0.8617,0.834,0.7872,0.76,0.0,0.7043,0.6254,0.0,0.0,0.0,-0.3036,-0.67,-0.7552,-0.8333,-1.0957,-1.174,-1.2442,-1.4051,-1.4177,-1.4019,-1.4019,-1.4423,-1.5039,-1.5634,-1.6434,-1.6937,-1.7298,-1.8462,-1.9265,-1.9063,-2.1285,-2.2875,0.0,-2.4562,-2.5832,-2.6769,-2.6816,-2.7208,-2.8271,-2.8291,-2.8096,-2.7676,-2.7666,-2.7461,-2.7021,-2.7012,-2.6807,-2.6406,-2.6406,-2.5849,-2.4698,-2.3815,-2.3474,-2.3556,-2.3565,-2.3785,-2.4115,-2.373,-2.3785,-2.4051,-2.3272,-2.2857,-2.2793,-2.2502,-2.1443,-1.9994,0.0,0.0,0.0,0.0,0.0,0.0,0.0,0.0,0.0,0.0,0.0,0.0,0.0,0.0,0.0,0.0,0.0,0.0,0.0,0.0,0.0,0.0,0.0,0.0,0.0,0.0,0.0,0.0,0.0,0.0,0.0,0.0,0.0,0.0,0.0,0.0,0.0,0.0,0.0,0.0,0.0,0.0,1.24,1.2683,1.2405,1.2016,0.0,0.0,0.0,0.0,0.0,0.0,0.7923,0.0,0.0,0.6494,0.4626,0.2374,0.0,0.0,-0.3935,-0.6376,-0.7572,-0.8487,-0.9951,-1.031,-1.0553,-1.1435,-1.1545,-1.1912,-1.336,-1.386,-1.4733,-1.6433,-1.7576,-1.8352,-1.8469,-1.9768,-2.0648,-2.0327,-2.2374,0.0,0.0,0.0,0.0,-2.6682,-2.6551,-2.6893,-2.7851,-2.7607,-2.7246,-2.6826,-2.6816,-2.6611,-2.6172,-2.6172,-2.5947,-2.5508,-2.5129,-2.4648,-2.4265,-2.3645,-2.3279,-2.3333,-2.3419,-2.3474,-2.3373,-2.3492,-2.3299,-2.2914,-2.2648,-2.2373,-2.2035,-2.1236,-2.0732,-2.0068,0.0,0.0,0.0,0.0,0.0,0.0,0.0,0.0,0.0,0.0,0.0,0.0,0.0,0.0,0.0,0.0,0.0,0.0,0.0,0.0,0.0,0.0,0.0,0.0,0.0,0.0,0.0,0.0,0.0,0.0,0.0,0.0,0.0,0.0,0.0,0.0,0.0,0.0,0.0,0.0,0.0,0.0,1.3514,1.3618,1.3626,0.0,0.0,0.0,0.0,0.0,0.0,0.0,0.0,0.0,0.6718,0.5071,0.3305,0.1453,-0.0484,-0.2539,-0.4644,-0.6802,-0.7648,-0.8213,-0.9122,-0.9434,-0.955,-0.9933,-1.0272,-1.0897,-1.2389,-1.3599,-1.4762,-1.6328,-1.7749,-1.8868,-1.9413,-2.0648,-2.1545,-2.2037,-2.3754,0.0,0.0,0.0,0.0,-2.7121,-2.6845,-2.6929,-2.7656,-2.7246,-2.6826,-2.6396,-2.6387,-2.6182,-2.5742,-2.5742,-2.5411,-2.4964,-2.4102,-2.3648,-2.3547,-2.3027,-2.2852,-2.2908,-2.2988,-2.3052,-2.2866,-2.3061,-2.2887,-2.252,-2.2226,-2.2043,-2.1834,-2.105,-2.0619,-2.0158,0.0,0.0,0.0,0.0,0.0,0.0,0.0,0.0,0.0,0.0,0.0,0.0,0.0,0.0,0.0,0.0,0.0,0.0,0.0,0.0,0.0,0.0,0.0,0.0,0.0,0.0,0.0,0.0,0.0,0.0,0.0,0.0,0.0,0.0,0.0,0.0,0.0,0.0,0.0,0.0,0.0,0.0,1.2786,1.2624,0.0,0.0,0.0,0.0,0.0,0.0,0.0,0.0,0.0,0.0,0.5235,0.2941,0.2143,0.123,-0.218,-0.3706,-0.5043,-0.7708,-0.7778,-0.747,-0.8524,-0.9127,-0.9489,-0.9682,-1.0404,-1.1142,0.0,0.0,-1.5138,-1.5522,-1.6927,-1.852,-1.9994,-2.0817,-2.2038,0.0,0.0,0.0,0.0,0.0,0.0,-2.7785,0.0,-2.7294,-2.7637,-2.7197,-2.6768,-2.6367,-2.6328,-2.6133,-2.5645,-2.5596,-2.5247,-2.4602,-2.3509,-2.2947,-2.2656,-2.2005,-2.1942,-2.23,-2.2318,-2.2538,-2.2774,-2.2483,-2.2547,-2.272,-2.2043,-2.197,-2.2245,-2.1878,-2.1177,-2.0249,0.0,0.0,0.0,0.0,0.0,0.0,0.0,0.0,0.0,0.0,0.0,0.0,0.0,0.0,0.0,0.0,0.0,0.0,0.0,0.0,0.0,0.0,0.0,0.0,0.0,0.0,0.0,0.0,0.0,0.0,0.0,0.0,0.0,0.0,0.0,0.0,0.0,0.0,0.0,0.0,0.0,0.0,1.0927,0.0,0.0,0.0,0.0,0.0,0.0,0.0,0.0,0.0,0.0,0.2732,0.1433,0.1076,-0.0909,-0.3328,-0.5194,-0.6002,-0.6538,-0.7205,-0.7777,-0.849,-0.9969,-1.0336,-1.0547,-1.139,-1.176,-1.2355,0.0,0.0,0.0,-1.7386,-1.8989,0.0,-2.1159,-2.2376,0.0,0.0,0.0,-2.5956,-2.6263,-2.6912,0.0,0.0,-2.6917,-2.6859,-2.7178,-2.6475,-2.6016,-2.5908,-2.5383,-2.5208,-2.543,-2.4603,-2.3982,-2.3471,-2.2678,-2.2344,-2.2246,-2.1876,-2.1796,-2.1906,-2.2199,-2.2217,-2.2061,-2.2245,-2.2217,-2.2025,-2.1814,-2.1796,-2.1878,-2.1777,-2.1553,-2.1275,0.0,0.0,0.0,0.0,0.0,0.0,0.0,0.0,0.0,0.0,0.0,0.0,0.0,0.0,0.0,0.0,0.0,0.0,0.0,0.0,0.0,0.0,0.0,0.0,0.0,0.0,0.0,0.0,0.0,0.0,0.0,0.0,0.0,0.0,0.0,0.0,0.0,0.0,0.0,0.0,0.0,0.0,0.0,0.0,0.0,0.0,0.0,0.0,0.0,0.0,0.0,0.2759,0.0613,-0.079,-0.2032,-0.371,0.0,-0.629,-0.7934,-0.8368,-0.8529,-0.8989,-0.953,-1.0106,-1.1146,-1.1579,-1.1926,-1.2648,-1.3237,0.0,0.0,0.0,0.0,0.0,0.0,0.0,-2.2214,-2.3004,-2.3913,0.0,-2.5703,0.0,-2.6275,-2.6772,-2.7059,0.0,-2.691,-2.673,-2.6748,-2.6103,-2.5742,-2.5742,-2.5199,-2.49,-2.486,-2.4108,-2.3473,-2.2875,-2.2382,-2.2008,-2.1919,-2.1741,-2.1741,-2.175,0.0,-2.1942,-2.175,-2.1979,-2.1933,-2.1741,-2.1741,-2.1741,-2.1741,-2.1741,-2.1741,-2.1741,0.0,0.0,0.0,0.0,0.0,0.0,0.0,0.0,0.0,0.0,0.0,0.0,0.0,0.0,0.0,0.0,0.0,0.0,0.0,0.0,0.0,0.0,0.0,0.0,0.0,0.0,0.0,0.0,0.0,0.0,0.0,0.0,0.0,0.0,0.0,0.0,0.0,0.0,0.0,0.0,0.0,0.0,0.0,0.0,0.0,0.0,0.0,0.0,0.0,0.0,-0.2417,-0.17,-0.3897,-0.4932,-0.6063,-0.9634,-0.9584,-0.8729,-1.061,-1.0979,-1.0995,-1.1837,-1.2029,-1.2147,-1.2475,-1.3058,-1.3594,-1.3731,0.0,-1.565,-1.6007,0.0,-1.961,-1.9313,0.0,-2.207,-2.3091,-2.3277,-2.3913,-2.5629,-2.6208,-2.6487,-2.6429,-2.6793,-2.6904,-2.7038,-2.7038,-2.6881,-2.6507,-2.6133,-2.5897,-2.5838,-2.5596,-2.5102,-2.424,-2.4049,-2.3464,-2.2602,-2.2372,-2.2036,-2.1814,-2.1759,-2.1768,-2.1814,0.0,0.0,-2.1741,-2.1741,-2.1741,-2.1741,-2.1741,-2.1741,-2.1741,-2.1741,-2.1741,-2.1731,0.0,0.0,0.0,0.0,0.0,0.0,0.0,0.0,0.0,0.0,-1.5676,0.0,0.0,0.0,0.0,0.0,0.0,0.0,0.0,0.0,0.0,0.0,0.0,0.0,0.0,0.0,0.0,0.0,0.0,0.0,0.0,0.0,0.0,0.0,0.0,0.0,0.0,0.0,0.0,0.0,0.0,0.0,0.0,0.0,0.0,0.0,0.0,0.0,0.0,0.0,-0.6512,-0.522,-0.7912,-1.0699,-1.2942,-1.2475,-1.2859,-1.3458,-1.3824,-1.3761,-1.3659,-1.3979,-1.3751,-1.3692,-1.4771,-1.5044,0.0,0.0,0.0,-1.6872,-1.7296,-1.7998,0.0,-2.0004,0.0,0.0,0.0,0.0,-2.4948,0.0,0.0,0.0,0.0,0.0,0.0,0.0,0.0,-2.7033,-2.6951,-2.6965,-2.6845,-2.6775,-2.6666,-2.5809,-2.4179,-2.4618,-2.3987,-2.241,-2.2551,-2.2532,-2.2208,-2.1887,-2.1915,-2.2208,-2.1878,0.0,-2.1741,-2.1741,-2.1741,-2.1741,-2.1741,-2.1741,-2.1741,-2.1741,-2.1741,-2.1642,0.0,0.0,0.0,0.0,0.0,0.0,0.0,0.0,0.0,0.0,-1.5937,-1.5814,0.0,0.0,0.0,0.0,0.0,0.0,0.0,0.0,0.0,0.0,0.0,0.0,0.0,0.0,0.0,0.0,0.0,0.0,0.0,0.0,0.0,0.0,0.0,0.0,0.0,0.0,0.0,0.0,0.0,0.0,0.0,0.0,0.0,0.0,0.0,0.0,0.0,0.0,-1.2218,-1.1758,-1.1548,-1.3174,-1.5135,-1.5259,-1.5929,-1.6596,-1.6775,-1.669,-1.6627,-1.6792,-1.6914,-1.7226,-1.777,0.0,0.0,0.0,0.0,-1.7986,-1.8257,0.0,0.0,0.0,0.0,0.0,0.0,0.0,0.0,0.0,0.0,0.0,0.0,0.0,0.0,0.0,0.0,-2.7945,-2.7945,-2.7767,-2.74,-2.7004,-2.6927,-2.6138,-2.4598,-2.4935,-2.4244,-2.2556,-2.2933,-2.2867,-2.2327,-2.2355,-2.2355,-2.2318,-2.2126,0.0,-2.1741,-2.1741,-2.1741,-2.1741,-2.1741,-2.1741,-2.1741,-2.1741,-2.1553,-2.1275,0.0,0.0,0.0,0.0,0.0,0.0,0.0,-1.5667,-1.598,-1.6335,-1.6221,-1.6159,-1.6147,-1.6034,-1.6149,0.0,0.0,0.0,0.0,0.0,0.0,0.0,0.0,0.0,0.0,0.0,0.0,0.0,0.0,0.0,0.0,0.0,0.0,0.0,0.0,0.0,0.0,0.0,0.0,0.0,0.0,0.0,0.0,0.0,0.0,0.0,0.0,0.0,0.0,0.0,-1.7281,-1.7702,-1.5489,-1.5576,-1.6792,-1.8279,-1.8929,-1.9327,-1.9627,-1.9561,-1.9493,-1.9621,-1.9938,-2.0174,-2.0148,-1.9744,0.0,0.0,-1.9118,-1.8827,-1.8827,0.0,0.0,0.0,0.0,0.0,0.0,0.0,0.0,0.0,0.0,0.0,0.0,0.0,0.0,0.0,0.0,0.0,-2.8877,-2.8343,-2.7868,-2.7505,-2.7232,-2.6641,-2.5452,-2.5441,-2.4556,-2.2938,-2.3355,-2.3195,-2.2474,-2.2804,-2.2777,-2.2456,-2.2364,0.0,0.0,-2.1741,-2.1741,-2.1741,-2.1741,-2.1642,-2.1553,-2.1553,-2.1275,-2.0817,0.0,0.0,0.0,0.0,0.0,0.0,0.0,-1.5533,-1.5782,-1.6378,-1.649,-1.6508,-1.6615,-1.606,-1.5841,0.0,0.0,0.0,0.0,0.0,0.0,0.0,0.0,0.0,0.0,0.0,0.0,0.0,0.0,0.0,0.0,0.0,0.0,0.0,0.0,0.0,0.0,0.0,0.0,0.0,0.0,0.0,0.0,0.0,0.0,0.0,0.0,0.0,0.0,0.0,0.0,-2.0174,-2.0352,-2.0393,-2.0578,-2.152,0.0,0.0,-2.2319,-2.2145,-2.1967,-2.2126,-2.1216,-2.0376,-2.0437,0.0,0.0,-1.8457,-1.8672,-1.8827,-1.8827,-1.8883,0.0,0.0,0.0,0.0,0.0,0.0,0.0,0.0,0.0,0.0,0.0,0.0,0.0,0.0,0.0,0.0,-2.9474,-2.8533,-2.8377,-2.9268,-2.8422,-2.7511,-2.6773,-2.6579,-2.5399,-2.3361,-2.4019,-2.3793,-2.2802,-2.2848,-2.2838,-2.2784,-2.2492,0.0,0.0,-2.1741,-2.1741,-2.1741,-2.1741,-2.1454,-2.1087,-2.1087,-2.0736,-2.0292,0.0,0.0,0.0,0.0,0.0,0.0,0.0,-1.6007,-1.6155,-1.6296,-1.6282,-1.6491,-1.6895,-1.6366,-1.6279,0.0,0.0,0.0,0.0,0.0,0.0,0.0,0.0,0.0,0.0,0.0,0.0,0.0,0.0,0.0,0.0,0.0,0.0,0.0,0.0,0.0,0.0,0.0,0.0,0.0,0.0,0.0,0.0,0.0,0.0,0.0,0.0,0.0,0.0,0.0,0.0,0.0,-2.2784,-2.2908,0.0,0.0,-2.2951,-2.3298,-2.3321,-2.3274,-2.3327,-2.3617,-2.295,-2.2292,-2.246,0.0,0.0,-1.9529,-1.9174,-1.892,-1.9188,-1.9279,-1.9729,0.0,0.0,0.0,0.0,0.0,0.0,0.0,0.0,0.0,0.0,0.0,0.0,0.0,0.0,0.0,-2.99,-2.9272,-2.8857,-2.8594,-2.8225,-2.7583,-2.6754,-2.691,-2.6003,-2.4048,-2.4846,-2.4536,-2.3222,-2.3565,-2.3538,-2.329,-2.2878,0.0,0.0,-2.1464,-2.1275,-2.1275,-2.1015,-2.0736,-2.0555,-2.0555,-2.0283,-1.9828,0.0,0.0,0.0,0.0,0.0,0.0,-1.6353,-1.6147,-1.6053,-1.5978,-1.6081,-1.6354,-1.6953,-1.6545,-1.6477,-1.6926,0.0,0.0,0.0,0.0,0.0,0.0,0.0,0.0,0.0,0.0,0.0,0.0,0.0,0.0,0.0,0.0,0.0,0.0,0.0,0.0,0.0,0.0,0.0,0.0,0.0,0.0,0.0,0.0,0.0,0.0,0.0,0.0,0.0,0.0,0.0,0.0,0.0,0.0,0.0,0.0,-2.367,-2.4136,-2.4257,-2.4402,-2.4511,-2.4859,-2.4245,-2.3545,0.0,0.0,-2.0339,-2.0339,-1.9629,-1.9188,-1.9546,-1.9985,-2.0683,0.0,0.0,0.0,0.0,0.0,0.0,0.0,0.0,0.0,0.0,0.0,0.0,0.0,0.0,0.0,0.0,-2.9635,-2.9117,-2.8265,-2.7971,-2.7512,-2.6835,-2.702,-2.6285,-2.4586,-2.5348,-2.4954,-2.3556,-2.3969,-2.3868,-2.3268,0.0,0.0,0.0,-2.1427,-2.1103,-2.0907,-2.0464,-2.0201,-2.0102,-2.0102,-1.9737,-1.9371,0.0,0.0,0.0,0.0,0.0,0.0,0.0,-1.5791,-1.5355,-1.5705,-1.5825,-1.6052,-1.664,-1.6446,-1.6273,-1.6266,0.0,0.0,0.0,0.0,0.0,0.0,0.0,0.0,0.0,0.0,0.0,-1.6218,-1.5511,0.0,0.0,0.0,0.0,0.0,0.0,0.0,0.0,0.0,0.0,0.0,0.0,0.0,0.0,0.0,0.0,0.0,0.0,0.0,0.0,0.0,0.0,0.0,0.0,0.0,0.0,0.0,-2.4838,-2.5211,-2.5514,-2.5553,-2.5658,-2.5841,-2.4796,-2.383,0.0,0.0,-2.0339,-2.0339,-1.9903,-1.9546,-1.9637,-2.0863,-2.2161,-2.26,0.0,0.0,0.0,0.0,0.0,0.0,0.0,0.0,0.0,0.0,0.0,0.0,0.0,0.0,0.0,-2.9216,-2.9248,-2.8861,-2.7818,-2.7315,-2.7304,-2.6867,-2.6136,-2.5108,-2.5488,-2.4954,-2.3556,-2.3969,-2.3721,0.0,0.0,0.0,0.0,-2.1624,-2.1361,-2.0907,-2.0464,-2.0011,-1.9646,-1.9646,-1.9279,-1.8827,0.0,0.0,0.0,0.0,0.0,0.0,0.0,-1.6775,-1.6392,-1.577,-1.5858,-1.6223,-1.6828,-1.6808,-1.6752,-1.6752,0.0,0.0,0.0,0.0,0.0,0.0,0.0,0.0,0.0,0.0,-1.6022,-1.6127,-1.5924,-1.5915,-1.6081,-1.6051,0.0,0.0,0.0,0.0,0.0,0.0,0.0,0.0,0.0,0.0,0.0,0.0,0.0,0.0,0.0,0.0,0.0,0.0,0.0,0.0,0.0,0.0,0.0,0.0,0.0,0.0,-2.5125,-2.5081,-2.5196,-2.5404,-2.4354,-2.3379,-2.3771,-2.2518,-2.1338,-2.1409,-2.132,-2.1418,-2.1943,-2.262,-2.381,-2.5744,0.0,0.0,0.0,0.0,0.0,0.0,0.0,0.0,0.0,0.0,0.0,0.0,0.0,0.0,0.0,-2.9576,-2.9106,-2.8287,-2.7971,-2.7654,-2.7315,-2.7501,-2.7115,-2.6341,-2.6222,-2.5671,-2.4714,-2.4384,0.0,0.0,0.0,0.0,0.0,-2.1186,-2.0668,-2.0464,-1.9554,-1.9196,-1.9004,-1.9004,-1.892,-1.8827,0.0,0.0,0.0,0.0,0.0,0.0,0.0,-1.7666,-1.7185,-1.6272,-1.6357,-1.6593,-1.687,-1.6746,-1.6725,-1.6739,0.0,0.0,0.0,0.0,0.0,0.0,0.0,0.0,0.0,-1.6239,-1.6239,-1.6218,-1.6569,-1.6823,-1.707,-1.7593,-1.8521,-1.9783,0.0,0.0,0.0,0.0,0.0,0.0,0.0,0.0,-2.3841,0.0,0.0,0.0,0.0,0.0,0.0,0.0,0.0,0.0,0.0,0.0,0.0,0.0,-2.52,0.0,0.0,-2.5295,-2.5325,-2.5633,-2.4845,0.0,0.0,-2.3408,-2.2394,-2.2648,-2.2561,-2.257,-2.3008,-2.4084,-2.5486,-2.7341,0.0,0.0,0.0,0.0,0.0,0.0,0.0,0.0,0.0,0.0,0.0,0.0,0.0,0.0,0.0,-2.9925,-2.9401,-2.8615,-2.8233,-2.7894,-2.7588,-2.7883,-2.7758,-2.719,-2.6991,-2.635,-2.5285,-2.4664,0.0,0.0,0.0,0.0,0.0,-2.1156,-2.042,-2.0201,-1.9196,-1.8827,-1.8827,-1.8827,-1.8827,-1.8827,0.0,0.0,0.0,0.0,0.0,0.0,0.0,0.0,0.0,0.0,-1.7056,-1.6899,-1.6739,-1.6395,-1.6239,0.0,0.0,0.0,0.0,0.0,0.0,0.0,0.0,0.0,0.0,-1.6628,-1.6621,-1.6591,-1.756,-1.8263,-1.8791,-1.9746,-2.1011,-2.2454,-2.2064,0.0,0.0,0.0,0.0,0.0,0.0,0.0,0.0,0.0,0.0,0.0,0.0,0.0,0.0,0.0,0.0,0.0,0.0,0.0,0.0,0.0,0.0,0.0,0.0,0.0,0.0,0.0,0.0,0.0,0.0,-2.4625,0.0,-2.3887,-2.3647,-2.3319,-2.3396,-2.5432,-2.7204,-2.7874,0.0,0.0,0.0,0.0,0.0,0.0,0.0,0.0,0.0,0.0,0.0,0.0,0.0,0.0,0.0,-3.0231,-3.0002,-2.9543,-2.8593,-2.8091,-2.8091,-2.8091,-2.7931,-2.7683,-2.7589,-2.6819,-2.5373,-2.49,0.0,0.0,0.0,0.0,0.0,-2.1287,-2.06,-2.011,-1.9196,-1.8827,-1.8827,-1.8827,-1.8827,-1.8827,0.0,0.0,0.0,0.0,0.0,0.0,0.0,0.0,0.0,0.0,-1.7319,-1.7175,-1.6914,-1.6637,-1.6522,0.0,0.0,0.0,0.0,0.0,0.0,0.0,0.0,0.0,0.0,-1.739,-1.7727,-1.756,-1.8531,-1.9323,-1.9746,-2.0921,-2.216,-2.3604,-2.3705,0.0,0.0,0.0,0.0,0.0,0.0,0.0,0.0,0.0,0.0,0.0,-2.47,-2.52,0.0,0.0,0.0,0.0,0.0,0.0,0.0,0.0,-2.5728,-2.5749,-2.5869,0.0,-2.5392,-2.5498,-2.5445,0.0,0.0,0.0,0.0,0.0,0.0,0.0,0.0,0.0,0.0,0.0,0.0,0.0,0.0,0.0,0.0,0.0,0.0,0.0,0.0,0.0,0.0,0.0,0.0,0.0,0.0,-3.0406,-3.0155,-3.0046,-2.9095,-2.8582,-2.8582,-2.8582,-2.8544,-2.8466,-2.7882,-2.7115,-2.6157,-2.5479,0.0,0.0,0.0,0.0,-2.2178,-2.0928,-2.0186,-1.9737,-1.9012,-1.8827,-1.8827,-1.8827,-1.8827,-1.8827,0.0,0.0,0.0,0.0,0.0,0.0,0.0,0.0,0.0,0.0,0.0,0.0,0.0,0.0,0.0,0.0,0.0,0.0,0.0,0.0,0.0,0.0,0.0,0.0,-1.7138,-1.7978,-1.8446,-1.8361,-2.0078,-2.1103,-2.1522,-2.3321,-2.4556,-2.5408,-2.5189,0.0,0.0,0.0,0.0,0.0,-2.454,0.0,0.0,0.0,0.0,0.0,-2.5443,-2.6019,0.0,-2.6113,-2.6279,-2.6809,0.0,0.0,0.0,0.0,-2.7054,-2.6886,-2.7364,-2.6707,-2.5872,-2.5872,-2.5797,-2.5712,0.0,0.0,0.0,0.0,0.0,0.0,0.0,0.0,0.0,0.0,0.0,0.0,0.0,0.0,0.0,0.0,0.0,0.0,0.0,0.0,0.0,0.0,0.0,0.0,0.0,-3.0461,-3.0111,-2.9893,-2.915,-2.8757,-2.8757,-2.8757,-2.8757,-2.8757,-2.7977,-2.721,-2.6446,-2.5478,-2.4742,0.0,0.0,0.0,-2.2114,-2.0784,-2.0011,-1.9554,-1.9012,-1.8827,-1.8827,-1.8827,-1.8827,-1.8827,0.0,0.0,0.0,0.0,0.0,0.0,0.0,0.0,0.0,0.0,0.0,0.0,0.0,0.0,0.0,0.0,0.0,0.0,0.0,0.0,0.0,0.0,0.0,-1.7785,-1.787,-1.8696,-1.9191,-1.9326,-2.1845,-2.3236,-2.3825,-2.6179,-2.7405,-2.7417,-2.6434,-2.5902,0.0,0.0,0.0,0.0,-2.4615,0.0,0.0,0.0,0.0,0.0,0.0,0.0,0.0,-2.6207,-2.6335,-2.7039,-2.6823,0.0,0.0,0.0,0.0,0.0,-2.9188,-2.8214,-2.6887,-2.681,-2.6541,-2.639,0.0,0.0,0.0,0.0,0.0,0.0,0.0,0.0,0.0,0.0,0.0,0.0,0.0,0.0,0.0,0.0,0.0,0.0,0.0,0.0,0.0,0.0,0.0,0.0,0.0,-3.0395,-2.9915,-2.95,-2.8943,-2.8648,-2.8648,-2.8648,-2.8604,-2.8528,-2.7857,-2.7097,-2.6235,-2.5212,-2.4488,0.0,0.0,0.0,-2.1931,-2.0666,-1.992,-1.9455,-1.9012,-1.8827,-1.8827,-1.8827,-1.8827,-1.8827,0.0,0.0,0.0,0.0,0.0,0.0,0.0,0.0,0.0,0.0,0.0,0.0,0.0,0.0,0.0,0.0,0.0,0.0,0.0,0.0,0.0,0.0,0.0,-1.7963,-1.8603,-1.9786,-2.0558,-2.0935,-2.3634,-2.5312,-2.6203,-2.8475,-2.9438,-2.9157,-2.7568,-2.6483,-2.5735,-2.4861,-2.454,-2.454,-2.5337,0.0,0.0,0.0,0.0,0.0,0.0,0.0,0.0,-2.6905,-2.6641,-2.6697,-2.7013,0.0,0.0,0.0,0.0,0.0,-2.9868,-2.9233,-2.8202,-2.7804,-2.7119,-2.6639,0.0,0.0,0.0,0.0,0.0,0.0,0.0,0.0,0.0,0.0,0.0,0.0,0.0,0.0,0.0,0.0,0.0,0.0,0.0,0.0,0.0,0.0,0.0,0.0,0.0,-3.0067,-2.9565,-2.9489,-2.8615,-2.8145,-2.8145,-2.8145,-2.7938,-2.7534,-2.7445,-2.6605,-2.5319,-2.5157,-2.4346,0.0,0.0,-2.1441,-2.0984,-2.0088,-1.9371,-1.892,-1.8827,-1.8827,-1.8827,-1.8827,-1.8827,-1.8827,0.0,0.0,0.0,0.0,0.0,0.0,0.0,0.0,0.0,0.0,0.0,0.0,0.0,0.0,0.0,0.0,0.0,0.0,0.0,0.0,0.0,0.0,-1.9322,-1.9596,-1.9786,-2.106,-2.1961,-2.2306,-2.4405,-2.5711,-2.6231,-2.7951,-2.8609,-2.8383,-2.7281,-2.655,-2.6138,-2.5238,-2.5228,-2.5787,0.0,0.0,0.0,0.0,0.0,0.0,0.0,0.0,0.0,0.0,-2.7005,-2.7054,-2.7988,0.0,0.0,0.0,0.0,0.0,-3.0846,-3.0016,-2.8951,-2.8998,-2.8121,-2.7446,0.0,0.0,0.0,0.0,0.0,0.0,0.0,0.0,0.0,0.0,0.0,0.0,0.0,0.0,0.0,0.0,0.0,0.0,0.0,0.0,0.0,0.0,0.0,0.0,0.0,0.0,-2.8975,-2.8713,-2.8014,-2.7523,-2.7282,-2.7282,-2.7106,-2.6761,-2.6304,-2.5583,-2.4496,-2.383,-2.3186,-2.2443,0.0,-2.0941,-2.0449,-1.9887,-1.9279,-1.8827,-1.8827,-1.8827,-1.8827,-1.8827,-1.8827,-1.8827,0.0,0.0,0.0,0.0,0.0,0.0,0.0,0.0,0.0,0.0,0.0,0.0,0.0,0.0,0.0,0.0,0.0,0.0,0.0,0.0,-1.9962,-2.0683,-2.1221,-2.1419,-2.115,-2.2246,-2.2969,-2.3232,-2.4924,-2.6048,-2.6652,-2.7451,-2.7813,-2.7743,-2.6763,-2.6441,-2.6562,-2.5892,-2.613,-2.6945,0.0,0.0,0.0,0.0,0.0,0.0,0.0,0.0,0.0,0.0,0.0,0.0,0.0,0.0,0.0,-3.1085,-3.1111,-3.0887,-3.1512,-3.0486,-2.9294,-2.9546,0.0,0.0,0.0,0.0,0.0,0.0,0.0,0.0,0.0,0.0,0.0,0.0,0.0,0.0,0.0,0.0,0.0,0.0,0.0,0.0,0.0,0.0,0.0,0.0,0.0,0.0,0.0,0.0,-2.8418,-2.8058,-2.7457,-2.6988,-2.6638,-2.6335,-2.6097,-2.5988,-2.5355,-2.4545,-2.3563,-2.2639,-2.1986,-2.1696,-2.0924,-2.034,-2.006,-1.9578,-1.9188,-1.8827,-1.8827,-1.8827,-1.8827,-1.8827,-1.8827,-1.8827,0.0,0.0,0.0,0.0,0.0,0.0,0.0,0.0,0.0,0.0,0.0,0.0,0.0,0.0,0.0,0.0,0.0,0.0,0.0,0.0,-2.126,-2.097,-2.2413,-2.3009,-2.2627,-2.2969,-2.3319,-2.3754,-2.5422,-2.7305,-2.9209,-2.881,-2.8586,-2.8575,-2.6718,-2.622,-2.6841,-2.6882,-2.6967,-2.7307,-2.902,0.0,0.0,0.0,0.0,0.0,0.0,0.0,0.0,0.0,0.0,0.0,0.0,0.0,-3.1198,-3.1629,-3.1707,-3.163,-3.1483,-3.0355,-2.9129,-2.887,0.0,0.0,0.0,0.0,0.0,0.0,0.0,0.0,0.0,0.0,0.0,0.0,0.0,0.0,0.0,0.0,0.0,0.0,0.0,0.0,0.0,0.0,0.0,0.0,0.0,0.0,0.0,0.0,0.0,-2.8036,-2.7151,-2.666,-2.6627,-2.5562,-2.5009,-2.4955,-2.4955,-2.3978,-2.2124,-2.2036,-2.1428,-2.0369,-1.9879,-1.9679,-1.9587,-1.9112,-1.8827,-1.8827,-1.8827,-1.8827,-1.8827,-1.8827,-1.8827,-1.8827,0.0,0.0,0.0,0.0,0.0,0.0,0.0,0.0,0.0,0.0,0.0,0.0,0.0,0.0,0.0,0.0,0.0,0.0,0.0,0.0,-2.2326,-2.2157,-2.285,-2.3301,-2.3416,-2.3493,-2.3667,-2.4024,-2.5114,-2.628,-2.7428,-2.6841,-2.669,-2.6893,-2.6044,-2.639,-2.7607,-2.7595,-2.8614,-3.0061,-3.0483,-3.1022,0.0,0.0,0.0,0.0,0.0,0.0,0.0,0.0,-2.9608,0.0,0.0,0.0,-3.1177,-3.1289,-3.0906,-3.047,-3.0347,-3.0109,-2.9606,-2.8877,0.0,0.0,0.0,0.0,0.0,0.0,0.0,0.0,0.0,0.0,0.0,0.0,0.0,0.0,0.0,0.0,0.0,0.0,0.0,0.0,0.0,0.0,0.0,0.0,0.0,0.0,0.0,0.0,0.0,-2.7173,-2.6077,-2.5562,-2.5562,-2.4677,-2.38,-2.3096,-2.3096,-2.2482,-2.1338,-2.0799,-2.0266,-1.9828,-1.9279,-1.9096,-1.9104,-1.892,-1.8827,-1.8827,-1.8827,-1.8827,-1.8827,-1.8827,-1.8827,-1.8735,0.0,0.0,0.0,0.0,0.0,0.0,0.0,0.0,0.0,0.0,0.0,0.0,0.0,0.0,0.0,0.0,0.0,0.0,0.0,0.0,-2.3026,-2.2891,-2.3271,-2.3545,-2.3754,-2.3841,-2.4024,-2.4292,-2.4871,-2.536,-2.5765,-2.5509,-2.5755,-2.6314,-2.6152,-2.6997,-2.8534,-2.863,-2.9702,-3.1377,-3.1505,-3.1906,0.0,0.0,0.0,0.0,0.0,0.0,0.0,0.0,0.0,0.0,0.0,0.0,0.0,0.0,-3.0228,-2.9811,-2.9248,-2.9422,-2.952,0.0,0.0,0.0,0.0,0.0,0.0,0.0,0.0,0.0,0.0,0.0,0.0,0.0,0.0,0.0,0.0,0.0,0.0,0.0,0.0,0.0,0.0,0.0,0.0,0.0,0.0,0.0,0.0,0.0,0.0,0.0,-2.5444,-2.4775,-2.4594,-2.3704,-2.2833,-2.2031,-2.1507,-2.097,-2.0546,-1.9911,-1.9554,-1.9371,-1.892,-1.8827,-1.8827,-1.8827,-1.8827,-1.8827,-1.8827,-1.8827,-1.8827,-1.8827,-1.8827,-1.8735,0.0,0.0,0.0,0.0,0.0,0.0,0.0,0.0,0.0,0.0,0.0,0.0,0.0,0.0,0.0,0.0,0.0,0.0,0.0,-2.3456,-2.3584,-2.3154,-2.3723,-2.4018,-2.3764,-2.411,-2.4282,-2.454,-2.4786,-2.4861,-2.4956,-2.5603,-2.64,-2.7296,-2.7222,-2.8161,-2.969,-3.0077,-3.0281,-3.0595,-3.2055,-3.2359,-3.1707,0.0,0.0,0.0,0.0,0.0,0.0,0.0,-3.0986,0.0,0.0,0.0,0.0,0.0,-3.0015,-3.0053,-2.8349,-2.8214,0.0,0.0,0.0,0.0,0.0,0.0,0.0,0.0,0.0,0.0,0.0,0.0,0.0,0.0,0.0,0.0,0.0,0.0,0.0,0.0,0.0,0.0,0.0,0.0,0.0,0.0,0.0,0.0,0.0,0.0,0.0,0.0,-2.5419,-2.4509,-2.38,-2.2561,-2.1943,-2.1943,-2.0348,-1.9637,-1.9637,-1.9546,-1.9279,-1.8827,-1.8827,-1.8827,-1.8827,-1.8827,-1.8827,-1.8827,-1.8827,-1.8827,-1.8827,-1.8827,-1.8827,-1.8827,0.0,0.0,0.0,0.0,0.0,0.0,0.0,0.0,0.0,0.0,0.0,0.0,0.0,0.0,0.0,0.0,0.0,0.0,0.0,0.0,0.0,-2.2705,0.0,0.0,0.0,0.0,-2.5263,-2.4786,-2.4861,-2.5114,-2.5614,-2.6496,-2.7053,-2.7476,-2.8147,-2.9152,-3.0369,-3.0461,-3.1331,-3.2623,-3.271,-3.3077,-3.3548,0.0,0.0,0.0,0.0,0.0,0.0,0.0,0.0,0.0,0.0,0.0,0.0,0.0,-2.8742,-2.8515,-2.8027,0.0,0.0,0.0,0.0,0.0,0.0,0.0,0.0,0.0,0.0,0.0,0.0,0.0,0.0,0.0,0.0,0.0,0.0,0.0,0.0,0.0,0.0,0.0,0.0,0.0,0.0,0.0,0.0,0.0,0.0,0.0,0.0,0.0,-2.4482,-2.356,-2.38,-2.2129,-2.1168,-2.0817,-2.0002,-1.9637,-1.9554,-1.9188,-1.8912,-1.8827,-1.8827,-1.8827,-1.8827,-1.8827,-1.8827,-1.8827,-1.8827,-1.8827,-1.8827,-1.8827,-1.8827,-1.8735,0.0,0.0,0.0,0.0,0.0,0.0,0.0,0.0,0.0,0.0,0.0,0.0,0.0,0.0,0.0,0.0,0.0,0.0,0.0,0.0,0.0,0.0,0.0,0.0,0.0,-2.6617,-2.7049,0.0,0.0,0.0,-2.669,-2.7736,-2.851,-2.894,-2.9832,-3.0654,-3.1442,-3.1212,-3.177,-3.2881,-3.2751,-3.3104,-3.3679,0.0,0.0,0.0,0.0,0.0,0.0,0.0,0.0,0.0,0.0,0.0,0.0,-2.8545,-2.8149,-2.8191,-2.8482,0.0,0.0,0.0,0.0,0.0,0.0,0.0,0.0,0.0,0.0,0.0,0.0,0.0,0.0,0.0,0.0,0.0,0.0,0.0,0.0,0.0,0.0,0.0,0.0,0.0,0.0,0.0,0.0,0.0,0.0,0.0,0.0,0.0,-2.3809,-2.2784,-2.2658,-2.1347,-2.0464,-2.0011,-1.9554,-1.9279,-1.9279,-1.892,-1.8827,-1.8827,-1.8827,-1.8827,-1.8827,-1.8827,-1.8827,-1.8827,-1.8827,-1.8827,-1.8827,-1.8827,-1.8827,-1.8735,0.0,0.0,0.0,0.0,0.0,0.0,0.0,0.0,0.0,0.0,0.0,0.0,0.0,0.0,0.0,0.0,0.0,0.0,0.0,0.0,0.0,0.0,0.0,0.0,0.0,0.0,0.0,0.0,0.0,0.0,0.0,0.0,-3.0262,-3.1035,-3.1825,-3.2268,-3.2502,-3.198,-3.1797,-3.1888,-3.2463,-3.2685,-3.2764,-3.3365,0.0,0.0,0.0,0.0,0.0,0.0,0.0,0.0,0.0,0.0,0.0,-2.8492,-2.8441,-2.8867,0.0,0.0,0.0,0.0,0.0,0.0,0.0,0.0,0.0,0.0,0.0,0.0,0.0,0.0,0.0,0.0,0.0,0.0,0.0,0.0,0.0,0.0,0.0,0.0,0.0,0.0,0.0,0.0,0.0,0.0,0.0,0.0,0.0,0.0,-2.3183,-2.2078,-2.1087,-2.0464,-2.0011,0.0,-1.9096,-1.8827,-1.8827,-1.8827,-1.8827,-1.8827,-1.8827,-1.8827,-1.8827,-1.8827,-1.8812,-1.8788,-1.8812,-1.8812,-1.8788,-1.8812,-1.8827,-1.8827,0.0,0.0,0.0,0.0,0.0,0.0,0.0,0.0,0.0,0.0,0.0,0.0,0.0,0.0,0.0,0.0,0.0,0.0,0.0,0.0,0.0,0.0,0.0,0.0,0.0,0.0,0.0,0.0,0.0,0.0,0.0,0.0,0.0,-3.0093,0.0,-3.2137,-3.1339,-3.1222,-3.1431,-3.1888,-3.2463,-3.2685,-3.2764,-3.3365,-3.3143,0.0,0.0,0.0,0.0,0.0,0.0,0.0,-3.1724,-3.1361,-3.0854,-3.0495,-3.0,0.0,0.0,0.0,0.0,0.0,0.0,0.0,0.0,0.0,0.0,0.0,0.0,0.0,0.0,0.0,0.0,0.0,0.0,0.0,0.0,0.0,0.0,0.0,0.0,0.0,0.0,0.0,0.0,0.0,0.0,0.0,0.0,0.0,0.0,-2.3929,-2.1915,-2.0997,-2.1248,-2.0266,-1.9737,0.0,-1.9096,-1.8827,-1.8827,-1.8827,-1.8827,-1.8827,-1.8827,-1.8827,-1.8827,-1.8827,-1.8661,-1.8438,-1.8716,-1.8653,-1.8446,-1.8724,-1.8827,-1.8827,0.0,0.0,0.0,0.0,0.0,0.0,0.0,0.0,0.0,0.0,0.0,0.0,0.0,0.0,0.0,0.0,0.0,0.0,0.0,0.0,0.0,0.0,0.0,0.0,0.0,0.0,0.0,0.0,0.0,0.0,0.0,0.0,0.0,-3.1586,0.0,-3.2633,-3.1784,-3.1509,-3.1731,-3.228,-3.2568,-3.2868,-3.3156,-3.347,-3.3051,-3.2241,-3.194,0.0,0.0,0.0,0.0,0.0,0.0,0.0,-3.1185,-3.0396,-3.0314,-3.0677,0.0,0.0,0.0,0.0,0.0,0.0,0.0,0.0,0.0,0.0,0.0,0.0,0.0,0.0,0.0,0.0,0.0,0.0,0.0,0.0,0.0,0.0,0.0,0.0,0.0,0.0,0.0,0.0,0.0,0.0,0.0,-2.3754,-2.3041,-2.2645,-2.1103,-2.0374,-2.0439,-1.9911,-1.9455,-1.9188,-1.8912,-1.8827,-1.8827,-1.8827,-1.8827,-1.8819,-1.8645,-1.8669,-1.8804,-1.8462,-1.8311,-1.8303,-1.7951,-1.7771,-1.7779,-1.7583,-1.7657,-1.78,0.0,0.0,0.0,0.0,0.0,0.0,0.0,0.0,0.0,0.0,0.0,0.0,0.0,0.0,0.0,0.0,0.0,0.0,0.0,0.0,0.0,0.0,0.0,0.0,0.0,0.0,0.0,0.0,0.0,0.0,0.0,0.0,0.0,-3.3443,0.0,-3.3208,-3.2515,-3.215,-3.2202,-3.2555,-3.2659,-3.2934,-3.3287,-3.3287,-3.2685,-3.1759,-3.1759,-3.1535,-3.1235,-3.1914,0.0,0.0,0.0,0.0,-3.1713,-3.0446,-3.0722,-3.1515,0.0,0.0,0.0,0.0,0.0,0.0,0.0,0.0,0.0,0.0,0.0,0.0,0.0,0.0,0.0,0.0,0.0,0.0,0.0,0.0,0.0,0.0,0.0,0.0,0.0,0.0,0.0,0.0,0.0,0.0,-2.3522,-2.2751,-2.1892,-2.0997,-2.0365,-1.9828,-1.9463,-1.9397,-1.9182,-1.8732,-1.8676,-1.8708,-1.8827,-1.8764,-1.8732,-1.8724,-1.843,-1.843,-1.8597,-1.8009,-1.7818,-1.7919,-1.706,-1.6884,-1.6875,-1.6358,-1.6394,-1.6676,0.0,0.0,0.0,0.0,0.0,0.0,0.0,0.0,0.0,0.0,0.0,0.0,0.0,0.0,0.0,0.0,0.0,0.0,-2.4317,0.0,0.0,-2.9714,-3.1009,-3.2136,0.0,0.0,0.0,0.0,0.0,0.0,0.0,0.0,0.0,-3.2829,0.0,0.0,-3.198,-3.2398,-3.2333,-3.2006,-3.2489,-3.245,-3.2071,-3.2071,-3.198,-3.1759,-3.1759,-3.1707,-3.1888,-3.2986,-3.3365,0.0,0.0,0.0,-3.397,-3.3726,-3.3493,0.0,0.0,0.0,0.0,0.0,0.0,0.0,0.0,0.0,0.0,0.0,0.0,0.0,0.0,0.0,0.0,0.0,0.0,0.0,0.0,0.0,0.0,0.0,0.0,0.0,0.0,0.0,0.0,0.0,0.0,0.0,-2.1743,-2.1414,-2.087,-1.9828,-1.9279,-1.9012,-1.892,-1.8616,-1.8457,-1.8367,-1.8057,-1.8232,-1.8819,-1.851,-1.8367,-1.8367,-1.8319,-1.8152,-1.7906,-1.7811,-1.7274,-1.6571,-1.671,-1.6389,-1.5838,-1.6091,-1.6394,-1.6581,0.0,0.0,0.0,0.0,0.0,0.0,0.0,0.0,0.0,0.0,0.0,0.0,0.0,0.0,0.0,-2.2135,-2.3624,-2.516,-2.6668,-2.816,-2.9462,-3.0343,-3.1317,-3.2047,-3.246,0.0,0.0,0.0,0.0,0.0,0.0,-3.3806,-3.4241,0.0,0.0,0.0,0.0,0.0,0.0,-3.2816,-3.2725,-3.2542,-3.228,-3.1967,-3.164,-3.1405,-3.1731,-3.164,-3.1588,-3.3091,-3.3365,-3.3234,-3.4071,0.0,0.0,0.0,-3.317,0.0,0.0,0.0,0.0,0.0,0.0,0.0,0.0,0.0,0.0,0.0,0.0,0.0,0.0,0.0,0.0,0.0,0.0,0.0,0.0,0.0,0.0,0.0,0.0,0.0,0.0,0.0,0.0,0.0,0.0,-2.2848,-2.0499,-2.0256,-1.9742,-1.8904,-1.8425,-1.824,-1.824,-1.8081,-1.8001,-1.8001,-1.7842,-1.793,-1.8232,-1.8073,-1.8112,-1.8287,-1.7726,-1.7378,-1.7208,-1.6395,-1.5933,-1.5705,-1.524,-1.4897,-1.471,-1.4576,-1.4728,-1.511,0.0,0.0,0.0,0.0,0.0,0.0,0.0,0.0,0.0,0.0,0.0,0.0,0.0,0.0,0.0,0.0,-2.4737,-2.6667,-2.873,-2.9456,-3.0043,-3.0595,-3.1158,-3.1597,-3.1724,0.0,0.0,0.0,0.0,0.0,-3.3014,-3.3749,-3.4627,0.0,-3.4933,0.0,0.0,0.0,0.0,0.0,-3.2712,-3.2476,-3.2424,-3.2006,-3.1575,-3.13,-3.2019,-3.1914,-3.1692,-3.343,-3.3731,-3.3404,-3.3705,-3.4175,0.0,0.0,0.0,0.0,0.0,0.0,0.0,0.0,0.0,0.0,0.0,0.0,0.0,0.0,0.0,0.0,0.0,0.0,0.0,0.0,0.0,0.0,0.0,0.0,0.0,0.0,0.0,0.0,0.0,0.0,0.0,0.0,0.0,-2.1345,-1.9512,-1.9268,-1.8947,-1.8319,-1.7954,-1.7771,-1.7771,-1.7683,-1.7644,-1.7644,-1.7548,-1.7596,-1.7763,-1.7683,-1.7787,-1.8025,-1.7049,-1.6628,-1.6421,-1.5177,-1.4782,-1.4792,-1.3985,-1.3735,-1.3818,-1.3297,-1.3417,-1.3908,0.0,0.0,0.0,0.0,0.0,0.0,0.0,0.0,0.0,0.0,0.0,0.0,-2.251,-2.3043,-2.3541,-2.37,-2.5959,-2.8016,-2.9664,-2.9792,-3.0043,-3.0595,-3.0645,0.0,-3.1373,0.0,0.0,0.0,0.0,0.0,-3.2179,-3.3002,-3.3749,-3.4502,-3.5012,-3.4332,-3.2816,0.0,0.0,0.0,0.0,0.0,0.0,0.0,0.0,0.0,0.0,-3.3117,-3.2868,-3.462,-3.5195,-3.5064,-3.4528,-3.4763,-3.4803,0.0,0.0,0.0,0.0,0.0,0.0,0.0,0.0,0.0,0.0,0.0,0.0,0.0,0.0,0.0,0.0,0.0,0.0,0.0,0.0,0.0,0.0,0.0,0.0,0.0,0.0,0.0,0.0,0.0,0.0,0.0,0.0,-2.0805,-1.896,-1.8843,-1.8684,-1.8311,-1.7954,-1.7771,-1.7771,-1.7461,-1.731,-1.7302,-1.6953,-1.7135,-1.7763,-1.7445,-1.7318,-1.7326,-1.6621,-1.6085,-1.5695,-1.4999,-1.4328,-1.3756,-1.3743,-1.349,-1.3121,-1.3121,-1.3302,-1.3568,0.0,0.0,0.0,0.0,0.0,0.0,0.0,0.0,0.0,0.0,0.0,0.0,0.0,-2.4456,-2.5336,-2.6462,-2.8053,-2.9245,-2.9779,-2.9792,-2.988,-3.008,-3.0746,-3.0884,-3.0369,0.0,0.0,0.0,0.0,-3.0611,-3.1509,-3.2339,-3.2956,-3.3365,-3.4698,-3.4737,-3.3809,-3.4018,0.0,0.0,0.0,0.0,0.0,0.0,0.0,0.0,0.0,0.0,0.0,0.0,-3.4724,-3.4685,-3.4463,-3.447,-3.3914,-3.0748,-2.8901,0.0,0.0,0.0,0.0,0.0,0.0,0.0,0.0,0.0,0.0,0.0,0.0,0.0,0.0,0.0,0.0,0.0,0.0,0.0,0.0,0.0,0.0,0.0,0.0,0.0,0.0,0.0,0.0,0.0,0.0,0.0,-1.8851,-1.8613,-1.8327,-1.7969,-1.7405,-1.7104,-1.7104,-1.6984,-1.6929,-1.6929,-1.6794,-1.6865,-1.7096,-1.6984,-1.6929,-1.6846,-1.6171,-1.5595,-1.4985,-1.3886,-1.33,-1.3045,-1.3045,-1.2942,-1.2942,-1.3293,-1.3635,-1.4002,0.0,0.0,0.0,0.0,0.0,0.0,0.0,0.0,0.0,0.0,0.0,0.0,0.0,0.0,-2.7059,-2.8814,-2.9799,-3.0256,-3.008,-3.0068,-2.9993,-2.9804,-3.0658,-3.0796,-3.008,0.0,0.0,0.0,0.0,0.0,0.0,-3.1667,-3.2071,-3.2189,-3.3662,-3.4118,0.0,0.0,0.0,-3.3662,0.0,0.0,-3.2236,0.0,0.0,0.0,0.0,0.0,0.0,0.0,0.0,0.0,-3.4092,-3.3294,-3.1852,-2.8763,-2.7288,0.0,0.0,0.0,0.0,0.0,0.0,0.0,0.0,0.0,0.0,0.0,0.0,0.0,0.0,0.0,0.0,0.0,0.0,0.0,0.0,0.0,0.0,0.0,0.0,0.0,0.0,0.0,0.0,0.0,0.0,0.0,-1.8843,-1.8383,-1.785,-1.7262,-1.6794,-1.65,-1.6381,-1.6373,-1.6436,-1.6555,-1.6436,-1.6508,-1.6648,-1.6188,-1.6032,-1.6057,-1.5144,-1.4727,-1.4566,-1.3294,-1.279,-1.2705,-1.2534,-1.2705,-1.313,-1.3561,-1.394,-1.4409,0.0,0.0,0.0,0.0,0.0,0.0,0.0,0.0,0.0,-2.3135,0.0,0.0,0.0,0.0,0.0,-3.0503,-3.1135,-3.121,-3.067,-3.0633,-3.0407,-2.9867,-3.0382,-3.067,-3.0633,0.0,0.0,0.0,0.0,0.0,0.0,0.0,-3.1138,-3.1065,-3.1941,-3.2434,-3.2698,0.0,-3.2911,-3.238,0.0,-3.1481,-3.2149,0.0,0.0,0.0,-3.4953,-3.526,0.0,-3.5273,0.0,0.0,0.0,0.0,-2.8609,-2.6648,0.0,0.0,0.0,0.0,0.0,0.0,0.0,0.0,0.0,0.0,0.0,0.0,0.0,0.0,0.0,0.0,0.0,0.0,0.0,0.0,0.0,0.0,0.0,0.0,0.0,0.0,0.0,0.0,0.0,0.0,0.0,-1.8827,-1.8827,-1.8152,-1.7286,-1.6238,-1.6206,-1.6031,-1.5682,-1.5674,-1.5848,-1.619,-1.5848,-1.6055,-1.6624,-1.5212,-1.4746,-1.4956,-1.3626,-1.3717,-1.465,-1.3457,-1.2869,-1.2699,-1.2254,-1.2772,-1.373,-1.3724,-1.4146,-1.4818,0.0,0.0,0.0,0.0,0.0,0.0,0.0,0.0,0.0,0.0,0.0,0.0,-2.6008,-2.9024,-3.1013,-3.1198,-3.2051,-3.2202,-3.1235,-3.1173,-3.111,-3.0947,-3.1876,-3.2014,-3.1198,0.0,0.0,0.0,0.0,0.0,0.0,0.0,0.0,0.0,-3.1382,-3.1602,-3.1641,-3.2195,0.0,0.0,-3.091,-3.1336,0.0,0.0,0.0,0.0,0.0,-3.4319,-3.4646,0.0,-3.4731,-3.4418,0.0,0.0,0.0,0.0,0.0,0.0,-2.4771,0.0,0.0,0.0,0.0,0.0,0.0,0.0,0.0,0.0,0.0,0.0,0.0,0.0,0.0,0.0,0.0,0.0,0.0,0.0,0.0,0.0,0.0,0.0,0.0,0.0,0.0,0.0,-1.9212,-1.8827,-1.8827,-1.8152,-1.7286,-1.6238,-1.6206,-1.6031,-1.5682,-1.5674,-1.5729,-1.5825,-1.5835,-1.5944,-1.6132,-1.5784,-1.5816,-1.5974,-1.5643,-1.5477,-1.5296,-1.3745,-1.3451,-1.3847,-1.3418,-1.3681,-1.4461,-1.4728,-1.5032,-1.5543,0.0,0.0,0.0,0.0,0.0,0.0,0.0,0.0,0.0,0.0,0.0,0.0,-2.8572,-3.1271,-3.2692,-3.2139,-3.2905,-3.3043,-3.2152,-3.2315,-3.2127,-3.1424,-3.2692,-3.278,-3.1424,0.0,0.0,0.0,0.0,0.0,0.0,0.0,0.0,0.0,0.0,0.0,0.0,0.0,0.0,0.0,-3.0941,0.0,0.0,-3.1933,-3.2542,0.0,0.0,0.0,-3.5206,-3.438,-3.3764,0.0,0.0,0.0,0.0,0.0,0.0,0.0,0.0,0.0,0.0,0.0,0.0,0.0,0.0,-2.6962,0.0,0.0,0.0,0.0,0.0,0.0,0.0,0.0,0.0,0.0,0.0,0.0,0.0,0.0,0.0,0.0,0.0,0.0,0.0,-1.9129,-1.8947,-1.87,-1.8398,-1.7993,-1.7223,-1.6023,-1.5983,-1.5745,-1.5253,-1.517,-1.5249,-1.5391,-1.5233,-1.5335,-1.5751,-1.5227,-1.5227,-1.5553,-1.524,-1.5018,-1.4914,-1.3989,-1.3987,-1.4434,-1.3858,-1.4211,-1.513,-1.5353,-1.5823,-1.6499,0.0,0.0,0.0,0.0,0.0,0.0,0.0,0.0,0.0,0.0,-2.6911,-2.863,-3.1858,-3.3308,-3.3822,-3.3382,-3.3796,-3.3872,-3.3382,-3.3696,-3.3232,-3.182,-3.3156,-3.3257,0.0,0.0,0.0,0.0,0.0,0.0,0.0,0.0,0.0,0.0,0.0,0.0,0.0,0.0,0.0,-3.0532,-3.0735,-3.1522,0.0,0.0,-3.3896,0.0,-3.474,-3.5311,-3.5865,-3.3967,-3.219,0.0,0.0,0.0,0.0,0.0,-2.4912,0.0,0.0,0.0,0.0,0.0,0.0,0.0,-2.661,-2.6361,-2.5916,0.0,0.0,0.0,0.0,0.0,0.0,0.0,0.0,0.0,0.0,0.0,0.0,0.0,0.0,0.0,0.0,-1.9066,-1.8827,-1.8827,-1.8796,-1.8478,-1.7803,-1.7731,-1.7111,-1.5785,-1.5697,-1.5288,-1.4632,-1.4449,-1.4509,-1.4813,-1.4321,-1.4614,-1.5435,-1.4094,-1.3884,-1.4497,-1.3763,-1.3635,-1.4093,-1.4406,-1.4624,-1.4733,-1.4123,-1.4724,-1.6027,-1.6072,-1.6719,-1.7544,-2.6055,0.0,0.0,0.0,0.0,0.0,0.0,0.0,0.0,0.0,0.0,-3.0985,-3.3883,-3.4437,-3.47,-3.5039,-3.5165,-3.5177,-3.5064,-3.4502,-3.3996,-3.3667,-3.4414,-3.4477,-3.3667,0.0,0.0,0.0,0.0,0.0,0.0,0.0,0.0,0.0,0.0,0.0,0.0,0.0,0.0,-2.7824,-2.7588,0.0,-3.2043,-3.0973,-3.197,-3.3964,-3.3964,-3.3579,-3.2908,-3.1584,-3.0159,-2.8746,0.0,0.0,0.0,-2.5654,0.0,0.0,0.0,0.0,0.0,0.0,0.0,0.0,-2.5161,-2.5223,-2.5388,0.0,0.0,0.0,0.0,0.0,0.0,0.0,0.0,0.0,0.0,0.0,0.0,0.0,0.0,0.0,0.0,-1.9201,-1.8827,-1.8827,-1.8565,-1.8216,-1.7795,-1.7517,-1.6909,-1.5913,-1.5615,-1.5187,-1.4626,-1.434,-1.4168,-1.4237,-1.423,-1.4501,-1.4866,-1.4487,-1.4583,-1.5087,-1.4835,-1.4851,-1.5164,-1.6092,-1.6105,-1.5702,-1.5815,-1.6768,-1.8169,-1.8512,-1.8763,-1.8871,-2.5977,0.0,0.0,0.0,0.0,0.0,0.0,0.0,0.0,0.0,0.0,0.0,-3.5386,-3.5793,-3.5956,-3.5956,-3.6194,-3.6119,-3.5751,-3.5805,-3.5402,-3.4461,-3.5137,-3.4971,-3.3842,-3.4652,0.0,0.0,0.0,0.0,0.0,0.0,0.0,0.0,0.0,0.0,0.0,0.0,-2.6257,-2.599,-2.7555,0.0,-3.0214,-3.0179,-3.0906,-3.1957,-3.1786,-3.1354,-3.0873,-3.0548,-2.9572,0.0,0.0,-2.677,-2.6154,0.0,-2.5388,-2.5161,0.0,0.0,0.0,-2.4892,0.0,0.0,0.0,-2.4892,-2.4892,0.0,0.0,0.0,0.0,0.0,0.0,0.0,0.0,0.0,0.0,0.0,0.0,0.0,0.0,0.0,0.0,-1.9336,-1.8743,-1.8651,-1.8328,-1.7974,-1.762,-1.7204,-1.6627,-1.5934,-1.5661,-1.5242,-1.4813,-1.4418,-1.4177,-1.4177,-1.4037,-1.4059,-1.4377,-1.43,-1.4554,-1.4993,-1.4888,-1.5294,-1.604,-1.6538,-1.6944,-1.7346,-1.7561,-1.8342,-1.9361,-1.965,-1.9925,-2.0187,-2.5635,0.0,0.0,0.0,0.0,0.0,0.0,0.0,0.0,0.0,0.0,0.0,0.0,0.0,0.0,0.0,0.0,-3.683,0.0,0.0,-3.6603,-3.4753,-3.5545,-3.5149,-3.3318,-3.4557,-3.4023,0.0,0.0,0.0,0.0,0.0,0.0,0.0,0.0,0.0,0.0,0.0,0.0,-2.4898,0.0,-2.8783,-2.8142,-2.9561,-3.0024,-2.9926,-2.9491,-2.924,-2.9114,-2.9587,0.0,-2.8075,-2.7055,-2.6837,0.0,0.0,0.0,0.0,0.0,0.0,0.0,0.0,0.0,-2.4954,0.0,0.0,0.0,0.0,0.0,0.0,0.0,0.0,0.0,0.0,0.0,0.0,0.0,0.0,0.0,0.0,0.0,0.0,0.0,-1.9273,-1.8651,-1.8481,-1.8162,-1.7714,-1.7358,-1.686,-1.64,-1.5867,-1.5614,-1.5367,-1.5,-1.4478,-1.4215,-1.4208,-1.3726,-1.3667,-1.3982,-1.4059,-1.4358,-1.4811,-1.4976,-1.5674,-1.6739,-1.6954,-1.7913,-1.9191,-1.9191,-1.9687,-2.0407,-2.0655,-2.1081,-2.1547,-2.5576,-2.542,0.0,0.0,0.0,0.0,0.0,0.0,0.0,0.0,0.0,0.0,0.0,0.0,0.0,0.0,0.0,0.0,-3.7676,0.0,0.0,0.0,0.0,0.0,-3.2898,-3.3708,-3.3148,0.0,0.0,0.0,0.0,0.0,0.0,0.0,-2.47,0.0,0.0,0.0,-2.5424,0.0,-2.6433,-2.6863,0.0,-2.8349,-2.8948,-2.881,-2.7964,-2.7635,-2.7557,0.0,-2.691,-2.6889,0.0,-2.6662,-2.6165,0.0,0.0,0.0,0.0,0.0,0.0,0.0,-2.5792,0.0,0.0,0.0,0.0,0.0,0.0,0.0,0.0,0.0,0.0,0.0,0.0,0.0,0.0,0.0,0.0,0.0,0.0,0.0,0.0,0.0,-1.8481,-1.8481,-1.7964,-1.752,-1.7175,-1.6774,-1.6331,-1.5779,-1.5486,-1.524,-1.4882,-1.4366,-1.4057,-1.4057,-1.3653,-1.3667,-1.4043,-1.4387,-1.479,-1.5354,-1.6328,-1.6909,-1.7352,-1.8927,-1.9954,-2.0469,-2.0469,-2.1006,-2.1816,-2.3051,-2.3243,-2.2843,-2.5273,-2.5195,0.0,0.0,0.0,0.0,0.0,0.0,0.0,0.0,0.0,0.0,0.0,0.0,0.0,0.0,0.0,-3.8315,0.0,0.0,0.0,0.0,0.0,0.0,0.0,-3.3138,-3.1979,0.0,-2.9329,0.0,0.0,0.0,0.0,0.0,-2.454,0.0,-2.4819,0.0,0.0,0.0,0.0,0.0,0.0,-2.6653,-2.6933,-2.6737,-2.6576,-2.6335,-2.6098,0.0,-2.6351,0.0,0.0,0.0,0.0,0.0,0.0,0.0,0.0,0.0,0.0,0.0,0.0,0.0,-2.5016,0.0,-2.4778,0.0,0.0,0.0,0.0,0.0,0.0,0.0,0.0,0.0,0.0,0.0,0.0,0.0,0.0,0.0,0.0,0.0,0.0,0.0,0.0,-1.7251,-1.6919,-1.6428,-1.6007,-1.5748,-1.5449,-1.53,-1.5226,-1.4765,-1.445,-1.426,-1.3931,-1.3963,-1.4329,-1.4529,-1.5225,-1.6383,-1.6819,-1.7734,-1.8934,-1.9522,-2.0619,-2.1754,-2.1938,-2.2433,-2.3102,-2.3722,-2.3893,-2.3907,-2.5254,0.0,0.0,0.0,0.0,0.0,0.0,0.0,0.0,0.0,0.0,0.0,-3.5246,-3.6025,0.0,0.0,-3.8528,-3.8666,0.0,0.0,-3.7273,0.0,0.0,0.0,0.0,0.0,-3.0879,0.0,0.0,0.0,0.0,0.0,0.0,0.0,0.0,-2.4612,-2.4726,0.0,0.0,-2.4747,-2.4954,-2.484,-2.4612,-2.5264,-2.5399,-2.5254,-2.544,-2.5306,-2.5109,-2.5554,-2.5927,0.0,-2.5947,0.0,0.0,0.0,0.0,0.0,-2.5844,0.0,0.0,0.0,0.0,0.0,0.0,0.0,0.0,0.0,0.0,0.0,0.0,0.0,0.0,0.0,0.0,0.0,0.0,0.0,0.0,0.0,0.0,0.0,0.0,0.0,0.0,0.0,-1.7405,-1.7085,-1.6662,-1.6249,-1.5933,-1.559,-1.5506,-1.5431,-1.5431,-1.5101,-1.4787,-1.4465,-1.4357,-1.4378,-1.4601,-1.51,-1.6014,-1.7324,-1.7731,-1.8772,-2.0287,-2.0266,-2.1225,-2.2718,-2.2898,-2.3464,-2.4053,-2.4053,-2.426,-2.4454,-2.5713,-2.5361,0.0,0.0,0.0,0.0,0.0,0.0,0.0,0.0,0.0,0.0,0.0,0.0,0.0,0.0,0.0,-3.6917,-3.7903,0.0,-3.6363,0.0,0.0,-3.3856,0.0,0.0,0.0,0.0,0.0,0.0,0.0,0.0,0.0,0.0,0.0,-2.4788,-2.5181,-2.4726,-2.4799,-2.5171,-2.4736,-2.4464,-2.454,0.0,-2.4861,-2.5171,-2.4736,0.0,0.0,-2.5099,-2.5264,0.0,0.0,0.0,0.0,0.0,0.0,0.0,0.0,0.0,0.0,-2.5357,0.0,0.0,0.0,0.0,-2.454,0.0,0.0,0.0,0.0,0.0,0.0,-2.4206,0.0,0.0,0.0,0.0,0.0,0.0,0.0,0.0,0.0,0.0,0.0,-1.7721,-1.7419,-1.704,-1.6404,-1.636,-1.6067,-1.5445,-1.5431,-1.5431,-1.5431,-1.5101,-1.4787,-1.4465,-1.4865,-1.487,-1.4673,-1.6298,-1.7432,-1.8128,-1.9513,-2.0472,-2.1071,-2.1525,-2.2325,-2.3163,-2.3184,-2.3732,-2.4519,-2.4519,-2.4529,-2.4454,0.0,0.0,0.0,0.0,0.0,0.0,0.0,-3.0189,0.0,0.0,0.0,0.0,0.0,-3.4891,-3.6023,0.0,0.0,-3.7875,-3.7953,-3.7201,0.0,0.0,0.0,-3.2969,0.0,0.0,0.0,0.0,0.0,0.0,0.0,0.0,0.0,0.0,0.0,-2.4547,0.0,0.0,0.0,0.0,0.0,-2.4282,-2.4292,0.0,0.0,-2.4757,-2.4602,-2.454,0.0,-2.4726,-2.4974,-2.5202,-2.5047,-2.5109,-2.5254,-2.5409,-2.5347,0.0,0.0,0.0,-2.5409,-2.5275,0.0,0.0,0.0,0.0,0.0,0.0,0.0,0.0,0.0,0.0,0.0,0.0,0.0,0.0,0.0,0.0,0.0,0.0,0.0,0.0,0.0,0.0,0.0,-1.7412,-1.7766,-1.7629,0.0,-1.7303,-1.7087,-1.5767,-1.5752,-1.5888,-1.6221,-1.6188,-1.6196,-1.6468,-1.6337,-1.6343,-1.6553,-1.7266,-1.8209,-1.935,-2.0265,-2.1018,-2.158,-2.1593,-2.2015,-2.276,-2.2909,-2.3485,-2.4136,-2.4436,-2.4464,-2.4282,-2.6758,0.0,0.0,0.0,0.0,0.0,0.0,0.0,0.0,0.0,-3.2167,0.0,-3.3487,0.0,-3.5801,0.0,-3.7188,-3.7261,-3.7316,-3.6312,0.0,-3.3946,-3.3155,0.0,0.0,0.0,0.0,0.0,0.0,-2.7044,0.0,0.0,0.0,0.0,0.0,0.0,0.0,0.0,-2.3937,0.0,0.0,-2.4206,0.0,0.0,-2.454,-2.454,0.0,-2.454,-2.454,-2.454,-2.4736,-2.4933,-2.4633,-2.4747,-2.4985,-2.4985,-2.4985,-2.5047,-2.5326,-2.5202,0.0,-2.4898,-2.4313,0.0,-2.4186,0.0,0.0,0.0,0.0,0.0,0.0,0.0,0.0,0.0,0.0,0.0,0.0,-1.8071,0.0,0.0,0.0,0.0,0.0,0.0,-1.7291,-1.777,-1.8216,-1.8128,0.0,0.0,-1.7656,-1.6096,-1.6301,-1.6546,-1.6881,-1.709,-1.7174,-1.7312,-1.729,-1.7347,-1.7495,-1.8057,-1.8955,-2.0192,-2.0706,-2.1319,-2.1818,-2.183,-2.2076,-2.2563,-2.3032,-2.3453,-2.3846,-2.4204,-2.4206,-2.3947,0.0,0.0,0.0,0.0,-2.8777,0.0,0.0,0.0,-3.1025,0.0,-3.2009,-3.2642,-3.3095,-3.285,-3.3838,-3.6587,-3.5424,0.0,-3.6152,-3.5235,0.0,0.0,-3.1734,-3.117,-2.868,0.0,0.0,0.0,0.0,0.0,0.0,0.0,0.0,0.0,-2.4129,0.0,-2.3754,-2.3754,-2.3754,-2.3754,-2.4024,-2.4206,-2.4196,-2.4454,-2.454,-2.454,-2.454,-2.454,-2.454,-2.454,-2.454,-2.454,-2.454,-2.454,-2.454,-2.454,-2.454,-2.454,-2.4454,-2.4454,-2.4454,-2.4196,0.0,0.0,0.0,0.0,-2.2668,0.0,0.0,0.0,0.0,0.0,0.0,0.0,0.0,0.0,0.0,0.0,0.0,0.0,0.0,0.0,0.0,-1.7296,-1.7747,-1.8696,-1.8848,0.0,0.0,0.0,-1.7869,-1.6573,-1.7009,-1.7331,-1.7307,-1.7859,-1.7716,-1.7087,-1.7803,-1.7908,-1.7631,-1.8782,-1.9756,-2.0636,-2.1007,-2.1393,-2.1838,-2.2283,-2.248,-2.2584,-2.3484,-2.37,-2.352,-2.4043,-2.3851,-2.3503,-2.5993,-2.7093,-2.8028,0.0,-2.8163,-2.8564,0.0,0.0,0.0,0.0,-3.2354,-3.2874,-3.3558,-3.3465,-3.3958,-3.5417,-3.5172,0.0,0.0,0.0,0.0,-3.0885,-3.1304,-3.0852,-2.9156,-2.9363,0.0,-2.8442,0.0,0.0,-2.6761,0.0,0.0,0.0,0.0,0.0,-2.359,-2.359,-2.3493,-2.3319,-2.3754,-2.3927,0.0,0.0,-2.454,-2.454,-2.454,-2.454,-2.454,-2.454,-2.454,-2.454,-2.454,-2.454,-2.454,-2.454,-2.454,-2.4454,-2.4292,-2.4292,-2.4013,-2.3115,-2.3202,-2.3387,0.0,0.0,0.0,0.0,0.0,0.0,0.0,0.0,0.0,0.0,0.0,0.0,0.0,0.0,0.0,-1.7326,0.0,0.0,-1.7304,-1.7523,-1.7971,-1.8748,-1.9638,0.0,0.0,0.0,0.0,-1.7877,-1.8308,-1.8836,-1.9224,-1.9084,-1.9191,-1.9678,-1.9516,-1.9389,-1.9293,-1.9979,-2.034,-2.0656,-2.1336,-2.1694,-2.1818,-2.1932,-2.219,-2.2553,-2.296,-2.3264,-2.3517,-2.3637,-2.359,-2.3503,-2.6531,0.0,0.0,-2.8182,0.0,0.0,-2.9775,0.0,0.0,-3.1712,-3.1959,0.0,-3.3003,-3.3038,-3.3391,-3.4477,-3.3995,0.0,-3.3073,0.0,0.0,-2.9802,-3.0007,-2.9608,-2.844,-2.8594,0.0,-2.7635,0.0,0.0,-2.6174,0.0,0.0,0.0,0.0,-2.3406,0.0,-2.3319,-2.3232,-2.3144,-2.358,0.0,0.0,-2.4282,-2.454,-2.454,-2.454,-2.454,-2.454,-2.454,-2.454,-2.454,-2.454,-2.454,-2.4413,-2.4132,-2.4214,-2.4241,-2.3876,-2.3604,-2.3212,-2.2394,-2.2306,-2.2306,-2.2129,-2.2129,-2.2403,0.0,0.0,0.0,0.0,0.0,0.0,0.0,0.0,0.0,0.0,0.0,0.0,0.0,-1.7172,0.0,-1.7855,-1.7811,-1.8394,-1.9918,0.0,0.0,0.0,0.0,0.0,-1.8896,-1.9565,-2.005,-2.0154,-2.0093,-2.0194,-2.0273,-2.0029,-1.9912,-2.0062,-2.0307,-2.0577,-2.0853,-2.14,-2.1768,-2.1973,-2.2169,-2.2282,-2.2385,-2.2514,-2.2898,-2.3503,-2.3416,-2.3319,-2.3319,0.0,0.0,0.0,0.0,0.0,0.0,0.0,-2.9893,0.0,-3.1228,0.0,-3.1381,-3.2028,-3.2041,-3.2354,-3.3256,0.0,-3.1526,-3.1655,-3.0446,-2.9323,-2.8438,-2.8408,-2.8045,-2.7271,-2.7602,0.0,0.0,0.0,0.0,0.0,0.0,0.0,0.0,0.0,0.0,0.0,-2.3135,-2.3135,0.0,-2.358,-2.3754,-2.3841,-2.4282,-2.4454,-2.4454,-2.4454,-2.4454,-2.454,-2.4454,-2.4454,-2.4454,-2.4454,-2.4454,-2.4286,-2.3727,-2.3805,-2.4029,-2.3208,-2.2842,-2.2403,-2.1854,-2.1311,-2.1033,-2.1542,-2.1621,-2.1878,-2.2717,-2.1989,-2.1193,0.0,0.0,0.0,0.0,0.0,0.0,0.0,0.0,0.0,0.0,0.0,0.0,0.0,-1.8467,-1.8962,0.0,0.0,0.0,0.0,0.0,0.0,-1.9712,-2.067,0.0,-2.0587,0.0,-2.0791,-2.0088,-2.0029,-2.0075,-2.0292,-2.0292,-2.0625,-2.1296,-2.144,-2.1781,-2.2308,-2.2605,-2.2574,-2.225,-2.2369,-2.2839,-2.3416,-2.3232,-2.3135,-2.3135,0.0,0.0,0.0,0.0,0.0,-2.9033,-2.9033,-2.9697,-3.0488,-3.1289,-3.0888,-3.0679,-3.1401,-3.0804,-3.0559,-3.1023,-3.0802,0.0,0.0,0.0,0.0,-2.7995,-2.8056,-2.7884,-2.7824,-2.707,-2.6647,0.0,0.0,0.0,0.0,0.0,0.0,0.0,0.0,0.0,-2.3135,-2.3135,0.0,-2.3144,-2.3406,-2.358,-2.359,-2.3841,-2.4024,-2.4196,-2.4013,-2.4196,-2.4454,-2.4292,-2.4282,-2.4196,-2.4024,-2.3927,-2.3917,-2.375,-2.378,-2.3647,-2.2484,-2.2707,-2.2862,-2.0962,-2.1596,-2.2416,-2.1466,-2.1209,-2.1386,-2.201,-2.0107,-1.8721,-1.9815,0.0,0.0,0.0,0.0,0.0,0.0,0.0,0.0,0.0,0.0,0.0,0.0,0.0,0.0,0.0,0.0,0.0,0.0,0.0,0.0,0.0,0.0,0.0,0.0,0.0,-2.0791,-2.0996,-2.0625,-2.0613,-2.0787,-2.0787,-2.1093,-2.1659,-2.1738,-2.199,-2.2412,-2.2493,-2.2611,-2.2745,-2.3107,-2.3191,-2.3144,-2.3135,-2.3135,-2.3135,0.0,0.0,0.0,0.0,0.0,0.0,0.0,-2.9268,0.0,-3.0354,-2.9917,-2.9731,-3.0396,-3.0257,-2.9958,-2.9826,-2.9677,-2.919,-2.8301,-2.8147,-2.7667,-2.6794,-2.6755,0.0,-2.6071,-2.5426,-2.5317,-2.5763,0.0,0.0,0.0,0.0,0.0,0.0,0.0,-2.3135,0.0,0.0,0.0,-2.3135,-2.3406,-2.3503,-2.3503,-2.3754,-2.3841,-2.4024,-2.3841,-2.3927,-2.411,-2.4024,-2.4024,-2.3937,-2.3841,-2.3841,-2.3664,-2.3128,-2.3318,-2.3345,-2.1967,-2.1588,-2.1415,-2.0499,-2.0716,-2.1071,-2.1099,-2.1304,-2.1673,-2.2123,-2.0555,-1.9007,-1.8663,-1.7714,0.0,0.0,0.0,0.0,0.0,0.0,0.0,0.0,0.0,0.0,0.0,0.0,0.0,0.0,0.0,0.0,0.0,0.0,0.0,0.0,0.0,0.0,0.0,0.0,0.0,-2.0889,-2.0674,-2.0731,-2.0916,-2.0987,-2.1273,-2.163,-2.1859,-2.2169,-2.2349,-2.2109,-2.2244,-2.268,-2.267,-2.285,-2.3135,-2.3135,-2.3135,-2.3135,0.0,-2.9375,0.0,0.0,-2.9075,0.0,-2.8375,-2.809,-2.8295,-2.9262,-2.8947,-2.8937,-2.9559,-2.9431,-2.9233,-2.8966,-2.8605,-2.8063,-2.708,-2.6829,-2.6357,-2.5498,-2.5459,-2.5127,-2.4434,-2.4004,-2.4121,0.0,0.0,0.0,0.0,0.0,0.0,0.0,0.0,0.0,0.0,0.0,-2.3135,-2.3135,-2.3319,-2.3406,-2.3406,-2.358,-2.3667,-2.3667,-2.3484,-2.3396,-2.3396,-2.3387,-2.3484,-2.3754,-2.3667,-2.3667,-2.3537,-2.2681,-2.2703,-2.2814,-2.1291,-2.0359,-1.9773,-1.9821,-1.963,-1.9692,-2.0625,-2.1296,-2.1734,-2.18,-2.0876,-1.9516,-1.7895,-1.7259,0.0,0.0,0.0,0.0,0.0,0.0,0.0,0.0,0.0,0.0,0.0,0.0,0.0,0.0,0.0,0.0,0.0,0.0,0.0,0.0,0.0,-2.1885,-2.1885,0.0,-2.0967,0.0,-2.0605,-2.0731,-2.0916,-2.1026,-2.1222,-2.1481,-2.1836,-2.2034,-2.2103,-2.1917,-2.206,-2.249,-2.2246,-2.2559,-2.3135,-2.3135,-2.296,-2.2775,0.0,0.0,0.0,0.0,0.0,0.0,0.0,-2.5371,-2.5855,-2.9124,-2.8506,-2.8076,-2.8947,-2.792,-2.7383,-2.78,-2.7467,-2.6768,-2.5908,-2.5859,-2.5459,-2.458,-2.4541,-2.4502,-2.4414,-2.4004,-2.3828,0.0,0.0,0.0,0.0,0.0,0.0,0.0,0.0,0.0,0.0,-2.3135,-2.3135,-2.3135,-2.3144,-2.3144,-2.3144,-2.3144,-2.3319,-2.3406,-2.2325,-2.2041,-2.2129,-2.1961,-2.2599,-2.3503,-2.3222,-2.3135,-2.3125,-2.3047,-2.2444,-2.1594,-2.0316,-1.9896,-1.9502,-1.8341,-1.929,-2.0411,-2.0081,-2.0652,-2.0951,-1.986,-1.9146,-1.8363,-1.7439,-1.7217,-1.6993,0.0,0.0,0.0,0.0,0.0,0.0,0.0,0.0,0.0,0.0,0.0,0.0,0.0,0.0,0.0,0.0,0.0,0.0,-2.1318,0.0,-2.1885,-2.1885,-2.1055,0.0,-2.1172,-2.0762,-2.0731,-2.0906,-2.0693,-2.0928,-2.1471,-2.135,-2.1523,-2.1914,-2.2246,-2.2441,-2.2549,-2.2891,-2.3066,-2.3135,-2.3135,-2.2599,-2.1872,0.0,0.0,0.0,0.0,0.0,0.0,0.0,-2.4721,-2.5198,-2.6539,-2.6475,-2.6655,-2.7629,-2.7324,-2.6875,-2.6543,-2.6348,-2.5879,-2.5,-2.4941,-2.4678,-2.4072,-2.3467,-2.307,-2.2825,-2.2655,-2.2423,0.0,0.0,0.0,0.0,0.0,0.0,0.0,0.0,-2.3135,-2.3135,-2.3135,-2.3135,-2.3135,-2.3135,-2.3135,-2.3135,-2.3135,-2.2784,-2.2325,-2.1872,-2.1329,-2.0917,-2.0607,-2.1405,-2.2511,-2.296,-2.2687,-2.2142,-2.173,-2.1145,-2.0254,-1.9065,-1.8583,-1.8319,-1.7954,-1.8112,-1.8377,-1.895,-1.92,-1.9308,-1.9641,-1.9264,-1.8716,-1.782,-1.7414,-1.6869,0.0,0.0,0.0,0.0,0.0,0.0,0.0,0.0,0.0,0.0,0.0,0.0,0.0,0.0,0.0,0.0,0.0,0.0,-2.2002,0.0,-2.1738,-2.2256,-2.1406,-2.1191,-2.1621,-2.0908,-2.0791,-2.1066,-2.132,-2.1673,-2.2046,-2.1455,-2.1338,-2.1504,-2.168,-2.1904,-2.2178,-2.2598,-2.2553,-2.2236,-2.2236,-2.1606,-2.0782,-2.3999,0.0,-2.5017,0.0,-2.4023,-2.375,-2.298,-2.33,-2.3668,-2.3714,-2.4207,-2.5163,-2.6686,-2.6592,-2.625,-2.5781,-2.5615,-2.5166,-2.4287,-2.4228,-2.4043,-2.3613,-2.2938,0.0,-2.1704,-2.1695,-2.1374,-2.0726,-2.1733,0.0,0.0,0.0,0.0,0.0,-2.3135,-2.3135,-2.3135,-2.3135,-2.3135,-2.3135,-2.3135,-2.3135,-2.3135,-2.3135,-2.2511,-2.1695,-2.1329,-2.0532,-1.9577,-1.9415,-1.9875,-2.0731,-2.1836,-2.1697,-2.1049,-2.049,-1.9913,-1.9104,-1.8112,-1.7373,-1.6983,-1.7204,-1.6944,-1.6926,-1.7829,-1.8023,-1.8236,-1.9156,-1.9084,-1.8647,-1.7755,-1.7483,-1.7076,-1.5944,0.0,0.0,0.0,0.0,0.0,0.0,-2.0527,-2.0478,-1.9961,0.0,0.0,0.0,0.0,0.0,0.0,0.0,0.0,0.0,0.0,0.0,0.0,-2.167,-2.1387,-2.1689,-2.0928,-2.0732,-2.1045,-2.1357,-2.166,-2.1904,-2.1299,-2.1035,-2.1055,-2.1318,-2.1438,-2.1508,-2.2045,-2.1886,-2.1239,-2.1239,-2.0602,-1.9786,-2.2872,-2.2978,-2.2978,-2.2872,-2.2009,-2.1148,-2.0809,-2.0493,-2.0578,-2.1122,-2.211,-2.3774,-2.6151,-2.5615,-2.5264,-2.5703,-2.5332,-2.4717,-2.3857,-2.3799,-2.3603,0.0,0.0,-2.2687,-2.1695,-2.1695,-2.1239,-2.024,0.0,0.0,-2.1704,0.0,-2.3135,-2.3135,-2.3135,-2.3135,-2.3135,-2.3135,-2.3135,-2.3135,-2.3135,-2.3135,-2.3135,-2.3135,-2.2511,-2.1606,-2.0602,-1.9364,-1.8353,-1.8353,-1.8121,-1.8064,-1.9389,-1.9868,-1.986,-1.9851,-1.9057,-1.8193,-1.7576,-1.6653,-1.584,-1.5511,-1.6064,-1.6698,-1.6706,-1.735,-1.7997,-1.8006,-1.8006,-1.7755,-1.6862,-1.7432,-1.7674,-1.6862,0.0,0.0,0.0,0.0,0.0,0.0,-2.1963,-2.1807,-2.0078,0.0,0.0,0.0,0.0,0.0,0.0,0.0,0.0,-2.251,-2.25,0.0,-2.251,-2.167,-2.123,-2.123,-2.0781,-2.0566,-2.0576,-2.0576,-2.0586,-2.0586,-2.0576,-2.0576,-2.0635,-2.1523,-2.1275,-2.0492,-2.1374,-2.1141,-2.0232,-2.0232,-1.9604,-1.8788,-2.0598,-2.0803,-2.1085,-2.1977,-2.1711,-2.1415,-2.1401,-2.1709,-2.1978,-2.1987,-2.274,-2.349,-2.4282,-2.4526,-2.456,0.0,-2.4277,-2.3955,0.0,-2.335,-2.3291,-2.3144,-2.2511,-2.1971,-2.1695,-2.1695,-2.0881,-1.9247,0.0,0.0,0.0,-2.2687,-2.3135,-2.3135,-2.3135,-2.3135,-2.3135,-2.3135,-2.3135,-2.3135,-2.3135,-2.3135,-2.3047,-2.2422,-2.1432,-2.0342,-1.9513,-1.8324,-1.7039,-1.7039,-1.674,-1.6586,-1.7031,-1.7723,-1.8374,-1.8222,-1.7478,-1.6545,-1.6186,-1.5821,-1.5723,-1.617,-1.646,-1.6862,-1.7423,-1.8039,-1.8485,-1.8841,-1.8464,-1.7938,-1.7324,-1.6764,-1.622,-1.5602,-1.6509,0.0,0.0,0.0,0.0,0.0,-1.9507,-1.944,0.0,-1.9705,0.0,0.0,0.0,0.0,0.0,0.0,0.0,0.0,-2.2494,0.0,-2.251,-2.1963,-2.168,-2.167,-2.0918,-2.0723,-2.1016,-2.0703,-2.0732,-2.1006,-2.0703,-2.0409,-2.0083,-2.0624,-2.0489,-1.9905,-2.0491,-2.0051,-1.9239,-1.9063,-1.8342,-1.752,-1.9479,-1.9781,-2.0048,-2.0892,-2.0956,-2.0805,-2.0907,-2.1607,-2.2013,-2.1955,-2.2611,-2.3188,-2.3188,-2.3599,0.0,-2.3709,-2.3699,-2.3603,-2.3164,-2.3135,-2.3135,-2.3135,-2.2511,-2.2059,-2.1695,0.0,0.0,-1.933,-2.0872,-2.1516,-2.115,-2.2501,-2.3135,-2.3135,-2.3135,-2.3135,-2.3135,-2.3135,-2.3135,-2.3125,-2.2969,-2.29,-2.2794,-2.1658,-2.056,-1.9417,-1.8669,-1.7509,-1.6199,-1.6199,-1.5994,-1.5731,-1.5731,-1.6274,-1.6924,-1.6838,-1.6413,-1.584,-1.5518,-1.5665,-1.5982,-1.6535,-1.6944,-1.7309,-1.7578,-1.7525,-1.7544,-1.7639,-1.7363,-1.6919,-1.6426,-1.5983,-1.5725,-1.5463,-1.6461,-1.7358,-1.7778,0.0,0.0,0.0,0.0,0.0,0.0,-1.8638,0.0,0.0,0.0,0.0,0.0,0.0,0.0,-2.296,-2.2544,0.0,-2.2744,-2.2094,-2.1802,-2.1875,-2.0986,-2.0713,-2.0977,-2.0693,-2.0713,-2.0967,-2.0684,-2.0495,-2.0351,-2.0421,-2.0039,-1.963,-1.9644,-1.9063,-1.8064,-1.7978,-1.7426,-1.6784,-1.9602,-1.97,0.0,0.0,-1.9828,0.0,-1.9933,-2.0693,-2.1212,-2.1212,-2.215,-2.2803,-2.2794,-2.2969,-2.3124,-2.3342,0.0,0.0,0.0,-2.3135,-2.3135,-2.3135,-2.3135,-2.2687,-2.1784,-2.1784,-2.1329,-2.0322,-2.1239,-2.1239,-2.0322,-2.2227,-2.3135,-2.3135,-2.3135,-2.3135,-2.3135,-2.3028,-2.3008,-2.3057,-2.2551,-2.2471,-2.2337,-2.0987,-1.9876,-1.8905,-1.807,-1.6914,-1.5884,-1.5906,-1.5701,-1.5347,-1.5347,-1.534,-1.5405,-1.5711,-1.5877,-1.5818,-1.5511,-1.6064,-1.669,-1.683,-1.7454,-1.7906,-1.7318,-1.6434,-1.5551,-1.5188,-1.5111,-1.4962,-1.4429,-1.5108,-1.5847,-1.6211,-1.6429,-1.7024,-1.8157,0.0,0.0,0.0,0.0,0.0,0.0,-1.8236,-1.84,0.0,0.0,0.0,0.0,0.0,-2.2344,-2.2706,-2.2432,-2.2501,-2.3008,-2.1938,-2.1515,-2.1787,-2.0957,-2.0566,-2.0566,-2.0566,-2.0566,-2.0566,-2.0596,-2.078,-2.1057,-2.0541,-1.9998,-1.9407,-1.8843,-1.7978,-1.6979,-1.6979,-1.6784,-1.6581,0.0,0.0,-1.99,-2.183,-2.1492,-2.1196,-2.1977,-2.2213,-2.2327,-2.2327,-2.2249,-2.2362,-2.2441,-2.2362,-2.2489,-2.2938,-2.3124,-2.3252,-2.3144,-2.3135,-2.3135,-2.3135,-2.3135,-2.296,-2.2775,-2.2784,-2.2325,-2.1329,-2.1596,-2.1606,-2.1329,-2.2511,-2.3135,-2.3135,-2.3135,-2.3135,-2.3028,-2.263,-2.2494,-2.2541,-2.1842,-2.1678,-2.1855,-1.9938,-1.8939,-1.8372,-1.7131,-1.6088,-1.5324,-1.5569,-1.5439,-1.5173,-1.4915,-1.4908,-1.4922,-1.5175,-1.5288,-1.5351,-1.5839,-1.6229,-1.6724,-1.7708,-1.8366,-1.8583,-1.7863,-1.7156,-1.6544,-1.6119,-1.536,-1.4699,-1.4869,-1.4538,-1.4417,-1.4741,-1.5425,-1.5864,-1.5833,-1.5937,0.0,0.0,-1.6301,-1.6492,-1.6702,-1.6621,-1.6536,0.0,0.0,0.0,0.0,-1.9612,-2.097,-2.1418,-2.1141,-2.1371,-2.2064,-2.0911,-2.0503,-2.0879,-2.0517,-2.0342,-2.0342,-2.0177,-2.0098,-2.0117,-2.0442,-2.0398,-2.0039,-1.9479,-1.8978,-1.8333,-1.7483,-1.6958,-1.6683,-1.6501,-1.6319,-1.6312,-2.095,-2.0758,-2.0819,-2.2079,-2.1829,-2.1635,-2.23,-2.2299,-2.2333,-2.2423,-2.2236,-2.2185,-2.253,-2.2451,-2.2539,-2.2803,-2.2882,-2.2969,-2.3047,-2.3135,-2.3135,-2.3135,-2.2969,-2.2784,-2.2306,-2.2687,-2.2511,-2.1695,-2.2148,-2.2059,-2.1516,-2.2511,-2.2882,-2.2784,-2.2592,-2.2592,-2.2659,-2.1968,-2.187,-2.1906,-2.081,-2.0476,-2.0458,-1.8339,-1.7387,-1.7159,-1.653,-1.5701,-1.502,-1.5613,-1.5387,-1.4908,-1.4741,-1.4977,-1.5311,-1.5409,-1.5492,-1.5703,-1.6273,-1.6871,-1.7497,-1.8352,-1.848,-1.8202,-1.7485,-1.6465,-1.5577,-1.5149,-1.4321,-1.382,-1.4144,-1.4087,-1.3971,-1.4275,-1.481,-1.5183,-1.5174,-1.5041,0.0,-1.5117,-1.5217,-1.5298,-1.529,-1.5435,-1.5584,-1.5654,0.0,0.0,-1.6436,-1.8883,-2.043,-2.0773,-2.097,-2.1335,-2.1835,-2.0773,-2.0314,-2.0255,-2.0186,-2.0108,-2.0098,-1.9942,-1.9863,-1.997,-2.0387,-2.0292,-1.9657,-1.9075,-1.856,-1.7971,-1.6951,-1.6494,-1.6407,-1.6218,-1.6123,-1.6028,-2.1553,-2.1741,-2.1741,-2.1741,-2.1741,-2.1741,-2.1741,-2.1741,-2.1741,-2.2008,-2.2008,-2.2185,-2.2627,-2.2627,-2.2618,-2.2706,-2.2715,-2.2794,-2.296,-2.296,-2.296,-2.2775,-2.2608,-2.205,-2.1025,-2.205,-2.2157,-2.1329,-2.2422,-2.2413,-2.1239,-2.2157,-2.2492,-2.2328,-2.1804,-2.1788,-2.1968,-2.1183,-2.1078,-2.1205,-1.9706,-1.9217,-1.919,-1.713,-1.6363,-1.6363,-1.6296,-1.5718,-1.5144,-1.5966,-1.5726,-1.5061,-1.4977,-1.556,-1.6139,-1.6057,-1.6214,-1.648,-1.6908,-1.7596,-1.8419,-1.8637,-1.8036,-1.7164,-1.6383,-1.5062,-1.3881,-1.3375,-1.3056,-1.2839,-1.3153,-1.3601,-1.4063,-1.4328,-1.4517,-1.4726,-1.519,0.0,-1.4149,-1.4374,-1.4627,-1.4505,-1.3707,-1.4587,-1.5057,-1.465,-1.5585,-1.5977,0.0,-1.8208,-1.9884,-2.0056,-2.0953,-2.1502,-2.1474,-2.0882,-2.0358,-1.9863,-1.9863,-1.9863,-1.9863,-1.985,-1.9841,-1.9813,-2.0276,-2.0154,-1.958,-1.8877,-1.8328,-1.7762,-1.6857,-1.6305,-1.613,-1.613,-1.6028,-1.5832,-2.1553,-2.1741,-2.1741,-2.1741,-2.1741,-2.1741,-2.1741,-2.1741,-2.1731,-2.1741,-2.1741,-2.1919,-2.2185,-2.2008,-2.1998,-2.2441,-2.2274,-2.2264,-2.253,-2.253,-2.2157,-2.132,-2.132,-2.0773,-1.9761,-2.0773,-2.0773,-1.9861,-2.1606,-2.1971,-2.1042,-2.123,-2.1511,-2.1834,-2.0953,-2.0906,-2.1258,-1.9915,-1.9916,-2.0623,-1.8896,-1.8816,-1.9701,-1.8434,-1.7917,-1.79,-1.735,-1.6952,-1.6706,-1.6788,-1.6788,-1.6624,-1.6453,-1.6453,-1.678,-1.7432,-1.7674,-1.7738,-1.7768,-1.808,-1.8239,-1.7524,-1.675,-1.5845,-1.448,-1.39,-1.3375,-1.2673,-1.2689,-1.2839,-1.3153,-1.3447,-1.3814,-1.4362,-1.4327,-1.4237,-1.4266,0.0,-1.3985,-1.3764,-1.3993,-1.4183,-1.4021,-1.4223,-1.448,-1.4856,-1.5109,-1.5372,-1.5732,-1.6834,-1.7432,-1.7432,-1.9447,-2.0279,-1.9745,-2.0136,-2.0117,-1.9863,-1.9715,-1.9645,-1.9645,-1.9839,-1.9721,-1.9445,-1.9689,-1.9557,-1.9118,-1.8001,-1.7461,-1.7326,-1.6298,-1.5927,-1.5832,-1.5832,-1.5832,-1.5832,-2.1642,-2.1741,-2.1741,-2.1741,-2.1741,-2.1741,-2.1741,-2.1741,-2.1741,-2.1741,-2.1741,-2.183,-2.2097,-2.2008,-2.2008,-2.2185,-2.2185,-2.2097,-2.1998,-2.2264,-2.2255,-2.1784,-2.1141,-2.0593,-2.0133,-2.0042,-2.0133,-2.0314,-2.1024,-2.0828,-1.9745,-1.963,-1.9634,-1.9644,-1.899,-1.8888,-1.9213,-1.8672,-1.8507,-1.8554,-1.7661,-1.735,-1.7423,-1.6944,-1.678,-1.6854,-1.7513,-1.735,-1.6944,-1.735,-1.7188,-1.678,-1.6698,-1.7025,-1.7513,-1.7917,-1.804,-1.8113,-1.8181,-1.798,-1.7546,-1.6706,-1.5953,-1.5117,-1.389,-1.3244,-1.2788,-1.2587,-1.2786,-1.3093,-1.3387,-1.3681,-1.3968,-1.4242,-1.4175,0.0,0.0,-1.4088,-1.4035,-1.3901,-1.4001,-1.4088,-1.4088,-1.4088,-1.4269,-1.4696,-1.4723,-1.5082,-1.605,-1.6907,-1.7351,-1.7351,-1.8655,-1.9548,-2.0005,-1.9807,-1.9654,-1.9539,-1.9469,-1.9469,-1.9478,-1.9503,-1.9273,-1.883,-1.917,-1.8808,-1.7799,-1.7405,-1.6951,-1.6487,-1.6015,-1.5832,-1.5832,-1.5832,-1.5832,-1.5832,-2.1713,-2.1741,-2.1741,-2.1741,-2.1741,-2.1741,-2.1741,-2.1741,-2.1741,-2.1741,-2.1741,-2.1741,-2.2008,-2.2008,-2.2008,-2.2008,-2.2008,-2.1919,-2.1731,-2.1998,-2.2167,-2.1891,-2.0602,-1.9736,-1.9373,-1.8915,-1.9007,-1.9726,-1.9892,-1.9394,-1.8247,-1.7986,-1.7786,-1.7698,-1.7164,-1.7083,-1.7414,-1.7384,-1.7261,-1.6919,-1.6527,-1.6206,-1.5966,-1.5966,-1.6124,-1.6453,-1.7836,-1.7836,-1.7432,-1.8078,-1.7836,-1.7261,-1.7261,-1.7755,-1.831,-1.8223,-1.7973,-1.7741,-1.788,-1.7495,-1.679,-1.57,-1.4966,-1.4322,-1.3462,-1.2739,-1.2385,-1.2761,-1.2933,-1.3213,-1.3574,-1.3828,-1.4028,-1.4168,0.0,0.0,0.0,-1.4291,-1.4334,-1.4088,-1.425,-1.4334,-1.4088,-1.4088,-1.4208,-1.4496,-1.4522,-1.4906,-1.5903,-1.6615,-1.7085,-1.7337,-1.8128,-1.9059,-2.0039,-1.9679,-1.9402,-1.9301,-1.9402,-1.9393,-1.9301,-1.9154,-1.8815,-1.8286,-1.8512,-1.7801,-1.6657,-1.6879,-1.6487,-1.5832,-1.5832,-1.5832,-1.5832,-1.5832,-1.5832,-1.5832,-2.1658,-2.1741,-2.1741,-2.1741,-2.1741,-2.1741,-2.1741,-2.1741,-2.1741,-2.1741,-2.1741,-2.1741,-2.1741,-2.1741,-2.1741,-2.1741,-2.1741,-2.1741,-2.1741,-2.1731,-2.1365,-2.0529,-1.8603,-1.7001,-1.5793,-1.6893,-1.6901,-1.5787,-1.7552,-1.7987,-1.6995,-1.6662,-1.6866,-1.7323,-1.6382,-1.6201,-1.673,-1.5891,-1.6049,-1.6617,-1.5801,-1.6453,-1.7836,-1.7836,-1.8327,-1.9054,-1.9143,-1.9134,-1.9134,-1.9213,-1.9134,-1.9134,-1.9134,-1.9143,-1.9149,-1.8784,-1.7641,-1.6499,-1.6572,-1.6529,-1.6037,-1.4183,-1.3608,-1.339,-1.2592,-1.2372,-1.2385,-1.2761,-1.2842,-1.2959,-1.3534,-1.3579,-1.3854,-1.4402,0.0,0.0,-1.4449,-1.4916,-1.4985,-1.4173,-1.4824,-1.4985,-1.4166,-1.4088,-1.4208,-1.4496,-1.4522,-1.4649,-1.5033,-1.4872,-1.5137,-1.607,-1.7744,-1.868,-1.8714,-1.9488,-1.9687,-1.9301,-1.9696,-1.9677,-1.9311,-1.8874,-1.8439,-1.801,-1.735,-1.681,-1.6351,-1.6051,-1.5825,-1.5832,-1.5832,-1.5832,-1.5832,-1.5832,-1.5832,-1.5832,-2.1704,-2.1741,-2.1741,-2.1741,-2.1741,-2.1741,-2.1741,-2.1741,-2.1741,-2.1741,-2.1741,-2.1741,-2.1741,-2.1741,-2.1741,-2.1741,-2.1741,-2.1741,-2.1741,-2.1741,-2.1275,-2.0339,-1.8763,-1.7781,-1.7497,-1.7239,-1.6769,-1.6288,-1.6885,-1.6617,-1.5729,-1.5234,-1.5455,-1.636,-1.5826,-1.5671,-1.5884,-1.6131,-1.5801,-1.5151,-1.5884,-1.6288,-1.6535,-1.7594,-1.8247,-1.8567,-1.9134,-1.9301,-1.9301,-1.9301,-1.9301,-1.9301,-1.9301,-1.9301,-1.9094,-1.7988,-1.7203,-1.647,-1.5181,-1.504,-1.4985,-1.3775,-1.3535,-1.3317,-1.2445,-1.2445,-1.2665,-1.2973,-1.3173,-1.3427,-1.3841,-1.3915,-1.3988,-1.4215,0.0,-1.4291,-1.4979,-1.5223,-1.5477,-1.5726,-1.5966,-1.5884,-1.4985,-1.4908,-1.4706,-1.4242,-1.4255,-1.4552,-1.5169,-1.5142,-1.524,-1.5654,-1.624,-1.7008,-1.7803,-1.7838,-1.7817,-1.7674,-1.7817,-1.7817,-1.7674,-1.7499,-1.7231,-1.6931,-1.6416,-1.6149,-1.5954,-1.5631,-1.5665,-1.5832,-1.5832,-1.5832,-1.5832,-1.5832,-1.5832,-1.5832,-2.1713,-2.1741,-2.1741,-2.1741,-2.1741,-2.1741,-2.1741,-2.1741,-2.1741,-2.1741,-2.1741,-2.1741,-2.1741,-2.1741,-2.1741,-2.1741,-2.1741,-2.1741,-2.1741,-2.1741,-2.1275,-2.0339,-1.9101,-1.8403,-1.8255,-1.7029,-1.6421,-1.6321,-1.6006,-1.5504,-1.481,-1.4315,-1.4691,-1.5709,-1.5489,-1.5394,-1.5477,-1.6049,-1.5477,-1.425,-1.5718,-1.6131,-1.5966,-1.7432,-1.8158,-1.8487,-1.9054,-1.9301,-1.9301,-1.9301,-1.9301,-1.9301,-1.9301,-1.9219,-1.8852,-1.7534,-1.6835,-1.6228,-1.4524,-1.4,-1.3902,-1.3395,-1.3248,-1.3174,-1.2587,-1.2679,-1.2979,-1.328,-1.3507,-1.3734,-1.4035,-1.4088,-1.4173,-1.4496,-1.4496,-1.4824,-1.5726,-1.6041,-1.637,-1.6698,-1.6944,-1.678,-1.5884,-1.556,-1.5151,-1.458,-1.425,-1.4334,-1.4985,-1.4985,-1.4985,-1.4985,-1.4985,-1.5413,-1.63,-1.6672,-1.6802,-1.6698,-1.6802,-1.6802,-1.6698,-1.6453,-1.6217,-1.5966,-1.5691,-1.5521,-1.5558,-1.5538,-1.5651,-1.5832,-1.5832,-1.5832,-1.5832,-1.5832,-1.5832,-1.5832,-2.1649,-2.1741,-2.1741,-2.1741,-2.1741,-2.1741,-2.1741,-2.1741,-2.1741,-2.1741,-2.1741,-2.1741,-2.1741,-2.1741,-2.1741,-2.1741,-2.1741,-2.1741,-2.1741,-2.1731,-2.1275,-2.0339,-1.933,-1.8164,-1.6919,-1.5936,-1.5251,-1.4963,-1.4663,-1.4522,-1.4509,-1.4222,-1.458,-1.5401,-1.5394,-1.5394,-1.5394,-1.5394,-1.4908,-1.4166,-1.5068,-1.5966,-1.678,-1.7674,-1.8567,-1.9301,-1.9301,-1.9301,-1.9301,-1.9301,-1.9301,-1.9301,-1.9301,-1.9036,-1.8561,-1.7605,-1.6566,-1.552,-1.4569,-1.3572,-1.2822,-1.2829,-1.2829,-1.2822,-1.2829,-1.2986,-1.33,-1.3587,-1.3566,-1.3734,-1.4035,-1.4088,-1.4412,-1.5228,-1.5394,-1.5726,-1.6617,-1.7432,-1.7683,-1.6862,-1.7513,-1.7674,-1.678,-1.5884,-1.5394,-1.5394,-1.458,-1.4088,-1.4088,-1.4088,-1.4088,-1.4088,-1.4088,-1.4088,-1.4088,-1.6201,-1.7032,-1.6698,-1.704,-1.7107,-1.6617,-1.5801,-1.5394,-1.5354,-1.5136,-1.4963,-1.5017,-1.5585,-1.5825,-1.5832,-1.5832,-1.5832,-1.5832,-1.5832,-1.5832,-1.5832,-2.1713,-2.1741,-2.1741,-2.1741,-2.1741,-2.1741,-2.1741,-2.1741,-2.1741,-2.1741,-2.1741,-2.1741,-2.1741,-2.1741,-2.1741,-2.1741,-2.1741,-2.1741,-2.1741,-2.1087,-2.0619,-2.0339,-1.9093,-1.8395,-1.8263,-1.6196,-1.505,-1.4963,-1.4663,-1.4522,-1.4509,-1.4222,-1.4691,-1.5631,-1.5489,-1.5394,-1.5394,-1.5394,-1.4908,-1.425,-1.5718,-1.6453,-1.6862,-1.8327,-1.9054,-1.9301,-1.9301,-1.9301,-1.9301,-1.9301,-1.9301,-1.9222,-1.8567,-1.8329,-1.7863,-1.6166,-1.5397,-1.4924,-1.4058,-1.3284,-1.2876,-1.3019,-1.2906,-1.2882,-1.3019,-1.33,-1.354,-1.3546,-1.3808,-1.4142,-1.4887,-1.4985,-1.5318,-1.6206,-1.6288,-1.6704,-1.7871,-1.8243,-1.8573,-1.8909,-1.9154,-1.8885,-1.77,-1.6854,-1.6049,-1.5477,-1.458,-1.4088,-1.4088,-1.4088,-1.4088,-1.4088,-1.4088,-1.4088,-1.4088,-1.4747,-1.4993,-1.4908,-1.5,-1.4993,-1.4908,-1.458,-1.473,-1.5129,-1.4751,-1.5003,-1.5571,-1.5538,-1.5645,-1.5832,-1.5832,-1.5832,-1.5832,-1.5832,-1.5832,-1.5832,-2.1741,-2.1741,-2.1741,-2.1741,-2.1741,-2.1741,-2.1741,-2.1741,-2.1741,-2.1741,-2.1365,-2.1177,-2.1177,-2.1177,-2.1177,-2.1177,-2.1463,-2.1553,-2.1177,-2.0619,-2.0158,-1.9704,-1.8446,-1.7817,-1.8026,-1.609,-1.4903,-1.479,-1.4609,-1.4462,-1.4342,-1.4168,-1.4677,-1.5672,-1.5482,-1.5394,-1.5394,-1.5394,-1.4908,-1.425,-1.5966,-1.6698,-1.6862,-1.8647,-1.9301,-1.9301,-1.9301,-1.9054,-1.8816,-1.8816,-1.8567,-1.8158,-1.7674,-1.7513,-1.7139,-1.5561,-1.5101,-1.4938,-1.4062,-1.3387,-1.3026,-1.3454,-1.324,-1.2979,-1.3166,-1.3527,-1.3864,-1.4062,-1.4358,-1.4908,-1.5718,-1.5884,-1.6206,-1.7107,-1.718,-1.7646,-1.895,-1.8953,-1.9163,-1.9825,-1.9453,-1.9003,-1.8594,-1.7098,-1.5854,-1.5078,-1.448,-1.4135,-1.4255,-1.4148,-1.4088,-1.4088,-1.4088,-1.4088,-1.4088,-1.4088,-1.4088,-1.4088,-1.4088,-1.4088,-1.4088,-1.4088,-1.4342,-1.4783,-1.4723,-1.5064,-1.5651,-1.5591,-1.5671,-1.5832,-1.5832,-1.5832,-1.5832,-1.5832,-1.5832,-1.5832,-2.1741,-2.1741,-2.1741,-2.1741,-2.1741,-2.1741,-2.1741,-2.1741,-2.1741,-2.1741,-2.0997,-2.0439,-2.0439,-2.0439,-2.0439,-2.0439,-2.1177,-2.1275,-2.0339,-2.0223,-1.967,-1.8696,-1.7394,-1.6657,-1.6686,-1.5597,-1.479,-1.4522,-1.4496,-1.4349,-1.4088,-1.4088,-1.4496,-1.5311,-1.5311,-1.5311,-1.5311,-1.5311,-1.4803,-1.421,-1.5921,-1.6635,-1.6766,-1.8585,-1.9246,-1.9256,-1.9204,-1.8647,-1.7997,-1.7917,-1.735,-1.6698,-1.6617,-1.6617,-1.637,-1.556,-1.5311,-1.5061,-1.43,-1.3641,-1.334,-1.3874,-1.3662,-1.3272,-1.3273,-1.3783,-1.4337,-1.4851,-1.5271,-1.5801,-1.6698,-1.678,-1.7098,-1.7997,-1.8078,-1.8556,-1.9752,-1.965,-1.9549,-1.9934,-1.8894,-1.8397,-1.9143,-1.6886,-1.5155,-1.4623,-1.4315,-1.4269,-1.4502,-1.4295,-1.4155,-1.4128,-1.4128,-1.4128,-1.4128,-1.4102,-1.4088,-1.4088,-1.4088,-1.4088,-1.4088,-1.4088,-1.4249,-1.4536,-1.4836,-1.513,-1.5418,-1.5712,-1.5832,-1.5832,-1.5832,-1.5832,-1.5832,-1.5832,-1.5832,-1.5832,-2.1741,-2.1741,-2.1741,-2.1741,-2.1741,-2.1741,-2.1741,-2.1741,-2.1741,-2.1741,-2.1553,-2.1365,-2.1365,-2.1365,-2.1365,-2.1365,-2.1553,-2.1275,-2.0339,-1.9339,-1.8411,-1.7684,-1.5908,-1.5164,-1.5404,-1.4851,-1.4583,-1.4522,-1.4295,-1.4148,-1.4088,-1.4088,-1.4166,-1.4419,-1.4419,-1.4419,-1.4419,-1.4419,-1.4115,-1.3899,-1.5579,-1.6134,-1.6162,-1.8089,-1.8843,-1.8802,-1.8382,-1.8158,-1.7917,-1.718,-1.6862,-1.6617,-1.5884,-1.5718,-1.5477,-1.4664,-1.4419,-1.428,-1.3801,-1.348,-1.324,-1.3367,-1.3583,-1.379,-1.3899,-1.4566,-1.513,-1.5306,-1.5913,-1.6698,-1.7594,-1.7755,-1.7997,-1.8895,-1.9054,-1.9308,-2.0208,-2.031,-2.0292,-2.0383,-1.9539,-1.874,-1.8299,-1.6695,-1.5476,-1.4932,-1.481,-1.4703,-1.4529,-1.4683,-1.4669,-1.4436,-1.4429,-1.4429,-1.4429,-1.4202,-1.4088,-1.4088,-1.4088,-1.4088,-1.4088,-1.4088,-1.4249,-1.4536,-1.4836,-1.513,-1.5418,-1.5712,-1.5832,-1.5832,-1.5832,-1.5832,-1.5832,-1.5832,-1.5832,-1.5832,-2.1741,-2.1741,-2.1741,-2.1741,-2.1741,-2.1553,-2.1087,-2.0997,-2.0997,-2.0997,-2.0628,-2.0538,-2.0997,-2.0628,-2.0357,-2.0357,-2.0727,-2.0447,-1.8972,-1.8092,-1.7266,-1.6443,-1.5178,-1.4596,-1.475,-1.4462,-1.4315,-1.4315,-1.4302,-1.4222,-1.4088,-1.4088,-1.4088,-1.4088,-1.4088,-1.4088,-1.4088,-1.4088,-1.4001,-1.3937,-1.5227,-1.5924,-1.634,-1.7795,-1.8355,-1.8294,-1.8089,-1.7432,-1.6617,-1.5718,-1.5477,-1.5477,-1.5394,-1.5151,-1.4741,-1.4741,-1.4309,-1.3841,-1.3687,-1.332,-1.3131,-1.3805,-1.4109,-1.4113,-1.3999,-1.486,-1.5848,-1.6086,-1.679,-1.7594,-1.8487,-1.8647,-1.8807,-1.9222,-1.9301,-1.9522,-2.0154,-2.0063,-1.9843,-1.9618,-1.8624,-1.7587,-1.646,-1.6163,-1.5803,-1.5234,-1.5044,-1.4957,-1.4937,-1.4957,-1.4897,-1.4736,-1.473,-1.473,-1.473,-1.4583,-1.4502,-1.4502,-1.4222,-1.4088,-1.4088,-1.4088,-1.4249,-1.4529,-1.4683,-1.4997,-1.5404,-1.5558,-1.5705,-1.5832,-1.5832,-1.5832,-1.5832,-1.5832,-1.5832,-1.5832,-2.163,-2.1686,-2.1741,-2.1741,-2.1553,-2.1177,-2.0439,-2.0158,-2.0042,-1.9983,-1.9389,-1.9314,-2.0163,-1.9662,-1.9155,-1.8796,-1.9886,-1.9679,-1.7617,-1.7379,-1.6831,-1.586,-1.5103,-1.4636,-1.4683,-1.4321,-1.4088,-1.4088,-1.4329,-1.4322,-1.4088,-1.4035,-1.4041,-1.4082,-1.4035,-1.4041,-1.4088,-1.4196,-1.4226,-1.4261,-1.5233,-1.5924,-1.6517,-1.7464,-1.7729,-1.7569,-1.7481,-1.6401,-1.4996,-1.4314,-1.4088,-1.425,-1.4992,-1.4657,-1.4243,-1.492,-1.4399,-1.3552,-1.3499,-1.3279,-1.3397,-1.4533,-1.4862,-1.4819,-1.4532,-1.5498,-1.6683,-1.7167,-1.783,-1.8593,-1.9243,-1.9347,-1.9301,-1.9301,-1.9366,-1.9451,-1.9634,-1.9444,-1.903,-1.8462,-1.73,-1.6034,-1.4811,-1.5588,-1.5951,-1.5537,-1.5251,-1.5197,-1.5384,-1.5217,-1.509,-1.5037,-1.5037,-1.5037,-1.5037,-1.499,-1.4963,-1.4957,-1.4469,-1.4208,-1.4162,-1.4162,-1.4262,-1.4449,-1.4496,-1.483,-1.5331,-1.5378,-1.5565,-1.5832,-1.5832,-1.5737,-1.573,-1.5737,-1.5737,-1.5737,-2.119,-2.1484,-2.1741,-2.1741,-2.0997,-2.0439,-2.0339,-1.9521,-1.8867,-1.8644,-1.9414,-2.0039,-1.9884,-2.0704,-2.0628,-1.8972,-2.0447,-2.0488,-1.8194,-1.8633,-1.8419,-1.7373,-1.5967,-1.5423,-1.5612,-1.4647,-1.4088,-1.4088,-1.4128,-1.4128,-1.4082,-1.3821,-1.3841,-1.4075,-1.3814,-1.3848,-1.4153,-1.4543,-1.4576,-1.4388,-1.5963,-1.6084,-1.5455,-1.6691,-1.6665,-1.5894,-1.5187,-1.4504,-1.3905,-1.4001,-1.4088,-1.4088,-1.425,-1.4173,-1.4035,-1.3857,-1.3756,-1.3587,-1.334,-1.3745,-1.4314,-1.4479,-1.562,-1.6649,-1.6598,-1.7417,-1.8252,-1.8365,-1.9026,-1.9679,-1.9761,-1.9549,-1.9301,-1.9301,-1.9604,-1.9534,-1.8911,-1.9063,-1.8786,-1.7576,-1.6584,-1.5785,-1.5315,-1.5402,-1.5544,-1.5745,-1.5732,-1.5618,-1.5404,-1.5598,-1.5598,-1.5344,-1.5337,-1.5337,-1.5337,-1.509,-1.4963,-1.4963,-1.4883,-1.471,-1.4462,-1.4462,-1.4349,-1.4162,-1.4409,-1.471,-1.5044,-1.5291,-1.5565,-1.5832,-1.5832,-1.5737,-1.554,-1.5267,-1.5363,-1.554,-2.1062,-2.1255,-2.1456,-2.1695,-2.1365,-2.0898,-2.0348,-1.9718,-1.9256,-1.909,-1.9394,-1.9825,-2.0481,-2.0758,-2.0082,-1.7964,-1.8954,-1.8986,-1.7212,-1.773,-1.7786,-1.736,-1.6552,-1.6193,-1.6263,-1.5793,-1.556,-1.556,-1.5068,-1.458,-1.4082,-1.4746,-1.4686,-1.4068,-1.3987,-1.4188,-1.4468,-1.454,-1.4702,-1.5011,-1.5519,-1.5855,-1.603,-1.5988,-1.5878,-1.552,-1.4209,-1.3707,-1.3661,-1.4358,-1.4131,-1.3784,-1.4991,-1.4526,-1.3682,-1.4184,-1.4027,-1.3761,-1.3796,-1.4157,-1.4793,-1.5647,-1.6438,-1.724,-1.8122,-1.8807,-1.9217,-1.8772,-1.9101,-1.9577,-1.9577,-1.943,-1.9207,-1.885,-1.8953,-1.8806,-1.8176,-1.8161,-1.7943,-1.6843,-1.6037,-1.5549,-1.5371,-1.5545,-1.5691,-1.5818,-1.5832,-1.5772,-1.5645,-1.5758,-1.5772,-1.5645,-1.5638,-1.5638,-1.5638,-1.5511,-1.5444,-1.5444,-1.5444,-1.5124,-1.4522,-1.4522,-1.4362,-1.4095,-1.4222,-1.4449,-1.4736,-1.5037,-1.5324,-1.5605,-1.5765,-1.5737,-1.5635,-1.5274,-1.5363,-1.5635]},{"header":{"parameterUnit":"m.s-1","parameterCategory":1,"la1":30.6,"la2":28.766,"lo1":-90.7593,"lo2":-88.6598,"dy":0.0162,"dx":0.0183,"nx":116,"ny":114,"refTime":"2023-08-06T06:00:00:Z","depth":0,"parameterNumber":3,"parameterNumberName":"V-component_of_WINDS"},"data":[0.0,0.0,0.0,0.0,0.0,0.0,0.0,0.0,0.0,0.0,0.0,0.0,0.0,0.0,0.0,0.0,0.0,0.0,0.0,0.0,0.0,0.0,0.0,0.0,0.0,0.0,0.0,0.0,0.0,0.0,0.0,0.0,0.0,0.0,0.0,0.0,0.0,0.0,0.0,0.0,0.0,0.0,0.0,0.0,0.0,0.0,0.0,0.0,0.0,0.0,0.0,0.0,0.0,0.0,0.0,0.0,0.0,0.0,0.0,0.0,0.0,0.0,0.0,0.0,0.0,0.0,0.0,0.0,0.0,0.0,0.0,0.0,0.0,0.0,0.0,0.0,0.0,0.0,0.0,0.0,0.0,0.0,0.0,0.0,0.0,0.0,0.0,0.0,0.0,0.0,0.0,0.0,0.0,0.0,0.0,0.0,0.0,0.0,0.0,0.0,0.0,0.0,0.0,0.0,0.0,0.0,0.0,0.0,0.0,0.0,0.0,0.0,0.0,0.0,0.0,0.0,0.0,0.0,0.0,0.0,0.0,0.0,0.0,0.0,0.0,0.0,0.0,0.0,0.0,0.0,0.0,0.0,0.0,0.0,0.0,0.0,0.0,0.0,0.0,0.0,0.0,0.0,0.0,0.0,0.0,0.0,0.0,0.0,0.0,0.0,0.0,0.0,0.0,0.0,0.0,0.0,0.0,0.0,0.0,0.0,0.0,0.0,0.0,0.0,0.0,0.0,0.0,0.0,0.0,0.0,0.0,0.0,0.0,0.0,0.0,0.0,0.0,0.0,0.0,0.0,0.0,0.0,0.0,0.0,0.0,0.0,0.0,0.0,0.0,0.0,0.0,0.0,0.0,0.0,0.0,0.0,0.0,0.0,0.0,0.0,0.0,0.0,0.0,0.0,0.0,0.0,0.0,0.0,0.0,0.0,0.0,0.0,0.0,0.0,0.0,0.0,0.0,0.0,0.0,0.0,0.0,0.0,0.0,0.0,0.0,0.0,0.0,0.0,0.0,0.0,0.0,0.0,0.0,0.0,0.0,0.0,0.0,0.0,0.0,0.0,0.0,0.0,0.0,0.0,0.0,0.0,0.0,0.0,0.0,0.0,0.0,0.0,0.0,0.0,0.0,0.0,0.0,0.0,0.0,0.0,0.0,0.0,0.0,0.0,0.0,0.0,0.0,0.0,0.0,0.0,0.0,0.0,0.0,0.0,0.0,0.0,0.0,0.0,0.0,0.0,0.0,0.0,0.0,0.0,0.0,0.0,0.0,0.0,0.0,0.0,0.0,0.0,0.0,0.0,0.0,0.0,0.0,0.0,0.0,0.0,0.0,0.0,0.0,0.0,0.0,0.0,0.0,0.0,0.0,0.0,0.0,0.0,0.0,0.0,0.0,0.0,0.0,0.0,0.0,0.0,0.0,0.0,0.0,0.0,0.0,0.0,0.0,0.0,0.0,0.0,0.0,0.0,0.0,0.0,0.0,0.0,0.0,0.0,0.0,0.0,0.0,0.0,0.0,0.0,0.0,0.0,0.0,0.0,0.0,0.0,0.0,0.0,0.0,0.0,0.0,0.0,0.0,0.0,0.0,0.0,0.0,0.0,0.0,0.0,0.0,0.0,0.0,0.0,0.0,0.0,0.0,0.0,0.0,0.0,0.0,0.0,0.0,0.0,0.0,0.0,0.0,0.0,0.0,0.0,0.0,0.0,0.0,0.0,0.0,0.0,0.0,0.0,0.0,0.0,0.0,0.0,0.0,0.0,0.0,0.0,0.0,0.0,0.0,0.0,0.0,0.0,0.0,0.0,0.0,0.0,0.0,0.0,0.0,0.0,0.0,0.0,0.0,0.0,0.0,0.0,0.0,0.0,0.0,0.0,0.0,0.0,0.0,0.0,0.0,0.0,0.0,0.0,0.0,0.0,0.0,0.0,0.0,0.0,0.0,0.0,0.0,0.0,0.0,0.0,0.0,0.0,0.0,0.0,0.0,0.0,0.0,0.0,0.0,0.0,0.0,0.0,0.0,0.0,0.0,0.0,0.0,0.0,0.0,0.0,0.0,0.0,0.0,0.0,0.0,0.0,0.0,0.0,0.0,0.0,0.0,0.0,0.0,0.0,0.0,0.0,0.0,0.0,0.0,0.0,0.0,0.0,0.0,0.0,0.0,0.0,0.0,0.0,0.0,0.0,0.0,0.0,0.0,0.0,0.0,0.0,0.0,0.0,0.0,0.0,0.0,0.0,0.0,0.0,0.0,0.0,0.0,0.0,0.0,0.0,0.0,0.0,0.0,0.0,0.0,0.0,0.0,0.0,0.0,0.0,0.0,0.0,0.0,0.0,0.0,0.0,0.0,0.0,0.0,0.0,0.0,0.0,0.0,0.0,0.0,0.0,0.0,0.0,0.0,0.0,0.0,0.0,0.0,0.0,0.0,0.0,0.0,0.0,0.0,0.0,0.0,0.0,0.0,0.0,0.0,0.0,0.0,0.0,0.0,0.0,0.0,0.0,0.0,0.0,0.0,0.0,0.0,0.0,0.0,0.0,0.0,0.0,0.0,0.0,0.0,0.0,0.0,0.0,0.0,0.0,0.0,0.0,0.0,0.0,0.0,0.0,0.0,0.0,0.0,0.0,0.0,0.0,0.0,0.0,0.0,0.0,0.0,0.0,0.0,0.0,0.0,0.0,0.0,0.0,0.0,0.0,0.0,0.0,0.0,0.0,0.0,0.0,0.0,0.0,0.0,0.0,0.0,0.0,0.0,0.0,0.0,0.0,0.0,0.0,0.0,0.0,0.0,0.0,0.0,0.0,0.0,0.0,0.0,0.0,0.0,0.0,0.0,0.0,0.0,0.0,0.0,0.0,0.0,0.0,0.0,0.0,0.0,0.0,0.0,0.0,0.0,0.0,0.0,0.0,0.0,0.0,0.0,0.0,0.0,0.0,0.0,0.0,0.0,0.0,0.0,0.0,0.0,0.0,0.0,0.0,0.0,0.0,0.0,0.0,0.0,0.0,0.0,0.0,0.0,0.0,0.0,0.0,0.0,0.0,0.0,0.0,0.0,0.0,0.0,0.0,0.0,0.0,0.0,0.0,0.0,0.0,0.0,0.0,0.0,0.0,0.0,0.0,0.0,0.0,0.0,0.0,0.0,0.0,0.0,0.0,0.0,0.0,0.0,0.0,0.0,0.0,0.0,0.0,0.0,0.0,0.0,0.0,0.0,0.0,0.0,0.0,0.0,0.0,0.0,0.0,0.0,0.0,0.0,0.0,0.0,0.0,0.0,0.0,0.0,0.0,0.0,0.0,0.0,0.0,0.0,0.0,0.0,0.0,0.0,0.0,0.0,0.0,0.0,0.0,0.0,0.0,0.0,0.0,0.0,0.0,0.0,0.0,0.0,0.0,0.0,0.0,0.0,0.0,0.0,0.0,0.0,0.0,0.0,0.0,0.0,0.0,0.0,0.0,0.0,0.0,0.0,0.0,0.0,0.0,0.0,0.0,0.0,0.0,0.0,0.0,0.0,0.0,0.0,0.0,0.0,0.0,0.0,0.0,0.0,0.0,0.0,0.0,0.0,0.0,0.0,0.0,0.0,0.0,0.0,0.0,0.0,0.0,0.0,0.0,0.0,0.0,0.0,0.0,0.0,0.0,0.0,0.0,0.0,0.0,0.0,0.0,0.0,0.0,0.0,0.0,0.0,0.0,0.0,0.0,0.0,0.0,0.0,0.0,0.0,0.0,0.0,0.0,0.0,0.0,0.0,0.0,0.0,0.0,0.0,0.0,0.0,0.0,0.0,0.0,0.0,0.0,0.0,0.0,0.0,0.0,0.0,0.0,0.0,0.0,0.0,0.0,0.0,0.0,0.0,0.0,0.0,0.0,0.0,0.0,0.0,0.0,0.0,0.0,0.0,0.0,0.0,0.0,0.0,0.0,0.0,0.0,0.0,0.0,0.0,0.0,0.0,0.0,0.0,0.0,0.0,0.0,0.0,0.0,0.0,0.0,0.0,0.0,0.0,0.0,0.0,0.0,0.0,0.0,0.0,0.0,0.0,0.0,0.0,0.0,0.0,0.0,0.0,0.0,0.0,0.0,0.0,0.0,0.0,0.0,0.0,0.0,0.0,0.0,0.0,0.0,0.0,0.0,0.0,0.0,0.0,0.0,0.0,0.0,0.0,0.0,0.0,0.0,0.0,0.0,0.0,0.0,0.0,0.0,0.0,0.0,0.0,0.0,0.0,0.0,0.0,0.0,0.0,0.0,0.0,0.0,0.0,0.0,0.0,0.0,0.0,0.0,0.0,0.0,0.0,0.0,0.0,0.0,0.0,0.0,0.0,0.0,0.0,0.0,0.0,0.0,0.0,0.0,0.0,0.0,0.0,0.0,0.0,0.0,0.0,0.0,0.0,0.0,0.0,0.0,0.0,0.0,0.0,0.0,0.0,0.0,0.0,0.0,0.0,0.0,0.0,0.0,0.0,0.0,0.0,0.0,0.0,0.0,0.0,0.0,0.0,0.0,0.0,0.0,0.0,0.0,0.0,0.0,0.0,0.0,0.0,0.0,0.0,0.0,0.0,0.0,0.0,0.0,0.0,0.0,0.0,0.0,0.0,0.0,0.0,0.0,0.0,0.0,0.0,0.0,0.0,0.0,0.0,0.0,0.0,0.0,0.0,0.0,0.0,0.0,0.0,0.0,0.0,0.0,0.0,0.0,0.0,0.0,0.0,0.0,0.0,0.0,0.0,0.0,0.0,0.0,0.0,0.0,0.0,0.0,0.0,0.0,0.0,0.0,0.0,0.0,0.0,0.0,0.0,0.0,0.0,0.0,0.0,0.0,0.0,0.0,0.0,0.0,0.0,0.0,0.0,0.0,0.0,0.0,0.0,0.0,0.0,0.0,0.0,0.0,0.0,0.0,0.0,0.0,0.0,0.0,0.0,0.0,0.0,0.0,0.0,0.0,0.0,0.0,0.0,0.0,0.0,0.0,0.0,0.0,0.0,0.0,0.0,0.0,0.0,0.0,0.0,0.0,0.0,0.0,0.0,0.0,0.0,0.0,0.0,0.0,0.0,0.0,0.0,0.0,0.0,0.0,0.0,0.0,0.0,0.0,0.0,0.0,0.0,0.0,0.0,0.0,0.0,0.0,0.0,0.0,0.0,0.0,0.0,0.0,0.0,0.0,0.0,0.0,0.0,0.0,0.0,0.0,0.0,0.0,0.0,0.0,0.0,0.0,0.0,0.0,0.0,0.0,0.0,0.0,0.0,0.0,0.0,0.0,0.0,0.0,0.0,0.0,0.0,0.0,0.0,0.0,0.0,0.0,0.0,0.0,0.0,0.0,0.0,0.0,0.0,0.0,0.0,0.0,0.0,0.0,0.0,0.0,0.0,0.0,0.0,0.0,0.0,0.0,0.0,0.0,0.0,0.0,0.0,0.0,0.0,0.0,0.0,0.0,0.0,0.0,0.0,0.0,0.0,0.0,0.0,0.0,0.0,0.0,0.0,0.0,0.0,0.0,0.0,0.0,0.0,0.0,0.0,0.0,0.0,0.0,0.0,0.0,0.0,0.0,0.0,0.0,0.0,0.0,0.0,0.0,0.0,0.0,0.0,0.0,0.0,0.0,0.0,0.0,0.0,0.0,0.0,0.0,0.0,0.0,0.0,0.0,0.0,0.0,0.0,0.0,0.0,0.0,0.0,0.0,0.0,0.0,0.0,0.0,0.0,0.0,0.0,0.0,0.0,0.0,0.0,0.0,0.0,0.0,0.0,0.0,0.0,0.0,0.0,0.0,0.0,0.0,0.0,0.0,0.0,0.0,0.0,0.0,0.0,0.0,0.0,0.0,0.0,0.0,0.0,0.0,0.0,0.0,0.0,0.0,0.0,0.0,0.0,0.0,0.0,0.0,0.0,0.0,0.0,0.0,0.0,0.0,0.0,0.0,0.0,0.0,0.0,0.0,0.0,0.0,0.0,0.0,0.0,0.0,0.0,0.0,0.0,0.0,0.0,0.0,0.0,0.0,0.0,0.0,0.0,0.0,0.0,0.0,0.0,0.0,0.0,0.0,0.0,0.0,0.0,0.0,0.0,0.0,0.0,0.0,0.0,0.0,-3.969,0.0,0.0,0.0,0.0,0.0,0.0,0.0,0.0,0.0,0.0,0.0,0.0,0.0,0.0,0.0,0.0,0.0,0.0,0.0,0.0,0.0,0.0,0.0,0.0,0.0,0.0,0.0,0.0,0.0,0.0,0.0,0.0,0.0,0.0,0.0,0.0,0.0,0.0,0.0,0.0,0.0,0.0,0.0,0.0,0.0,0.0,0.0,0.0,0.0,0.0,0.0,0.0,0.0,0.0,0.0,0.0,0.0,0.0,0.0,0.0,0.0,0.0,0.0,0.0,0.0,0.0,0.0,0.0,0.0,0.0,0.0,0.0,0.0,0.0,0.0,0.0,0.0,0.0,0.0,0.0,0.0,0.0,0.0,0.0,0.0,0.0,0.0,0.0,0.0,0.0,0.0,0.0,0.0,0.0,0.0,0.0,0.0,0.0,0.0,0.0,0.0,0.0,0.0,0.0,0.0,0.0,0.0,0.0,0.0,0.0,0.0,0.0,0.0,0.0,0.0,0.0,-4.0364,0.0,0.0,0.0,0.0,0.0,0.0,0.0,0.0,0.0,0.0,0.0,0.0,0.0,0.0,0.0,0.0,0.0,0.0,0.0,0.0,0.0,0.0,0.0,0.0,0.0,0.0,0.0,0.0,0.0,0.0,0.0,0.0,0.0,0.0,0.0,0.0,0.0,0.0,0.0,0.0,0.0,0.0,0.0,0.0,0.0,0.0,0.0,0.0,0.0,0.0,0.0,0.0,0.0,0.0,0.0,0.0,0.0,0.0,0.0,0.0,0.0,0.0,0.0,0.0,0.0,0.0,0.0,0.0,0.0,0.0,0.0,0.0,0.0,0.0,0.0,0.0,0.0,0.0,0.0,0.0,0.0,0.0,0.0,0.0,0.0,0.0,0.0,0.0,0.0,0.0,0.0,0.0,0.0,0.0,0.0,0.0,0.0,0.0,0.0,0.0,0.0,0.0,0.0,0.0,0.0,0.0,0.0,0.0,-4.4576,-4.5317,-4.4576,-4.6727,-4.732,-4.6488,-4.4287,-4.331,-4.3234,0.0,0.0,0.0,0.0,0.0,0.0,0.0,0.0,0.0,0.0,0.0,0.0,0.0,0.0,0.0,0.0,0.0,0.0,0.0,0.0,0.0,0.0,0.0,0.0,0.0,0.0,0.0,0.0,0.0,0.0,0.0,0.0,0.0,0.0,0.0,0.0,0.0,0.0,0.0,0.0,0.0,0.0,0.0,0.0,0.0,0.0,0.0,0.0,0.0,0.0,0.0,0.0,0.0,0.0,0.0,0.0,0.0,0.0,0.0,0.0,0.0,0.0,0.0,0.0,0.0,0.0,0.0,0.0,0.0,0.0,0.0,0.0,0.0,0.0,0.0,0.0,0.0,0.0,0.0,0.0,0.0,0.0,0.0,0.0,0.0,0.0,0.0,-4.1763,-4.1967,0.0,0.0,0.0,0.0,0.0,0.0,0.0,0.0,0.0,0.0,0.0,0.0,0.0,-4.1699,-4.2879,-4.5088,-4.5958,-4.5622,-4.8173,-4.8467,-4.6897,-4.8895,-4.9207,-4.8197,-4.9552,0.0,-4.6008,-4.5961,0.0,0.0,0.0,0.0,0.0,0.0,0.0,0.0,0.0,0.0,0.0,0.0,0.0,0.0,0.0,0.0,0.0,0.0,0.0,0.0,0.0,0.0,0.0,0.0,0.0,0.0,0.0,0.0,0.0,0.0,0.0,0.0,0.0,0.0,0.0,0.0,0.0,0.0,0.0,0.0,0.0,0.0,0.0,0.0,0.0,0.0,0.0,0.0,0.0,0.0,0.0,0.0,0.0,0.0,0.0,0.0,0.0,0.0,0.0,0.0,0.0,0.0,0.0,0.0,0.0,0.0,0.0,0.0,0.0,0.0,0.0,0.0,0.0,0.0,0.0,0.0,0.0,0.0,0.0,0.0,0.0,0.0,0.0,0.0,0.0,-4.1132,-4.1332,-3.8936,-3.9164,-3.8476,0.0,0.0,0.0,0.0,0.0,0.0,0.0,0.0,0.0,-4.1685,-4.2683,-4.3793,-4.5057,-4.7516,-4.8443,-4.7867,-5.0326,-5.0918,-4.9978,-5.1187,-5.1497,-5.1157,-5.2619,-5.1914,-4.9774,-4.8369,-4.6859,-4.5261,0.0,0.0,0.0,0.0,-4.6215,-4.7734,0.0,0.0,0.0,0.0,0.0,0.0,0.0,0.0,0.0,0.0,0.0,0.0,0.0,0.0,0.0,0.0,0.0,0.0,0.0,0.0,0.0,0.0,0.0,0.0,0.0,0.0,0.0,0.0,0.0,0.0,0.0,0.0,0.0,0.0,0.0,0.0,0.0,0.0,0.0,0.0,0.0,0.0,0.0,0.0,0.0,0.0,0.0,0.0,0.0,0.0,0.0,0.0,0.0,0.0,0.0,0.0,0.0,0.0,0.0,0.0,0.0,0.0,0.0,0.0,0.0,0.0,0.0,0.0,0.0,0.0,0.0,0.0,0.0,0.0,0.0,0.0,0.0,-4.1561,-4.132,-3.7536,-3.9238,-3.9239,0.0,0.0,0.0,0.0,0.0,0.0,-4.0421,-4.0645,-4.1671,-4.3694,-4.4804,-4.5886,-4.6982,-4.9154,-4.9936,-4.9356,-5.1392,-5.2009,-5.1569,-5.2267,-5.2734,-5.3129,-5.3931,-5.3864,-5.2876,-5.0738,-4.8985,-4.7309,-4.6079,-4.5631,-4.5719,-4.6717,-4.8019,-4.9451,0.0,0.0,0.0,0.0,0.0,0.0,0.0,0.0,0.0,0.0,0.0,0.0,0.0,0.0,0.0,0.0,0.0,0.0,0.0,0.0,0.0,0.0,0.0,0.0,0.0,0.0,0.0,0.0,0.0,0.0,0.0,0.0,0.0,0.0,0.0,0.0,0.0,0.0,0.0,0.0,0.0,0.0,0.0,0.0,0.0,0.0,0.0,0.0,0.0,0.0,0.0,0.0,0.0,0.0,0.0,0.0,0.0,0.0,0.0,0.0,0.0,0.0,0.0,0.0,0.0,0.0,0.0,0.0,0.0,0.0,0.0,0.0,0.0,0.0,0.0,0.0,0.0,0.0,0.0,-4.138,-4.2535,0.0,0.0,0.0,0.0,-3.7929,-3.8974,-4.0491,-4.2345,-4.2992,-4.4439,-4.6897,-4.76,-4.8246,-4.8893,-5.0278,-5.073,-5.0098,-5.0898,-5.0984,-5.0434,-5.1175,-5.2006,-5.2672,-5.3437,-5.4052,-5.4529,-5.3776,-5.1917,-4.9458,-4.8675,-4.8118,-4.7659,-4.7691,-4.8754,-5.0066,0.0,0.0,0.0,0.0,0.0,0.0,0.0,0.0,0.0,0.0,0.0,0.0,0.0,0.0,0.0,0.0,0.0,0.0,0.0,0.0,0.0,0.0,0.0,0.0,0.0,0.0,0.0,0.0,0.0,0.0,0.0,0.0,0.0,0.0,0.0,0.0,0.0,0.0,0.0,0.0,0.0,0.0,0.0,0.0,0.0,0.0,0.0,0.0,0.0,0.0,0.0,0.0,0.0,0.0,0.0,0.0,0.0,0.0,0.0,0.0,0.0,0.0,0.0,0.0,0.0,0.0,0.0,0.0,0.0,0.0,0.0,0.0,0.0,0.0,0.0,0.0,0.0,0.0,0.0,-4.0312,-4.2177,0.0,-3.8879,-3.9826,-4.0608,-4.0336,-4.2191,-4.3638,-4.4312,-4.4945,-4.5703,-4.6588,-4.7658,-4.8467,-4.9209,-5.0527,-5.081,-5.0267,-5.0886,-5.0685,-4.9806,-5.0545,-5.1031,-5.1435,-5.2147,-5.2313,-5.2144,-5.29,-5.2331,-5.0836,-4.9235,-4.9012,-4.9709,-4.9709,-5.0911,-5.2534,0.0,0.0,0.0,0.0,0.0,0.0,0.0,0.0,0.0,0.0,0.0,0.0,0.0,0.0,0.0,0.0,0.0,0.0,0.0,0.0,0.0,0.0,0.0,0.0,0.0,0.0,0.0,0.0,0.0,0.0,0.0,0.0,0.0,0.0,0.0,0.0,0.0,0.0,0.0,0.0,0.0,0.0,-4.0493,0.0,0.0,0.0,0.0,0.0,0.0,0.0,0.0,0.0,0.0,0.0,0.0,0.0,0.0,0.0,0.0,0.0,0.0,0.0,0.0,0.0,0.0,0.0,0.0,0.0,0.0,0.0,0.0,0.0,0.0,0.0,0.0,0.0,0.0,0.0,-4.2867,-4.0046,-4.2428,-4.309,-4.0128,-4.1543,-4.2628,-4.2584,-4.4481,-4.5828,-4.6299,-4.671,-4.7048,-4.7338,-4.7961,-4.8551,-4.9001,-5.0081,-5.0357,-4.969,-5.0337,-5.0335,-4.9604,-4.9743,-5.0289,-5.1095,-5.1328,-5.1436,-5.157,-5.234,-5.2353,-5.1727,-5.0414,-5.0326,-5.1096,-5.1171,-5.2161,-5.3539,0.0,0.0,0.0,0.0,0.0,0.0,0.0,0.0,0.0,0.0,0.0,0.0,0.0,0.0,0.0,0.0,0.0,0.0,0.0,0.0,0.0,0.0,0.0,0.0,0.0,0.0,0.0,0.0,0.0,0.0,0.0,0.0,0.0,0.0,0.0,0.0,0.0,0.0,0.0,0.0,0.0,0.0,-4.0035,0.0,0.0,0.0,0.0,0.0,0.0,0.0,0.0,0.0,0.0,0.0,0.0,0.0,0.0,0.0,0.0,0.0,0.0,0.0,0.0,0.0,0.0,0.0,0.0,0.0,0.0,0.0,0.0,0.0,0.0,0.0,0.0,0.0,-4.1465,-4.2051,-4.2038,-4.1156,-4.3519,-4.4153,-4.1432,-4.3188,-4.4439,-4.4411,-4.5673,-4.6894,-4.8153,-4.8197,-4.8499,-4.9272,-4.8761,-4.8437,-4.8466,-4.9164,-4.9191,-4.8558,-4.9365,-4.9735,-4.9704,-4.9011,-4.9797,-5.1812,-5.1132,-5.1678,-5.2919,-5.23,-5.2085,-5.2205,-5.2238,-5.213,-5.1944,-5.2054,-5.2441,-5.2721,0.0,0.0,0.0,0.0,0.0,0.0,0.0,0.0,0.0,0.0,0.0,0.0,0.0,0.0,0.0,0.0,0.0,0.0,0.0,0.0,0.0,0.0,0.0,0.0,0.0,0.0,0.0,0.0,0.0,0.0,0.0,0.0,0.0,0.0,0.0,0.0,0.0,0.0,0.0,0.0,0.0,0.0,-4.1389,0.0,0.0,0.0,0.0,0.0,0.0,0.0,0.0,0.0,0.0,0.0,0.0,0.0,0.0,0.0,0.0,0.0,0.0,0.0,0.0,0.0,0.0,0.0,0.0,0.0,0.0,0.0,0.0,0.0,0.0,0.0,0.0,-3.9648,-4.07,-4.143,-4.2053,-4.2749,-4.318,-4.3412,-4.3482,-4.4589,-4.5237,-4.5167,-4.6842,-4.7576,-4.7061,-4.7395,-4.7827,-4.7995,-4.8388,-4.8805,-4.9284,-4.9554,-4.9805,-5.0227,-5.0003,-5.0168,-5.0671,-5.048,-5.0458,-5.0466,-5.0273,-5.0091,-5.0008,-5.0396,-5.0669,-5.0859,-5.0798,-5.1224,-5.1814,-5.1363,-5.1659,-5.2352,0.0,0.0,0.0,0.0,0.0,0.0,0.0,0.0,0.0,0.0,0.0,0.0,0.0,0.0,0.0,0.0,0.0,0.0,0.0,0.0,0.0,0.0,0.0,0.0,0.0,0.0,0.0,0.0,0.0,0.0,0.0,0.0,0.0,0.0,0.0,0.0,0.0,0.0,0.0,0.0,0.0,0.0,-4.2194,-4.3089,-4.3644,-4.4024,-4.4433,-4.4492,-4.4429,-4.46,0.0,0.0,0.0,0.0,0.0,0.0,0.0,0.0,0.0,0.0,0.0,0.0,0.0,0.0,0.0,0.0,0.0,0.0,0.0,0.0,0.0,0.0,0.0,0.0,-3.9901,-4.0198,-4.0902,-4.1598,-4.2525,-4.3754,-4.3352,-4.3442,-4.4729,-4.4977,-4.5277,-4.5445,-4.6797,-4.7391,-4.6974,-4.7063,-4.721,-4.7542,-4.8019,-4.8398,-4.8798,-4.9166,-4.9521,-5.0051,-4.9636,-4.9657,-5.0105,-5.0105,-5.0083,0.0,-4.9965,-4.9878,-4.9865,-5.0426,-5.0693,0.0,0.0,0.0,0.0,0.0,-5.1343,-5.1287,0.0,0.0,0.0,0.0,0.0,0.0,0.0,0.0,0.0,0.0,0.0,0.0,0.0,0.0,0.0,0.0,0.0,0.0,0.0,0.0,0.0,0.0,0.0,0.0,0.0,0.0,0.0,0.0,0.0,0.0,0.0,0.0,0.0,0.0,0.0,0.0,0.0,0.0,0.0,0.0,0.0,0.0,-4.2251,-4.3081,-4.3725,-4.4329,-4.5208,-4.5358,-4.5226,-4.5629,0.0,0.0,0.0,0.0,0.0,0.0,0.0,0.0,0.0,0.0,0.0,0.0,0.0,0.0,0.0,0.0,0.0,0.0,0.0,0.0,0.0,0.0,0.0,0.0,-4.1024,-4.1641,-4.1655,-4.2283,-4.3065,-4.4065,-4.3568,-4.3725,-4.5091,-4.4778,-4.4832,-4.5628,-4.6263,-4.695,-4.7576,0.0,0.0,0.0,0.0,-4.7953,-4.7953,-4.8609,-4.8925,-4.8933,-4.8933,-4.9004,-4.9076,-4.9076,-4.9349,-4.9907,-4.9907,-5.0225,-5.071,-5.0917,-5.1089,-5.123,-5.1401,-5.1542,-5.1657,-5.1675,-5.0873,-4.9752,0.0,0.0,0.0,0.0,0.0,0.0,0.0,0.0,0.0,0.0,0.0,0.0,0.0,0.0,0.0,0.0,0.0,0.0,0.0,0.0,0.0,0.0,0.0,0.0,0.0,0.0,0.0,0.0,0.0,0.0,0.0,0.0,0.0,0.0,0.0,0.0,0.0,0.0,0.0,0.0,0.0,0.0,-4.0503,-4.2895,-4.4,-4.4397,-4.5269,-4.5549,-4.5638,-4.6448,-4.6839,-4.708,-4.7856,0.0,0.0,0.0,0.0,0.0,0.0,0.0,0.0,0.0,0.0,0.0,0.0,0.0,0.0,0.0,0.0,0.0,0.0,0.0,0.0,-4.1272,-4.1523,-4.1851,-4.2283,-4.3015,-4.3085,-4.2144,-4.1506,-4.1903,-4.3852,-4.4402,-4.5372,-4.7215,-4.7927,-4.8402,-4.8509,-4.8456,0.0,-4.9341,-4.9379,-4.9373,-4.9373,-4.9538,-4.9684,-4.9796,0.0,0.0,-5.0726,-5.0726,-5.0138,-4.922,-4.922,-4.8669,-4.781,-4.7869,-4.8063,-4.8432,-4.9784,-4.9987,-4.935,-4.8803,-4.8407,-4.8148,0.0,0.0,0.0,0.0,0.0,0.0,0.0,0.0,0.0,0.0,0.0,0.0,0.0,0.0,0.0,0.0,0.0,0.0,0.0,0.0,0.0,0.0,0.0,0.0,0.0,0.0,0.0,0.0,0.0,0.0,0.0,0.0,0.0,0.0,0.0,0.0,0.0,0.0,0.0,0.0,0.0,0.0,-3.9882,-4.2579,-4.394,-4.4575,-4.5521,-4.5849,-4.5917,-4.6398,-4.7125,-4.7936,-4.8391,-4.8845,-4.902,0.0,0.0,0.0,0.0,0.0,0.0,0.0,0.0,0.0,0.0,0.0,0.0,0.0,0.0,-4.3082,0.0,0.0,-4.2281,-4.2219,-4.2748,-4.3024,-4.2592,-4.3161,-4.3189,-4.2123,-4.2037,-4.2528,-4.3521,-4.4599,-4.5667,-4.6653,-4.7693,-4.8165,-4.7826,-4.7809,-4.7955,-4.8295,-4.8649,-4.8858,-4.8858,-4.922,-4.941,-4.949,-4.949,-4.95,-4.9576,-4.9576,-4.8951,-4.7885,-4.7945,-4.764,-4.7003,-4.7193,-4.7381,-4.7657,-4.8092,-4.8286,-4.8217,-4.7855,-4.7234,-4.6613,0.0,0.0,0.0,0.0,0.0,0.0,0.0,0.0,0.0,0.0,0.0,0.0,0.0,0.0,0.0,0.0,0.0,0.0,0.0,0.0,0.0,0.0,0.0,0.0,0.0,0.0,0.0,0.0,0.0,0.0,0.0,0.0,0.0,0.0,0.0,0.0,0.0,0.0,0.0,0.0,0.0,0.0,-3.9783,-4.1987,-4.3491,-4.4553,-4.5695,-4.6092,-4.6122,-4.6278,-4.7274,-4.8484,-4.8641,-4.9305,-4.9775,-4.8613,-4.8412,0.0,0.0,0.0,0.0,0.0,0.0,0.0,0.0,0.0,-4.4438,-4.4273,-4.4209,-4.3984,-4.3183,-4.3524,-4.3855,-4.3547,-4.4301,-4.4492,-4.3201,-4.3487,-4.3551,-4.268,-4.3071,-4.354,-4.3733,-4.4838,-4.5767,-4.611,-4.7221,-4.7678,-4.7253,-4.7221,-4.7221,-4.7221,-4.7819,-4.8096,-4.8096,-4.8719,-4.8934,-4.8798,-4.8798,-4.8409,-4.7699,-4.7699,-4.7352,-4.6624,-4.6629,-4.6675,-4.6675,-4.6992,-4.7176,-4.72,-4.6613,-4.6648,-4.7044,-4.7044,-4.6165,-4.5113,0.0,0.0,0.0,0.0,0.0,0.0,0.0,0.0,0.0,0.0,0.0,0.0,0.0,0.0,0.0,0.0,0.0,0.0,0.0,0.0,0.0,0.0,0.0,0.0,0.0,0.0,0.0,0.0,0.0,0.0,0.0,0.0,0.0,0.0,0.0,0.0,0.0,0.0,0.0,0.0,0.0,0.0,-3.9799,-4.0797,-4.2225,-4.3924,-4.5522,-4.61,-4.6206,-4.6921,-4.7327,-4.7678,-4.8463,-4.9306,-4.9664,-4.8013,0.0,-4.834,-4.6401,-4.5774,-4.6089,-4.7911,-4.694,-4.6506,0.0,0.0,-4.7096,-4.7461,-4.7518,-4.6997,-4.5417,-4.5698,-4.6112,-4.601,-4.5988,-4.5695,-4.4984,-4.4935,-4.4432,-4.3045,-4.2886,-4.3362,-4.4633,-4.5013,-4.5905,-4.7706,-4.796,-4.8253,-4.8702,-4.8736,-4.8736,-4.8736,-4.8798,-4.8861,-4.8861,-4.894,-4.868,-4.8037,-4.8037,-4.7648,-4.6921,-4.7022,-4.6673,-4.6,-4.5579,-4.538,-4.538,-4.5576,-4.5629,-4.5682,-4.5596,-4.5182,-4.4665,-4.4665,-4.4147,-4.3523,0.0,0.0,0.0,0.0,0.0,0.0,0.0,0.0,0.0,0.0,0.0,0.0,0.0,0.0,0.0,0.0,0.0,0.0,0.0,0.0,0.0,0.0,0.0,0.0,0.0,0.0,0.0,0.0,0.0,0.0,0.0,0.0,0.0,0.0,0.0,0.0,0.0,0.0,0.0,0.0,0.0,0.0,-4.0784,-4.1028,-4.1974,-4.3313,-4.4773,-4.5287,0.0,0.0,-4.6541,-4.6726,-4.7524,-4.803,-4.8176,-4.7436,-4.7552,0.0,-4.6937,-4.6956,0.0,0.0,-4.7472,-4.7848,-4.9452,-4.8803,-4.7974,-4.8302,-4.8389,-4.7988,-4.6837,-4.7115,-4.7329,0.0,-4.6808,-4.6729,-4.5994,-4.5859,-4.5629,-4.5004,-4.5165,-4.4988,-4.4124,-4.5048,-4.6191,-4.7393,-4.7827,-4.8344,-4.8968,-4.9001,-4.8798,-4.8392,-4.8376,-4.8156,-4.7716,-4.7716,-4.7564,-4.7259,-4.7259,-4.687,-4.616,-4.6218,-4.5909,-4.5384,-4.5277,-4.523,-4.53,-4.5371,-4.5165,-4.4751,-4.4751,-4.4009,-4.3061,-4.3958,-4.3709,-4.3057,0.0,0.0,0.0,0.0,0.0,0.0,0.0,0.0,0.0,0.0,0.0,0.0,0.0,0.0,0.0,0.0,0.0,0.0,0.0,0.0,0.0,0.0,0.0,0.0,0.0,0.0,0.0,0.0,0.0,0.0,0.0,0.0,0.0,0.0,0.0,0.0,0.0,0.0,0.0,0.0,0.0,0.0,-4.1399,-4.1303,-4.1838,-4.2851,-4.4041,-4.4362,0.0,0.0,-4.507,-4.5206,-4.5761,-4.6124,-4.6332,-4.6341,-4.6628,-4.6953,-4.6985,0.0,0.0,-4.6906,-4.7547,-4.8353,-4.8401,-4.8182,-4.8125,-4.8698,-4.8617,-4.8261,-4.77,-4.8108,-4.8216,-4.7108,-4.7473,-4.7554,-4.674,-4.6435,-4.6344,-4.6344,-4.6632,-4.6215,-4.4582,-4.5734,-4.6794,-4.7316,-4.7894,-4.8404,-4.8968,-4.9001,-4.8663,-4.7936,-4.7919,-4.7564,-4.6802,-4.6786,-4.6684,-4.6498,-4.6498,-4.5991,-4.5117,-4.497,-4.4903,-4.4832,-4.4938,-4.5111,-4.5406,-4.5199,-4.4906,-4.4544,-4.4147,-4.3285,-4.2423,-4.332,-4.3145,-4.2509,0.0,0.0,0.0,0.0,0.0,0.0,0.0,0.0,0.0,0.0,0.0,0.0,0.0,0.0,0.0,0.0,0.0,0.0,0.0,0.0,0.0,0.0,0.0,0.0,0.0,0.0,0.0,0.0,0.0,0.0,0.0,0.0,0.0,0.0,0.0,0.0,0.0,0.0,0.0,0.0,0.0,0.0,-4.1201,-4.114,-4.1635,-4.2536,-4.3559,0.0,0.0,0.0,-4.2833,-4.2908,-4.2996,-4.366,0.0,-4.4465,-4.5214,0.0,0.0,0.0,-4.6326,-4.6926,-4.7014,-4.7259,-4.8424,-4.7979,-4.7681,-4.9002,-4.864,-4.8096,-4.8096,-4.869,-4.881,-4.776,-4.8069,-4.8163,-4.7204,-4.6571,-4.6224,-4.6308,-4.617,-4.6385,0.0,-4.7436,-4.7825,-4.8292,-4.8377,-4.8584,-4.8968,-4.9001,-4.8663,-4.7936,-4.7919,-4.7564,-4.6802,-4.6786,-4.643,-4.5737,-4.5737,-4.4998,-4.3654,-4.3185,-4.346,-4.4302,-4.432,-4.4734,-4.5354,-4.463,-4.4734,-4.5234,-4.3768,-4.3214,-4.3093,-4.2319,-4.1858,-4.1683,0.0,0.0,0.0,0.0,0.0,0.0,0.0,0.0,0.0,0.0,0.0,0.0,0.0,0.0,0.0,0.0,0.0,0.0,0.0,0.0,0.0,0.0,0.0,0.0,0.0,0.0,0.0,0.0,0.0,0.0,0.0,0.0,0.0,0.0,0.0,0.0,0.0,0.0,0.0,0.0,0.0,0.0,-4.22,-4.1483,-4.1547,-4.1905,0.0,0.0,0.0,0.0,0.0,0.0,-4.2748,0.0,0.0,-4.2811,-4.4015,-4.5289,0.0,0.0,-4.6141,-4.6853,-4.6497,-4.6358,-4.7843,-4.7487,-4.7114,-4.8093,-4.8087,-4.7776,-4.7371,-4.7939,-4.8189,-4.7388,-4.7642,-4.7809,-4.7492,-4.7432,-4.7205,-4.6748,-4.7709,0.0,0.0,0.0,0.0,-4.8384,-4.7899,-4.7775,-4.824,-4.7817,-4.7192,-4.6464,-4.6447,-4.6092,-4.5331,-4.5331,-4.4942,-4.4181,-4.3745,-4.3345,-4.2889,-4.2877,-4.3099,-4.3425,-4.4044,-4.4147,-4.3958,-4.4182,-4.382,-4.3095,-4.2595,-4.2078,-4.166,-4.1679,-4.1583,-4.1604,0.0,0.0,0.0,0.0,0.0,0.0,0.0,0.0,0.0,0.0,0.0,0.0,0.0,0.0,0.0,0.0,0.0,0.0,0.0,0.0,0.0,0.0,0.0,0.0,0.0,0.0,0.0,0.0,0.0,0.0,0.0,0.0,0.0,0.0,0.0,0.0,0.0,0.0,0.0,0.0,0.0,0.0,-4.2861,-4.2541,-4.2251,0.0,0.0,0.0,0.0,0.0,0.0,0.0,0.0,0.0,-4.1827,-4.2059,-4.3194,-4.4371,-4.4392,-4.4713,-4.5133,-4.551,-4.5098,-4.486,-4.5859,-4.5856,-4.5912,-4.6729,-4.6816,-4.6735,-4.6644,-4.7038,-4.7178,-4.6431,-4.6848,-4.7293,-4.7452,-4.7205,-4.7275,-4.7802,-4.8434,0.0,0.0,0.0,0.0,-4.8677,-4.7936,-4.7597,-4.7902,-4.7192,-4.6464,-4.572,-4.5703,-4.5348,-4.4587,-4.4587,-4.4236,-4.3457,-4.26,-4.2227,-4.2262,-4.2191,-4.2309,-4.2634,-4.3233,-4.3354,-4.3232,-4.3371,-4.3044,-4.2354,-4.1802,-4.1457,-4.1281,-4.1313,-4.1356,-4.1561,0.0,0.0,0.0,0.0,0.0,0.0,0.0,0.0,0.0,0.0,0.0,0.0,0.0,0.0,0.0,0.0,0.0,0.0,0.0,0.0,0.0,0.0,0.0,0.0,0.0,0.0,0.0,0.0,0.0,0.0,0.0,0.0,0.0,0.0,0.0,0.0,0.0,0.0,0.0,0.0,0.0,0.0,-4.3166,-4.4026,0.0,0.0,0.0,0.0,0.0,0.0,0.0,0.0,0.0,0.0,-4.1881,-4.2065,-4.268,-4.3342,-4.3402,-4.3455,-4.3419,-4.3165,-4.3013,-4.2909,-4.2852,-4.3406,-4.4168,-4.5065,-4.5065,-4.5109,0.0,0.0,-4.5908,-4.5078,-4.5883,-4.6717,-4.7104,-4.6211,-4.6464,0.0,0.0,0.0,0.0,0.0,0.0,-4.911,0.0,-4.7997,-4.7868,-4.7107,-4.6363,-4.5669,-4.5602,-4.5263,-4.4643,-4.4558,-4.4173,-4.3484,-4.2194,-4.1612,-4.1727,-4.1168,-4.1267,-4.194,-4.1974,-4.2388,-4.3059,-4.2285,-4.2406,-4.2955,-4.1457,-4.1319,-4.1836,-4.1147,-4.1117,-4.1516,0.0,0.0,0.0,0.0,0.0,0.0,0.0,0.0,0.0,0.0,0.0,0.0,0.0,0.0,0.0,0.0,0.0,0.0,0.0,0.0,0.0,0.0,0.0,0.0,0.0,0.0,0.0,0.0,0.0,0.0,0.0,0.0,0.0,0.0,0.0,0.0,0.0,0.0,0.0,0.0,0.0,0.0,-4.4237,0.0,0.0,0.0,0.0,0.0,0.0,0.0,0.0,0.0,0.0,-4.0337,-4.103,-4.108,-4.165,-4.2291,-4.2299,-4.2705,-4.3101,-4.3054,-4.2477,-4.2201,-4.318,-4.3054,-4.3103,-4.4442,-4.4669,-4.4549,0.0,0.0,0.0,-4.5293,-4.6127,0.0,-4.6699,-4.6649,0.0,0.0,0.0,-4.7312,-4.6897,-4.7809,0.0,0.0,-4.7335,-4.7233,-4.7073,-4.5855,-4.506,-4.4874,-4.441,-4.433,-4.472,-4.3707,-4.2824,-4.2125,-4.1336,-4.094,-4.0971,-4.0927,-4.0991,-4.1198,-4.175,-4.1785,-4.1492,-4.1836,-4.1785,-4.1423,-4.1026,-4.0991,-4.1147,-4.0957,-4.0965,-4.1088,0.0,0.0,0.0,0.0,0.0,0.0,0.0,0.0,0.0,0.0,0.0,0.0,0.0,0.0,0.0,0.0,0.0,0.0,0.0,0.0,0.0,0.0,0.0,0.0,0.0,0.0,0.0,0.0,0.0,0.0,0.0,0.0,0.0,0.0,0.0,0.0,0.0,0.0,0.0,0.0,0.0,0.0,0.0,0.0,0.0,0.0,0.0,0.0,0.0,0.0,0.0,-4.0727,-4.0151,-4.0207,-4.0457,-4.0377,0.0,-4.0866,-4.0818,-4.113,-4.1456,-4.1399,-4.1277,-4.1301,-4.1599,-4.2109,-4.2641,-4.3043,-4.3295,0.0,0.0,0.0,0.0,0.0,0.0,0.0,-4.6835,-4.6648,-4.643,0.0,-4.685,0.0,-4.6442,-4.708,-4.7344,0.0,-4.6844,-4.6767,-4.6329,-4.5213,-4.4587,-4.4587,-4.4313,-4.4235,-4.4392,-4.3268,-4.2347,-4.1696,-4.1008,-4.0745,-4.0793,-4.0888,-4.0888,-4.0905,0.0,-4.1267,-4.0905,-4.1336,-4.125,-4.0888,-4.0888,-4.0888,-4.0888,-4.0888,-4.0888,-4.0888,0.0,0.0,0.0,0.0,0.0,0.0,0.0,0.0,0.0,0.0,0.0,0.0,0.0,0.0,0.0,0.0,0.0,0.0,0.0,0.0,0.0,0.0,0.0,0.0,0.0,0.0,0.0,0.0,0.0,0.0,0.0,0.0,0.0,0.0,0.0,0.0,0.0,0.0,0.0,0.0,0.0,0.0,0.0,0.0,0.0,0.0,0.0,0.0,0.0,0.0,-4.0983,-4.098,-4.0477,-4.0167,-3.9972,-3.9747,-3.9539,-3.9376,-3.9255,-3.9255,-3.9312,-3.9331,-3.9967,-4.036,-3.9564,-4.1101,-4.2467,-4.1642,0.0,-4.242,-4.31,0.0,-4.4568,-4.4952,0.0,-4.6795,-4.7345,-4.6687,-4.643,-4.7202,-4.7039,-4.6816,-4.6714,-4.6641,-4.6599,-4.6364,-4.6364,-4.6094,-4.5452,-4.4811,-4.4406,-4.4305,-4.4558,-4.4368,-4.3731,-4.2943,-4.233,-4.1845,-4.0991,-4.0796,-4.1026,-4.0922,-4.094,-4.1026,0.0,0.0,-4.0888,-4.0888,-4.0888,-4.0888,-4.0888,-4.0888,-4.0888,-4.0888,-4.0888,-4.0871,0.0,0.0,0.0,0.0,0.0,0.0,0.0,0.0,0.0,0.0,-3.8556,0.0,0.0,0.0,0.0,0.0,0.0,0.0,0.0,0.0,0.0,0.0,0.0,0.0,0.0,0.0,0.0,0.0,0.0,0.0,0.0,0.0,0.0,0.0,0.0,0.0,0.0,0.0,0.0,0.0,0.0,0.0,0.0,0.0,0.0,0.0,0.0,0.0,0.0,0.0,-4.1702,-4.1036,-3.9329,-3.8907,-3.8961,-3.8682,-3.8433,-3.8269,-3.8242,-3.8327,-3.8571,-3.9203,-3.9656,-4.0048,-4.0308,-4.1332,0.0,0.0,0.0,-4.2832,-4.281,-4.3451,0.0,-4.5462,0.0,0.0,0.0,0.0,-4.7168,0.0,0.0,0.0,0.0,0.0,0.0,0.0,0.0,-4.4114,-4.3981,-4.3789,-4.3381,-4.2642,-4.3515,-4.3597,-4.2736,-4.2213,-4.1968,-4.1926,-4.0893,-4.0859,-4.1767,-4.1164,-4.1216,-4.1767,-4.1147,0.0,-4.0888,-4.0888,-4.0888,-4.0888,-4.0888,-4.0888,-4.0888,-4.0888,-4.0888,-4.0918,0.0,0.0,0.0,0.0,0.0,0.0,0.0,0.0,0.0,0.0,-3.9694,-3.9638,0.0,0.0,0.0,0.0,0.0,0.0,0.0,0.0,0.0,0.0,0.0,0.0,0.0,0.0,0.0,0.0,0.0,0.0,0.0,0.0,0.0,0.0,0.0,0.0,0.0,0.0,0.0,0.0,0.0,0.0,0.0,0.0,0.0,0.0,0.0,0.0,0.0,0.0,-4.1582,-4.1004,-3.9621,-3.909,-3.8919,-3.8492,-3.822,-3.8169,-3.8581,-3.8384,-3.8241,-3.9084,-3.9606,-3.9854,-3.9679,0.0,0.0,0.0,0.0,-4.2631,-4.2494,0.0,0.0,0.0,0.0,0.0,0.0,0.0,0.0,0.0,0.0,0.0,0.0,0.0,0.0,0.0,0.0,-4.3031,-4.3031,-4.3169,-4.3218,-4.3006,-4.3514,-4.3287,-4.2179,-4.1913,-4.1572,-4.1114,-4.0949,-4.1254,-4.1992,-4.2043,-4.2043,-4.1974,-4.1612,0.0,-4.0888,-4.0888,-4.0888,-4.0888,-4.0888,-4.0888,-4.0888,-4.0888,-4.0965,-4.1088,0.0,0.0,0.0,0.0,0.0,0.0,0.0,-3.9023,-3.9802,-4.0944,-4.1178,-4.1286,-4.1522,-4.123,-4.0996,0.0,0.0,0.0,0.0,0.0,0.0,0.0,0.0,0.0,0.0,0.0,0.0,0.0,0.0,0.0,0.0,0.0,0.0,0.0,0.0,0.0,0.0,0.0,0.0,0.0,0.0,0.0,0.0,0.0,0.0,0.0,0.0,0.0,0.0,0.0,-4.1211,-4.0712,-3.9829,-3.9291,-3.885,-3.8108,-3.7965,-3.8136,-3.8729,-3.839,-3.8051,-3.8928,-3.9556,-3.9809,-3.912,-4.0481,0.0,0.0,-4.1469,-4.2287,-4.2287,0.0,0.0,0.0,0.0,0.0,0.0,0.0,0.0,0.0,0.0,0.0,0.0,0.0,0.0,0.0,0.0,0.0,-4.2411,-4.2418,-4.2708,-4.3383,-4.337,-4.2841,-4.1944,-4.1516,-4.107,-4.0543,-4.107,-4.163,-4.2268,-4.2888,-4.2837,-4.2233,-4.2061,0.0,0.0,-4.0888,-4.0888,-4.0888,-4.0888,-4.0918,-4.0965,-4.0965,-4.1088,-4.13,0.0,0.0,0.0,0.0,0.0,0.0,0.0,-3.9434,-4.0322,-4.2667,-4.2959,-4.3287,-4.4145,-4.2955,-4.237,0.0,0.0,0.0,0.0,0.0,0.0,0.0,0.0,0.0,0.0,0.0,0.0,0.0,0.0,0.0,0.0,0.0,0.0,0.0,0.0,0.0,0.0,0.0,0.0,0.0,0.0,0.0,0.0,0.0,0.0,0.0,0.0,0.0,0.0,0.0,0.0,-3.9809,-3.8684,-3.8353,-3.8098,-3.6717,0.0,0.0,-3.7515,-3.7595,-3.7858,-3.8713,-3.9485,-3.9991,-3.9894,0.0,0.0,-4.1212,-4.1693,-4.2287,-4.2287,-4.2412,0.0,0.0,0.0,0.0,0.0,0.0,0.0,0.0,0.0,0.0,0.0,0.0,0.0,0.0,0.0,0.0,-4.2093,-4.094,-4.0906,-4.219,-4.194,-4.1961,-4.2228,-4.054,-4.0255,-4.1291,-4.098,-4.1629,-4.3111,-4.3197,-4.318,-4.3076,-4.2302,0.0,0.0,-4.0888,-4.0888,-4.0888,-4.0888,-4.0995,-4.1163,-4.1163,-4.1363,-4.1604,0.0,0.0,0.0,0.0,0.0,0.0,0.0,-3.8885,-3.9985,-4.2176,-4.2976,-4.3816,-4.5187,-4.4362,-4.3541,0.0,0.0,0.0,0.0,0.0,0.0,0.0,0.0,0.0,0.0,0.0,0.0,0.0,0.0,0.0,0.0,0.0,0.0,0.0,0.0,0.0,0.0,0.0,0.0,0.0,0.0,0.0,0.0,0.0,0.0,0.0,0.0,0.0,0.0,0.0,0.0,0.0,-3.8488,-3.8505,0.0,0.0,-3.727,-3.8019,-3.8622,-3.8354,-3.8253,-3.9697,-3.9952,-4.001,-4.0519,0.0,0.0,-4.1407,-4.1831,-4.2246,-4.2103,-4.2061,-4.2068,0.0,0.0,0.0,0.0,0.0,0.0,0.0,0.0,0.0,0.0,0.0,0.0,0.0,0.0,0.0,-4.2701,-4.1805,-4.1405,-4.18,-4.1649,-4.1281,-4.0613,-4.0274,-4.0426,-4.103,-4.1762,-4.2712,-4.3905,-4.432,-4.4268,-4.3802,-4.3026,0.0,0.0,-4.1232,-4.1088,-4.1088,-4.1244,-4.1363,-4.1453,-4.1453,-4.1587,-4.1805,0.0,0.0,0.0,0.0,0.0,0.0,-3.8062,-3.8742,-3.9984,-4.2172,-4.301,-4.4034,-4.5645,-4.515,-4.4363,-4.3524,0.0,0.0,0.0,0.0,0.0,0.0,0.0,0.0,0.0,0.0,0.0,0.0,0.0,0.0,0.0,0.0,0.0,0.0,0.0,0.0,0.0,0.0,0.0,0.0,0.0,0.0,0.0,0.0,0.0,0.0,0.0,0.0,0.0,0.0,0.0,0.0,0.0,0.0,0.0,0.0,-3.788,-3.8626,-3.9584,-3.9242,-3.9036,-4.0567,-4.0551,-4.0374,0.0,0.0,-4.1472,-4.1472,-4.1856,-4.2103,-4.1917,-4.1666,-4.1258,0.0,0.0,0.0,0.0,0.0,0.0,0.0,0.0,0.0,0.0,0.0,0.0,0.0,0.0,0.0,0.0,-4.2719,-4.2365,-4.1905,-4.1468,-4.0788,-3.9784,-4.0059,-4.0476,-4.1121,-4.2395,-4.344,-4.4302,-4.5079,-4.4889,-4.3991,0.0,0.0,0.0,-4.1603,-4.1418,-4.1255,-4.1498,-4.1648,-4.1675,-4.1675,-4.1849,-4.2019,0.0,0.0,0.0,0.0,0.0,0.0,0.0,-3.9331,-4.0529,-4.3149,-4.3479,-4.4103,-4.5718,-4.5186,-4.4709,-4.469,0.0,0.0,0.0,0.0,0.0,0.0,0.0,0.0,0.0,0.0,0.0,-4.1976,-4.0406,0.0,0.0,0.0,0.0,0.0,0.0,0.0,0.0,0.0,0.0,0.0,0.0,0.0,0.0,0.0,0.0,0.0,0.0,0.0,0.0,0.0,0.0,0.0,0.0,0.0,0.0,0.0,-3.8248,-3.9007,-3.9857,-4.011,-4.0275,-4.1153,-4.1268,-4.1067,0.0,0.0,-4.1472,-4.1472,-4.1727,-4.1917,-4.1874,-4.1168,-4.0394,-4.015,0.0,0.0,0.0,0.0,0.0,0.0,0.0,0.0,0.0,0.0,0.0,0.0,0.0,0.0,0.0,-4.3314,-4.3362,-4.2587,-4.1241,-4.0496,-4.048,-3.9833,-4.0246,-4.1787,-4.2629,-4.344,-4.4302,-4.5079,-4.4613,0.0,0.0,0.0,0.0,-4.1985,-4.1922,-4.1255,-4.1498,-4.1719,-4.1892,-4.1892,-4.2061,-4.2287,0.0,0.0,0.0,0.0,0.0,0.0,0.0,-3.7899,-3.8852,-4.1353,-4.2134,-4.3103,-4.4711,-4.4657,-4.451,-4.451,0.0,0.0,0.0,0.0,0.0,0.0,0.0,0.0,0.0,0.0,-4.1738,-4.2011,-4.1482,-4.1192,-4.1086,-4.0489,0.0,0.0,0.0,0.0,0.0,0.0,0.0,0.0,0.0,0.0,0.0,0.0,0.0,0.0,0.0,0.0,0.0,0.0,0.0,0.0,0.0,0.0,0.0,0.0,0.0,0.0,-3.9249,-3.9369,-3.955,-4.0459,-4.0531,-4.0493,-4.0966,-4.1045,-4.099,-4.0908,-4.0955,-4.0926,-4.0625,-4.0184,-3.9627,-3.9079,0.0,0.0,0.0,0.0,0.0,0.0,0.0,0.0,0.0,0.0,0.0,0.0,0.0,0.0,0.0,-4.3848,-4.3152,-4.1938,-4.1468,-4.0998,-4.0496,-4.0772,-4.1357,-4.2154,-4.3213,-4.4018,-4.4585,-4.5144,0.0,0.0,0.0,0.0,0.0,-4.2033,-4.1681,-4.1498,-4.1934,-4.2121,-4.2187,-4.2187,-4.2246,-4.2287,0.0,0.0,0.0,0.0,0.0,0.0,0.0,-3.7038,-3.7929,-4.0274,-4.0998,-4.2123,-4.4236,-4.42,-4.4145,-4.4474,0.0,0.0,0.0,0.0,0.0,0.0,0.0,0.0,0.0,-4.2303,-4.2303,-4.1976,-4.1796,-4.1379,-4.0706,-4.0462,-4.0175,-3.9896,0.0,0.0,0.0,0.0,0.0,0.0,0.0,0.0,-3.9677,0.0,0.0,0.0,0.0,0.0,0.0,0.0,0.0,0.0,0.0,0.0,0.0,0.0,-3.8805,0.0,0.0,-3.9325,-3.9561,-4.043,-4.0346,0.0,0.0,-4.0544,-4.04,-4.0235,-4.0285,-4.0302,-4.0053,-3.9301,-3.8688,-3.8508,0.0,0.0,0.0,0.0,0.0,0.0,0.0,0.0,0.0,0.0,0.0,0.0,0.0,0.0,0.0,-4.4366,-4.3589,-4.2423,-4.1857,-4.1355,-4.0901,-4.1338,-4.1938,-4.268,-4.3405,-4.4071,-4.4691,-4.4724,0.0,0.0,0.0,0.0,0.0,-4.2201,-4.1868,-4.1648,-4.2121,-4.2287,-4.2287,-4.2287,-4.2287,-4.2287,0.0,0.0,0.0,0.0,0.0,0.0,0.0,0.0,0.0,0.0,-4.0182,-4.1306,-4.4181,-4.3852,-4.3722,0.0,0.0,0.0,0.0,0.0,0.0,0.0,0.0,0.0,0.0,-4.2759,-4.2741,-4.1851,-4.1369,-4.102,-4.076,-4.0262,-4.0147,-4.03,-3.96,0.0,0.0,0.0,0.0,0.0,0.0,0.0,0.0,0.0,0.0,0.0,0.0,0.0,0.0,0.0,0.0,0.0,0.0,0.0,0.0,0.0,0.0,0.0,0.0,0.0,0.0,0.0,0.0,0.0,0.0,-3.9794,0.0,-3.9558,-3.9747,-3.9986,-3.9918,-3.8606,-3.7789,-3.8365,0.0,0.0,0.0,0.0,0.0,0.0,0.0,0.0,0.0,0.0,0.0,0.0,0.0,0.0,0.0,-4.482,-4.448,-4.38,-4.2391,-4.1646,-4.1646,-4.1646,-4.2199,-4.3246,-4.3306,-4.3764,-4.4618,-4.4011,0.0,0.0,0.0,0.0,0.0,-4.2463,-4.2236,-4.1692,-4.2121,-4.2287,-4.2287,-4.2287,-4.2287,-4.2287,0.0,0.0,0.0,0.0,0.0,0.0,0.0,0.0,0.0,0.0,-4.007,-4.0959,-4.3214,-4.3342,-4.3324,0.0,0.0,0.0,0.0,0.0,0.0,0.0,0.0,0.0,0.0,-4.2772,-4.2273,-4.1369,-4.09,-4.051,-4.0262,-3.9554,-3.9367,-3.9478,-3.9257,0.0,0.0,0.0,0.0,0.0,0.0,0.0,0.0,0.0,0.0,0.0,-3.9148,-3.8805,0.0,0.0,0.0,0.0,0.0,0.0,0.0,0.0,-3.8504,-3.8537,-3.8715,0.0,-3.91,-3.9263,-3.9182,0.0,0.0,0.0,0.0,0.0,0.0,0.0,0.0,0.0,0.0,0.0,0.0,0.0,0.0,0.0,0.0,0.0,0.0,0.0,0.0,0.0,0.0,0.0,0.0,0.0,0.0,-4.5079,-4.4706,-4.4544,-4.3136,-4.2375,-4.2375,-4.2375,-4.2518,-4.2805,-4.3141,-4.3604,-4.4186,-4.4355,0.0,0.0,0.0,0.0,-4.3062,-4.2205,-4.1851,-4.1849,-4.2205,-4.2287,-4.2287,-4.2287,-4.2287,-4.2287,0.0,0.0,0.0,0.0,0.0,0.0,0.0,0.0,0.0,0.0,0.0,0.0,0.0,0.0,0.0,0.0,0.0,0.0,0.0,0.0,0.0,0.0,0.0,0.0,-4.2957,-4.2613,-4.1922,-4.0998,-4.0491,-3.9899,-3.923,-3.8622,-3.836,-3.8388,-3.8603,0.0,0.0,0.0,0.0,0.0,-3.9272,0.0,0.0,0.0,0.0,0.0,-3.8623,-3.8214,0.0,-3.8173,-3.8059,-3.7759,0.0,0.0,0.0,0.0,-3.8638,-3.8398,-3.8011,-3.8499,-3.9088,-3.9088,-3.9161,-3.9217,0.0,0.0,0.0,0.0,0.0,0.0,0.0,0.0,0.0,0.0,0.0,0.0,0.0,0.0,0.0,0.0,0.0,0.0,0.0,0.0,0.0,0.0,0.0,0.0,0.0,-4.516,-4.4642,-4.4318,-4.3217,-4.2634,-4.2634,-4.2634,-4.2634,-4.2634,-4.308,-4.3545,-4.4013,-4.413,-4.4636,0.0,0.0,0.0,-4.3402,-4.2146,-4.1719,-4.1934,-4.2205,-4.2287,-4.2287,-4.2287,-4.2287,-4.2287,0.0,0.0,0.0,0.0,0.0,0.0,0.0,0.0,0.0,0.0,0.0,0.0,0.0,0.0,0.0,0.0,0.0,0.0,0.0,0.0,0.0,0.0,0.0,-4.2673,-4.2616,-4.2239,-4.1629,-4.0747,-4.0233,-3.9446,-3.8314,-3.7914,-3.7547,-3.7392,-3.7927,-3.8222,0.0,0.0,0.0,0.0,-3.9202,0.0,0.0,0.0,0.0,0.0,0.0,0.0,0.0,-3.8132,-3.8139,-3.7907,-3.8846,0.0,0.0,0.0,0.0,0.0,-3.7697,-3.8479,-3.9489,-3.9376,-3.9534,-3.9682,0.0,0.0,0.0,0.0,0.0,0.0,0.0,0.0,0.0,0.0,0.0,0.0,0.0,0.0,0.0,0.0,0.0,0.0,0.0,0.0,0.0,0.0,0.0,0.0,0.0,-4.5063,-4.435,-4.3735,-4.2909,-4.2472,-4.2472,-4.2472,-4.2407,-4.2294,-4.2692,-4.3155,-4.3662,-4.3449,-4.3951,0.0,0.0,0.0,-4.3276,-4.2139,-4.1762,-4.1959,-4.2205,-4.2287,-4.2287,-4.2287,-4.2287,-4.2287,0.0,0.0,0.0,0.0,0.0,0.0,0.0,0.0,0.0,0.0,0.0,0.0,0.0,0.0,0.0,0.0,0.0,0.0,0.0,0.0,0.0,0.0,0.0,-4.2577,-4.2279,-4.1717,-4.1233,-4.0868,-4.0323,-3.9732,-3.9032,-3.8481,-3.7849,-3.7151,-3.7427,-3.7822,-3.8334,-3.9023,-3.9272,-3.9272,-3.8645,0.0,0.0,0.0,0.0,0.0,0.0,0.0,0.0,-3.7546,-3.8402,-3.9027,-3.8046,0.0,0.0,0.0,0.0,0.0,-3.8058,-3.8793,-3.9356,-3.8801,-3.9092,-3.968,0.0,0.0,0.0,0.0,0.0,0.0,0.0,0.0,0.0,0.0,0.0,0.0,0.0,0.0,0.0,0.0,0.0,0.0,0.0,0.0,0.0,0.0,0.0,0.0,0.0,-4.4577,-4.3832,-4.3719,-4.2423,-4.1727,-4.1727,-4.1727,-4.1419,-4.082,-4.088,-4.1362,-4.2138,-4.2076,-4.2596,0.0,0.0,-4.2538,-4.2787,-4.2115,-4.2019,-4.2246,-4.2287,-4.2287,-4.2287,-4.2287,-4.2287,-4.2287,0.0,0.0,0.0,0.0,0.0,0.0,0.0,0.0,0.0,0.0,0.0,0.0,0.0,0.0,0.0,0.0,0.0,0.0,0.0,0.0,0.0,0.0,-4.1913,-4.1785,-4.1717,-4.1111,-4.0659,-4.0449,-3.9631,-3.903,-3.8707,-3.7946,-3.7452,-3.7157,-3.807,-3.8631,-3.8934,-3.9616,-3.96,-3.9145,0.0,0.0,0.0,0.0,0.0,0.0,0.0,0.0,0.0,0.0,-3.7859,-3.828,-3.7651,0.0,0.0,0.0,0.0,0.0,-3.6761,-3.7567,-3.8419,-3.8481,-3.9606,-4.0691,0.0,0.0,0.0,0.0,0.0,0.0,0.0,0.0,0.0,0.0,0.0,0.0,0.0,0.0,0.0,0.0,0.0,0.0,0.0,0.0,0.0,0.0,0.0,0.0,0.0,0.0,-4.2958,-4.2569,-4.1533,-4.0804,-4.0448,-4.0448,-4.0567,-4.0818,-4.1091,-4.1544,-4.2216,-4.2551,-4.2927,-4.3343,0.0,-4.27,-4.2873,-4.2167,-4.2061,-4.2287,-4.2287,-4.2287,-4.2287,-4.2287,-4.2287,-4.2287,0.0,0.0,0.0,0.0,0.0,0.0,0.0,0.0,0.0,0.0,0.0,0.0,0.0,0.0,0.0,0.0,0.0,0.0,0.0,0.0,-4.185,-4.1258,-4.1204,-4.1145,-4.1065,-4.0549,-4.0188,-4.0037,-3.9122,-3.8618,-3.8418,-3.761,-3.7246,-3.7322,-3.8579,-3.9201,-3.9379,-3.987,-3.9667,-3.9023,0.0,0.0,0.0,0.0,0.0,0.0,0.0,0.0,0.0,0.0,0.0,0.0,0.0,0.0,0.0,-3.7045,-3.6588,-3.6164,-3.5933,-3.6655,-3.7664,-3.8505,0.0,0.0,0.0,0.0,0.0,0.0,0.0,0.0,0.0,0.0,0.0,0.0,0.0,0.0,0.0,0.0,0.0,0.0,0.0,0.0,0.0,0.0,0.0,0.0,0.0,0.0,0.0,0.0,-4.2132,-4.1598,-4.0707,-4.0011,-3.9493,-3.9414,-3.9805,-4.0597,-4.0973,-4.1463,-4.2074,-4.2578,-4.2919,-4.3044,-4.2665,-4.2644,-4.2776,-4.2225,-4.2103,-4.2287,-4.2287,-4.2287,-4.2287,-4.2287,-4.2287,-4.2287,0.0,0.0,0.0,0.0,0.0,0.0,0.0,0.0,0.0,0.0,0.0,0.0,0.0,0.0,0.0,0.0,0.0,0.0,0.0,0.0,-4.1952,-4.1157,-4.128,-4.1086,-4.0404,-4.0188,-3.9986,-3.9729,-3.9522,-3.9177,-3.8762,-3.806,-3.7764,-3.7748,-3.8158,-3.8691,-3.9237,-3.9114,-3.9055,-3.8818,-3.748,0.0,0.0,0.0,0.0,0.0,0.0,0.0,0.0,0.0,0.0,0.0,0.0,0.0,-3.718,-3.5908,-3.5525,-3.5751,-3.6862,-3.7319,-3.7791,-3.9015,0.0,0.0,0.0,0.0,0.0,0.0,0.0,0.0,0.0,0.0,0.0,0.0,0.0,0.0,0.0,0.0,0.0,0.0,0.0,0.0,0.0,0.0,0.0,0.0,0.0,0.0,0.0,0.0,0.0,-4.1565,-4.0254,-3.9525,-3.9476,-3.9175,-3.9068,-3.9171,-3.9171,-3.9709,-4.0748,-4.0796,-4.1163,-4.1762,-4.1911,-4.1962,-4.2005,-4.2181,-4.2287,-4.2287,-4.2287,-4.2287,-4.2287,-4.2287,-4.2287,-4.2287,0.0,0.0,0.0,0.0,0.0,0.0,0.0,0.0,0.0,0.0,0.0,0.0,0.0,0.0,0.0,0.0,0.0,0.0,0.0,0.0,-4.0906,-4.0597,-4.0593,-4.0358,-3.9952,-3.9884,-3.9781,-3.959,-3.9232,-3.9145,-3.9354,-3.8691,-3.8653,-3.913,-3.9349,-3.9495,-3.961,-3.9594,-3.9203,-3.865,-3.7643,-3.6971,0.0,0.0,0.0,0.0,0.0,0.0,0.0,0.0,-3.5759,0.0,0.0,0.0,-3.5395,-3.4903,-3.5087,-3.5518,-3.6007,-3.7016,-3.8237,-3.9204,0.0,0.0,0.0,0.0,0.0,0.0,0.0,0.0,0.0,0.0,0.0,0.0,0.0,0.0,0.0,0.0,0.0,0.0,0.0,0.0,0.0,0.0,0.0,0.0,0.0,0.0,0.0,0.0,0.0,-4.0286,-3.9585,-3.9175,-3.9175,-3.9301,-3.961,-4.0003,-4.0003,-4.0351,-4.099,-4.1265,-4.1552,-4.1805,-4.2061,-4.2145,-4.2163,-4.2246,-4.2287,-4.2287,-4.2287,-4.2287,-4.2287,-4.2287,-4.2287,-4.2328,0.0,0.0,0.0,0.0,0.0,0.0,0.0,0.0,0.0,0.0,0.0,0.0,0.0,0.0,0.0,0.0,0.0,0.0,0.0,0.0,-4.0493,-4.0255,-4.0307,-4.0171,-3.9729,-3.9677,-3.959,-3.9448,-3.904,-3.9051,-3.9486,-3.928,-3.9282,-3.9568,-3.9699,-3.965,-3.9454,-3.9046,-3.8534,-3.7895,-3.7381,-3.6704,0.0,0.0,0.0,0.0,0.0,0.0,0.0,0.0,0.0,0.0,0.0,0.0,0.0,0.0,-3.5236,-3.5844,-3.628,-3.7489,-3.8821,0.0,0.0,0.0,0.0,0.0,0.0,0.0,0.0,0.0,0.0,0.0,0.0,0.0,0.0,0.0,0.0,0.0,0.0,0.0,0.0,0.0,0.0,0.0,0.0,0.0,0.0,0.0,0.0,0.0,0.0,0.0,-3.9368,-3.9077,-3.9169,-3.9645,-4.0153,-4.0577,-4.0879,-4.1157,-4.1436,-4.1744,-4.1934,-4.2019,-4.2246,-4.2287,-4.2287,-4.2287,-4.2287,-4.2287,-4.2287,-4.2287,-4.2287,-4.2287,-4.2287,-4.2328,0.0,0.0,0.0,0.0,0.0,0.0,0.0,0.0,0.0,0.0,0.0,0.0,0.0,0.0,0.0,0.0,0.0,0.0,0.0,-4.0832,-4.0849,-4.0104,-4.0678,-4.0572,-3.9746,-3.9537,-3.9432,-3.9272,-3.9094,-3.9023,-3.8985,-3.9614,-3.9511,-3.8802,-3.8878,-3.876,-3.8518,-3.7142,-3.6571,-3.6462,-3.6391,-3.5938,-3.5525,0.0,0.0,0.0,0.0,0.0,0.0,0.0,-3.4414,0.0,0.0,0.0,0.0,0.0,-3.5929,-3.6784,-3.8137,-3.9011,0.0,0.0,0.0,0.0,0.0,0.0,0.0,0.0,0.0,0.0,0.0,0.0,0.0,0.0,0.0,0.0,0.0,0.0,0.0,0.0,0.0,0.0,0.0,0.0,0.0,0.0,0.0,0.0,0.0,0.0,0.0,0.0,-3.9709,-3.9222,-3.961,-4.0285,-4.0625,-4.0625,-4.149,-4.1874,-4.1874,-4.1917,-4.2061,-4.2287,-4.2287,-4.2287,-4.2287,-4.2287,-4.2287,-4.2287,-4.2287,-4.2287,-4.2287,-4.2287,-4.2287,-4.2287,0.0,0.0,0.0,0.0,0.0,0.0,0.0,0.0,0.0,0.0,0.0,0.0,0.0,0.0,0.0,0.0,0.0,0.0,0.0,0.0,0.0,-3.9326,0.0,0.0,0.0,0.0,-3.8717,-3.9094,-3.9023,-3.9232,-3.9631,-3.9282,-3.8996,-3.8699,-3.8213,-3.765,-3.7005,-3.6625,-3.6684,-3.7036,-3.6488,-3.6736,-3.7259,0.0,0.0,0.0,0.0,0.0,0.0,0.0,0.0,0.0,0.0,0.0,0.0,0.0,-3.6955,-3.8013,-3.8399,0.0,0.0,0.0,0.0,0.0,0.0,0.0,0.0,0.0,0.0,0.0,0.0,0.0,0.0,0.0,0.0,0.0,0.0,0.0,0.0,0.0,0.0,0.0,0.0,0.0,0.0,0.0,0.0,0.0,0.0,0.0,0.0,0.0,-3.9951,-3.9799,-3.961,-4.0546,-4.11,-4.13,-4.1701,-4.1874,-4.1934,-4.2103,-4.2228,-4.2287,-4.2287,-4.2287,-4.2287,-4.2287,-4.2287,-4.2287,-4.2287,-4.2287,-4.2287,-4.2287,-4.2287,-4.2328,0.0,0.0,0.0,0.0,0.0,0.0,0.0,0.0,0.0,0.0,0.0,0.0,0.0,0.0,0.0,0.0,0.0,0.0,0.0,0.0,0.0,0.0,0.0,0.0,0.0,-3.8727,-3.8451,0.0,0.0,0.0,-3.8653,-3.8705,-3.8529,-3.8231,-3.8012,-3.7352,-3.633,-3.6064,-3.6226,-3.6519,-3.6373,-3.6765,-3.7404,0.0,0.0,0.0,0.0,0.0,0.0,0.0,0.0,0.0,0.0,0.0,0.0,-3.7033,-3.8042,-3.898,-3.9202,0.0,0.0,0.0,0.0,0.0,0.0,0.0,0.0,0.0,0.0,0.0,0.0,0.0,0.0,0.0,0.0,0.0,0.0,0.0,0.0,0.0,0.0,0.0,0.0,0.0,0.0,0.0,0.0,0.0,0.0,0.0,0.0,0.0,-4.0219,-4.0271,-4.0252,-4.1007,-4.1498,-4.1719,-4.1934,-4.2061,-4.2061,-4.2246,-4.2287,-4.2287,-4.2287,-4.2287,-4.2287,-4.2287,-4.2287,-4.2287,-4.2287,-4.2287,-4.2287,-4.2287,-4.2287,-4.2328,0.0,0.0,0.0,0.0,0.0,0.0,0.0,0.0,0.0,0.0,0.0,0.0,0.0,0.0,0.0,0.0,0.0,0.0,0.0,0.0,0.0,0.0,0.0,0.0,0.0,0.0,0.0,0.0,0.0,0.0,0.0,0.0,-3.8045,-3.7316,-3.7928,-3.7449,-3.6098,-3.5517,-3.5314,-3.5415,-3.6054,-3.6301,-3.6388,-3.7056,0.0,0.0,0.0,0.0,0.0,0.0,0.0,0.0,0.0,0.0,0.0,-3.7982,-3.8967,-3.955,0.0,0.0,0.0,0.0,0.0,0.0,0.0,0.0,0.0,0.0,0.0,0.0,0.0,0.0,0.0,0.0,0.0,0.0,0.0,0.0,0.0,0.0,0.0,0.0,0.0,0.0,0.0,0.0,0.0,0.0,0.0,0.0,0.0,0.0,-4.0561,-4.0662,-4.1163,-4.1498,-4.1719,0.0,-4.2145,-4.2287,-4.2287,-4.2287,-4.2287,-4.2287,-4.2287,-4.2287,-4.2287,-4.2287,-4.2251,-4.2198,-4.2251,-4.2251,-4.2198,-4.2251,-4.2287,-4.2287,0.0,0.0,0.0,0.0,0.0,0.0,0.0,0.0,0.0,0.0,0.0,0.0,0.0,0.0,0.0,0.0,0.0,0.0,0.0,0.0,0.0,0.0,0.0,0.0,0.0,0.0,0.0,0.0,0.0,0.0,0.0,0.0,0.0,-3.5863,0.0,-3.6006,-3.4806,-3.4675,-3.4907,-3.5415,-3.6054,-3.6301,-3.6388,-3.7056,-3.6809,0.0,0.0,0.0,0.0,0.0,0.0,0.0,-3.7144,-3.7375,-3.7263,-3.8683,-3.892,0.0,0.0,0.0,0.0,0.0,0.0,0.0,0.0,0.0,0.0,0.0,0.0,0.0,0.0,0.0,0.0,0.0,0.0,0.0,0.0,0.0,0.0,0.0,0.0,0.0,0.0,0.0,0.0,0.0,0.0,0.0,0.0,0.0,0.0,-4.1032,-4.1216,-4.1209,-4.1036,-4.1552,-4.1849,0.0,-4.2145,-4.2287,-4.2287,-4.2287,-4.2287,-4.2287,-4.2287,-4.2287,-4.2287,-4.2287,-4.1912,-4.1413,-4.2037,-4.1895,-4.1431,-4.2055,-4.2287,-4.2287,0.0,0.0,0.0,0.0,0.0,0.0,0.0,0.0,0.0,0.0,0.0,0.0,0.0,0.0,0.0,0.0,0.0,0.0,0.0,0.0,0.0,0.0,0.0,0.0,0.0,0.0,0.0,0.0,0.0,0.0,0.0,0.0,0.0,-3.6335,0.0,-3.6243,-3.5299,-3.4994,-3.5241,-3.5851,-3.617,-3.6504,-3.6823,-3.7172,-3.6707,-3.5807,-3.5473,0.0,0.0,0.0,0.0,0.0,0.0,0.0,-3.7496,-3.8213,-3.8626,-3.8913,0.0,0.0,0.0,0.0,0.0,0.0,0.0,0.0,0.0,0.0,0.0,0.0,0.0,0.0,0.0,0.0,0.0,0.0,0.0,0.0,0.0,0.0,0.0,0.0,0.0,0.0,0.0,0.0,0.0,0.0,0.0,-4.1562,-4.1783,-4.1064,-4.1418,-4.1542,-4.1445,-4.1744,-4.1959,-4.2103,-4.2228,-4.2287,-4.2287,-4.2287,-4.2287,-4.2269,-4.1877,-4.193,-4.2234,-4.1466,-4.1127,-4.1109,-4.1286,-4.1363,-4.1381,-4.1931,-4.2366,-4.2709,0.0,0.0,0.0,0.0,0.0,0.0,0.0,0.0,0.0,0.0,0.0,0.0,0.0,0.0,0.0,0.0,0.0,0.0,0.0,0.0,0.0,0.0,0.0,0.0,0.0,0.0,0.0,0.0,0.0,0.0,0.0,0.0,0.0,-3.7143,0.0,-3.6881,-3.6112,-3.5706,-3.5764,-3.6156,-3.6272,-3.6577,-3.6968,-3.6968,-3.6301,-3.5427,-3.5427,-3.5024,-3.469,-3.5444,0.0,0.0,0.0,0.0,-3.7461,-3.7597,-3.8278,-3.8918,0.0,0.0,0.0,0.0,0.0,0.0,0.0,0.0,0.0,0.0,0.0,0.0,0.0,0.0,0.0,0.0,0.0,0.0,0.0,0.0,0.0,0.0,0.0,0.0,0.0,0.0,0.0,0.0,0.0,0.0,-4.1155,-4.2341,-4.2506,-4.1209,-4.1525,-4.1805,-4.1977,-4.1835,-4.1848,-4.2073,-4.1948,-4.2019,-4.2287,-4.2144,-4.2073,-4.2055,-4.1395,-4.1395,-4.177,-4.0449,-4.0256,-4.0724,-4.0435,-4.0762,-4.1505,-4.1795,-4.2431,-4.316,0.0,0.0,0.0,0.0,0.0,0.0,0.0,0.0,0.0,0.0,0.0,0.0,0.0,0.0,0.0,0.0,0.0,0.0,-3.7445,0.0,0.0,-3.8376,-3.7617,-3.7793,0.0,0.0,0.0,0.0,0.0,0.0,0.0,0.0,0.0,-3.646,0.0,0.0,-3.5517,-3.5981,-3.5909,-3.5546,-3.6083,-3.604,-3.5619,-3.5619,-3.5517,-3.5427,-3.5427,-3.5369,-3.5415,-3.6635,-3.7056,0.0,0.0,0.0,-3.806,-3.8121,-3.7857,0.0,0.0,0.0,0.0,0.0,0.0,0.0,0.0,0.0,0.0,0.0,0.0,0.0,0.0,0.0,0.0,0.0,0.0,0.0,0.0,0.0,0.0,0.0,0.0,0.0,0.0,0.0,0.0,0.0,0.0,0.0,-4.1108,-4.2027,-4.2321,-4.1805,-4.2061,-4.2205,-4.2246,-4.1569,-4.1212,-4.1252,-4.0556,-4.0949,-4.2269,-4.1573,-4.1252,-4.1252,-4.1145,-4.077,-4.0217,-4.0003,-3.9727,-3.9518,-4.0095,-4.0564,-4.0992,-4.1648,-4.2431,-4.3196,0.0,0.0,0.0,0.0,0.0,0.0,0.0,0.0,0.0,0.0,0.0,0.0,0.0,0.0,0.0,-3.6121,-3.6032,-3.6268,-3.6875,-3.6369,-3.6383,-3.7304,-3.7157,-3.7356,-3.8005,0.0,0.0,0.0,0.0,0.0,0.0,-3.771,-3.8028,0.0,0.0,0.0,0.0,0.0,0.0,-3.6446,-3.6344,-3.6141,-3.5851,-3.5503,-3.514,-3.4878,-3.5241,-3.514,-3.5082,-3.6751,-3.7056,-3.691,-3.7839,0.0,0.0,0.0,-3.7492,0.0,0.0,0.0,0.0,0.0,0.0,0.0,0.0,0.0,0.0,0.0,0.0,0.0,0.0,0.0,0.0,0.0,0.0,0.0,0.0,0.0,0.0,0.0,0.0,0.0,0.0,0.0,0.0,0.0,0.0,-4.3197,-4.1568,-4.2467,-4.2579,-4.1481,-4.1141,-4.0967,-4.0967,-4.061,-4.0431,-4.0431,-4.0075,-4.0271,-4.0949,-4.0592,-4.0681,-4.1074,-4.0766,-4.0448,-4.0053,-3.9337,-3.9189,-3.9365,-3.9443,-3.9845,-4.0414,-4.0877,-4.188,-4.2967,0.0,0.0,0.0,0.0,0.0,0.0,0.0,0.0,0.0,0.0,0.0,0.0,0.0,0.0,0.0,0.0,-3.5658,-3.5712,-3.6119,-3.5733,-3.5804,-3.6462,-3.6805,-3.6995,-3.7144,0.0,0.0,0.0,0.0,0.0,-3.7316,-3.7813,-3.8626,0.0,-3.8797,0.0,0.0,0.0,0.0,0.0,-3.633,-3.6069,-3.6011,-3.5546,-3.5067,-3.4762,-3.5561,-3.5444,-3.5198,-3.7128,-3.7462,-3.7099,-3.7433,-3.7955,0.0,0.0,0.0,0.0,0.0,0.0,0.0,0.0,0.0,0.0,0.0,0.0,0.0,0.0,0.0,0.0,0.0,0.0,0.0,0.0,0.0,0.0,0.0,0.0,0.0,0.0,0.0,0.0,0.0,0.0,0.0,0.0,0.0,-4.3763,-4.2083,-4.2774,-4.2555,-4.1145,-4.0324,-3.9914,-3.9914,-3.9718,-3.9629,-3.9629,-3.9414,-3.9521,-3.9896,-3.9718,-3.995,-4.0485,-4.0164,-3.9896,-3.9644,-3.8776,-3.8761,-3.9301,-3.8952,-3.9331,-4.0129,-4.0325,-4.1293,-4.2489,0.0,0.0,0.0,0.0,0.0,0.0,0.0,0.0,0.0,0.0,0.0,0.0,-3.8988,-3.7603,-3.6598,-3.6495,-3.5894,-3.5539,-3.5509,-3.5504,-3.5804,-3.6462,-3.6522,0.0,-3.7389,0.0,0.0,0.0,0.0,0.0,-3.6855,-3.7301,-3.7813,-3.8318,-3.8884,-3.813,-3.6446,0.0,0.0,0.0,0.0,0.0,0.0,0.0,0.0,0.0,0.0,-3.678,-3.6504,-3.8449,-3.9088,-3.8942,-3.8347,-3.8609,-3.8652,0.0,0.0,0.0,0.0,0.0,0.0,0.0,0.0,0.0,0.0,0.0,0.0,0.0,0.0,0.0,0.0,0.0,0.0,0.0,0.0,0.0,0.0,0.0,0.0,0.0,0.0,0.0,0.0,0.0,0.0,0.0,0.0,-4.3374,-4.2335,-4.2323,-4.1966,-4.1127,-4.0324,-3.9914,-3.9914,-3.9218,-3.8879,-3.8861,-3.8076,-3.8487,-3.9896,-3.9182,-3.8897,-3.8915,-3.9157,-3.8832,-3.8126,-3.8322,-3.8578,-3.8847,-3.881,-3.9457,-4.0383,-4.0383,-4.094,-4.1757,0.0,0.0,0.0,0.0,0.0,0.0,0.0,0.0,0.0,0.0,0.0,0.0,0.0,-3.7658,-3.6692,-3.659,-3.5907,-3.5477,-3.5489,-3.5504,-3.5609,-3.5848,-3.6641,-3.6806,-3.6193,0.0,0.0,0.0,0.0,-3.5526,-3.6247,-3.6714,-3.6924,-3.7056,-3.8536,-3.858,-3.7549,-3.7781,0.0,0.0,0.0,0.0,0.0,0.0,0.0,0.0,0.0,0.0,0.0,0.0,-3.8565,-3.8522,-3.8275,-3.8452,-3.8502,-3.73,-3.7326,0.0,0.0,0.0,0.0,0.0,0.0,0.0,0.0,0.0,0.0,0.0,0.0,0.0,0.0,0.0,0.0,0.0,0.0,0.0,0.0,0.0,0.0,0.0,0.0,0.0,0.0,0.0,0.0,0.0,0.0,0.0,-4.2341,-4.1805,-4.1163,-4.036,-3.9093,-3.8415,-3.8415,-3.8148,-3.8023,-3.8023,-3.7719,-3.788,-3.8397,-3.8148,-3.8023,-3.806,-3.833,-3.8357,-3.8285,-3.8676,-3.8902,-3.8989,-3.8989,-3.9249,-3.9537,-3.9441,-3.9882,-4.0665,0.0,0.0,0.0,0.0,0.0,0.0,0.0,0.0,0.0,0.0,0.0,0.0,0.0,0.0,-3.6735,-3.6551,-3.631,-3.6058,-3.5848,-3.5833,-3.5744,-3.5519,-3.6537,-3.6701,-3.5848,0.0,0.0,0.0,0.0,0.0,0.0,-3.6109,-3.6091,-3.5749,-3.755,-3.8059,0.0,0.0,0.0,-3.755,0.0,0.0,-3.6597,0.0,0.0,0.0,0.0,0.0,0.0,0.0,0.0,0.0,-3.803,-3.7798,-3.7625,-3.7826,-3.8257,0.0,0.0,0.0,0.0,0.0,0.0,0.0,0.0,0.0,0.0,0.0,0.0,0.0,0.0,0.0,0.0,0.0,0.0,0.0,0.0,0.0,0.0,0.0,0.0,0.0,0.0,0.0,0.0,0.0,0.0,0.0,-4.2323,-4.1288,-4.0092,-3.8772,-3.7719,-3.7059,-3.6792,-3.6774,-3.6916,-3.7184,-3.6916,-3.7077,-3.7613,-3.7452,-3.754,-3.7827,-3.8201,-3.8364,-3.8446,-3.8884,-3.9073,-3.9101,-3.9156,-3.9101,-3.896,-3.8833,-3.9093,-3.9588,0.0,0.0,0.0,0.0,0.0,0.0,0.0,0.0,0.0,-4.007,0.0,0.0,0.0,0.0,0.0,-3.6514,-3.7105,-3.7195,-3.6552,-3.6507,-3.6237,-3.5594,-3.6207,-3.6552,-3.6507,0.0,0.0,0.0,0.0,0.0,0.0,0.0,-3.5351,-3.4501,-3.5945,-3.6499,-3.6315,0.0,-3.7199,-3.6599,0.0,-3.6374,-3.6984,0.0,0.0,0.0,-3.899,-3.916,0.0,-3.9175,0.0,0.0,0.0,0.0,-3.629,-3.7706,0.0,0.0,0.0,0.0,0.0,0.0,0.0,0.0,0.0,0.0,0.0,0.0,0.0,0.0,0.0,0.0,0.0,0.0,0.0,0.0,0.0,0.0,0.0,0.0,0.0,0.0,0.0,0.0,0.0,0.0,0.0,-4.2287,-4.2287,-4.077,-3.8826,-3.647,-3.6399,-3.6006,-3.5221,-3.5204,-3.5596,-3.6363,-3.5596,-3.606,-3.7559,-3.7184,-3.7435,-3.8212,-3.8748,-3.8737,-3.8415,-3.8807,-3.9027,-3.9082,-3.9163,-3.9017,-3.8773,-3.8755,-3.8603,-3.8601,0.0,0.0,0.0,0.0,0.0,0.0,0.0,0.0,0.0,0.0,0.0,0.0,-3.8197,-3.7996,-3.779,-3.718,-3.8197,-3.8377,-3.7225,-3.715,-3.7075,-3.6881,-3.7988,-3.8153,-3.718,0.0,0.0,0.0,0.0,0.0,0.0,0.0,0.0,0.0,-3.5942,-3.6035,-3.6079,-3.6711,0.0,0.0,-3.7166,-3.7345,0.0,0.0,0.0,0.0,0.0,-3.8115,-3.8478,0.0,-3.8743,-3.9073,0.0,0.0,0.0,0.0,0.0,0.0,-3.945,0.0,0.0,0.0,0.0,0.0,0.0,0.0,0.0,0.0,0.0,0.0,0.0,0.0,0.0,0.0,0.0,0.0,0.0,0.0,0.0,0.0,0.0,0.0,0.0,0.0,0.0,0.0,-4.265,-4.2287,-4.2287,-4.077,-3.8826,-3.647,-3.6399,-3.6006,-3.5221,-3.5204,-3.5328,-3.5543,-3.5987,-3.6451,-3.688,-3.7412,-3.7716,-3.7862,-3.8,-3.8068,-3.8099,-3.8021,-3.8251,-3.8566,-3.7371,-3.7588,-3.8423,-3.763,-3.7678,-3.8231,0.0,0.0,0.0,0.0,0.0,0.0,0.0,0.0,0.0,0.0,0.0,0.0,-3.8263,-3.8789,-3.896,-3.8302,-3.9215,-3.9379,-3.8317,-3.8512,-3.8287,-3.7449,-3.896,-3.9065,-3.7449,0.0,0.0,0.0,0.0,0.0,0.0,0.0,0.0,0.0,0.0,0.0,0.0,0.0,0.0,0.0,-3.7368,0.0,0.0,-3.7888,-3.7934,0.0,0.0,0.0,-3.9445,-3.8689,-3.8841,0.0,0.0,0.0,0.0,0.0,0.0,0.0,0.0,0.0,0.0,0.0,0.0,0.0,0.0,-4.3148,0.0,0.0,0.0,0.0,0.0,0.0,0.0,0.0,0.0,0.0,0.0,0.0,0.0,0.0,0.0,0.0,0.0,0.0,0.0,-4.2965,-4.2555,-4.2002,-4.1324,-4.0414,-3.8683,-3.5989,-3.5899,-3.5364,-3.4258,-3.4273,-3.4452,-3.4773,-3.5034,-3.5693,-3.6662,-3.6988,-3.7453,-3.8016,-3.7721,-3.7642,-3.762,-3.6681,-3.7162,-3.835,-3.7064,-3.7265,-3.8165,-3.7528,-3.7735,-3.8403,0.0,0.0,0.0,0.0,0.0,0.0,0.0,0.0,0.0,0.0,-3.9897,-3.9046,-3.8992,-3.9871,-4.0307,-3.9783,-4.0277,-4.0367,-3.9783,-4.0157,-3.9604,-3.7754,-3.9514,-3.9634,0.0,0.0,0.0,0.0,0.0,0.0,0.0,0.0,0.0,0.0,0.0,0.0,0.0,0.0,0.0,-3.6387,-3.7285,-3.7901,0.0,0.0,-3.9166,0.0,-3.944,-4.0264,-4.1077,-3.9595,-3.9224,0.0,0.0,0.0,0.0,0.0,-3.9868,0.0,0.0,0.0,0.0,0.0,0.0,0.0,-4.2585,-4.2187,-4.1475,0.0,0.0,0.0,0.0,0.0,0.0,0.0,0.0,0.0,0.0,0.0,0.0,0.0,0.0,0.0,0.0,-4.2822,-4.2287,-4.2287,-4.2216,-4.1502,-3.9985,-3.9825,-3.8433,-3.5453,-3.5257,-3.4541,-3.3059,-3.3033,-3.3369,-3.4067,-3.3535,-3.4429,-3.6584,-3.6243,-3.6888,-3.8264,-3.7558,-3.7209,-3.6955,-3.5214,-3.5969,-3.8132,-3.7277,-3.738,-3.7988,-3.7863,-3.8222,-3.8946,-4.5128,0.0,0.0,0.0,0.0,0.0,0.0,0.0,0.0,0.0,0.0,-3.9838,-4.074,-4.104,-4.1354,-4.1758,-4.1908,-4.1923,-4.1788,-4.0755,-3.9981,-3.9594,-4.0472,-4.0546,-3.9594,0.0,0.0,0.0,0.0,0.0,0.0,0.0,0.0,0.0,0.0,0.0,0.0,0.0,0.0,-3.7261,-3.8499,0.0,-3.9747,-3.9822,-3.948,-3.89,-3.89,-3.949,-4.0277,-4.0608,-4.0758,-4.0863,0.0,0.0,0.0,-4.0856,0.0,0.0,0.0,0.0,0.0,0.0,0.0,0.0,-4.0266,-4.0365,-4.063,0.0,0.0,0.0,0.0,0.0,0.0,0.0,0.0,0.0,0.0,0.0,0.0,0.0,0.0,0.0,0.0,-4.3126,-4.2287,-4.2287,-4.1698,-4.0913,-3.9968,-3.9343,-3.8202,-3.6379,-3.5699,-3.4927,-3.4042,-3.3378,-3.3176,-3.3337,-3.3934,-3.4794,-3.589,-3.5856,-3.6322,-3.7109,-3.6262,-3.5854,-3.5723,-3.4907,-3.5545,-3.6768,-3.4905,-3.5755,-3.788,-3.6928,-3.7633,-3.9124,-4.4993,0.0,0.0,0.0,0.0,0.0,0.0,0.0,0.0,0.0,0.0,0.0,-4.2359,-4.2656,-4.2851,-4.2851,-4.3135,-4.3045,-4.2231,-4.2108,-4.1451,-3.9994,-4.0959,-4.0946,-3.9624,-4.1114,0.0,0.0,0.0,0.0,0.0,0.0,0.0,0.0,0.0,0.0,0.0,0.0,-3.8026,-3.8351,-3.881,0.0,-3.9199,-4.0232,-4.0096,-3.9288,-3.9428,-3.9772,-4.0417,-4.224,-4.243,0.0,0.0,-4.2021,-4.1856,0.0,-4.063,-4.0266,0.0,0.0,0.0,-3.9835,0.0,0.0,0.0,-3.9835,-3.9835,0.0,0.0,0.0,0.0,0.0,0.0,0.0,0.0,0.0,0.0,0.0,0.0,0.0,0.0,0.0,0.0,-4.3429,-4.2346,-4.2387,-4.1654,-4.0849,-4.0045,-3.9332,-3.8241,-3.6646,-3.6233,-3.569,-3.4896,-3.4173,-3.3808,-3.3808,-3.3888,-3.4364,-3.5142,-3.5173,-3.5575,-3.6197,-3.5289,-3.4965,-3.4995,-3.4286,-3.474,-3.5761,-3.4652,-3.5613,-3.7592,-3.6956,-3.7871,-3.9407,-4.4401,0.0,0.0,0.0,0.0,0.0,0.0,0.0,0.0,0.0,0.0,0.0,0.0,0.0,0.0,0.0,0.0,-4.3698,0.0,0.0,-4.248,-4.0155,-4.1252,-4.1154,-3.9531,-4.155,-4.2014,0.0,0.0,0.0,0.0,0.0,0.0,0.0,0.0,0.0,0.0,0.0,0.0,-3.9462,0.0,-3.8545,-3.8557,-4.0688,-4.0761,-3.9713,-4.0037,-4.0245,-4.0817,-4.3251,0.0,-4.2619,-4.2673,-4.2949,0.0,0.0,0.0,0.0,0.0,0.0,0.0,0.0,0.0,-3.9934,0.0,0.0,0.0,0.0,0.0,0.0,0.0,0.0,0.0,0.0,0.0,0.0,0.0,0.0,0.0,0.0,0.0,0.0,0.0,-4.3543,-4.2387,-4.2503,-4.1769,-4.0984,-4.0159,-3.948,-3.8402,-3.6931,-3.6784,-3.6422,-3.5771,-3.4952,-3.4532,-3.4514,-3.3762,-3.3828,-3.4606,-3.4364,-3.4663,-3.5321,-3.4443,-3.4196,-3.4319,-3.382,-3.4229,-3.5162,-3.5162,-3.6071,-3.7391,-3.7456,-3.8425,-3.9684,-4.4299,-4.4028,0.0,0.0,0.0,0.0,0.0,0.0,0.0,0.0,0.0,0.0,0.0,0.0,0.0,0.0,0.0,0.0,-4.49,0.0,0.0,0.0,0.0,0.0,-4.099,-4.2567,-4.3004,0.0,0.0,0.0,0.0,0.0,0.0,0.0,-3.9148,0.0,0.0,0.0,-3.9149,0.0,-3.956,-3.9269,0.0,-4.1636,-4.115,-3.9472,-4.0123,-4.0397,-4.0663,0.0,-4.265,-4.2617,0.0,-4.2667,-4.1872,0.0,0.0,0.0,0.0,0.0,0.0,0.0,-4.1276,0.0,0.0,0.0,0.0,0.0,0.0,0.0,0.0,0.0,0.0,0.0,0.0,0.0,0.0,0.0,0.0,0.0,0.0,0.0,0.0,0.0,-4.2503,-4.2503,-4.1812,-4.1025,-4.0217,-3.9517,-3.8708,-3.7859,-3.7156,-3.6793,-3.6834,-3.5336,-3.4576,-3.4576,-3.3791,-3.3828,-3.454,-3.3486,-3.3416,-3.4084,-3.3476,-3.3186,-3.3156,-3.397,-3.4735,-3.5453,-3.5453,-3.6383,-3.7787,-3.7987,-3.8874,-3.9968,-4.3775,-4.3639,0.0,0.0,0.0,0.0,0.0,0.0,0.0,0.0,0.0,0.0,0.0,0.0,0.0,0.0,0.0,-4.546,0.0,0.0,0.0,0.0,0.0,0.0,0.0,-4.3381,-4.3614,0.0,-4.1885,0.0,0.0,0.0,0.0,0.0,-3.9272,0.0,-3.9719,0.0,0.0,0.0,0.0,0.0,0.0,-4.1238,-4.1079,-4.0014,-4.0729,-4.0746,-4.0573,0.0,-4.217,0.0,0.0,0.0,0.0,0.0,0.0,0.0,0.0,0.0,0.0,0.0,0.0,0.0,-4.0034,0.0,-3.9653,0.0,0.0,0.0,0.0,0.0,0.0,0.0,0.0,0.0,0.0,0.0,0.0,0.0,0.0,0.0,0.0,0.0,0.0,0.0,0.0,-4.1139,-4.0346,-3.9662,-3.8885,-3.802,-3.7763,-3.7633,-3.7685,-3.6544,-3.5765,-3.5294,-3.448,-3.3918,-3.3553,-3.3019,-3.3027,-3.3406,-3.3188,-3.3352,-3.3809,-3.433,-3.5004,-3.5849,-3.6332,-3.7151,-3.807,-3.8148,-3.88,-3.9592,-4.3741,0.0,0.0,0.0,0.0,0.0,0.0,0.0,0.0,0.0,0.0,0.0,-5.0807,-4.9584,0.0,0.0,-4.779,-4.6491,0.0,0.0,-4.3834,0.0,0.0,0.0,0.0,0.0,-4.4305,0.0,0.0,0.0,0.0,0.0,0.0,0.0,0.0,-3.9388,-3.957,0.0,0.0,-3.9603,-3.9934,-3.9752,-3.9388,-4.0431,-4.0647,-4.0415,-4.0713,-4.0498,-4.0183,-4.0895,-4.1491,0.0,-4.1524,0.0,0.0,0.0,0.0,0.0,-4.1359,0.0,0.0,0.0,0.0,0.0,0.0,0.0,0.0,0.0,0.0,0.0,0.0,0.0,0.0,0.0,0.0,0.0,0.0,0.0,0.0,0.0,0.0,0.0,0.0,0.0,0.0,0.0,-4.228,-4.1504,-4.0474,-3.9967,-3.9189,-3.8106,-3.814,-3.8192,-3.8192,-3.7377,-3.6598,-3.5802,-3.4875,-3.3872,-3.2795,-3.2568,-3.2652,-3.2928,-3.2999,-3.3519,-3.4269,-3.4577,-3.5325,-3.6357,-3.7004,-3.7733,-3.8493,-3.8493,-3.8825,-3.9325,-4.4536,-4.3927,0.0,0.0,0.0,0.0,0.0,0.0,0.0,0.0,0.0,0.0,0.0,0.0,0.0,0.0,0.0,-4.6203,-4.5372,0.0,-4.3528,0.0,0.0,-4.4725,0.0,0.0,0.0,0.0,0.0,0.0,0.0,0.0,0.0,0.0,0.0,-3.9669,-4.0299,-3.957,-3.9686,-4.0282,-3.9587,-3.9342,-3.9272,0.0,-3.9785,-4.0282,-3.9587,0.0,0.0,-4.0166,-4.0431,0.0,0.0,0.0,0.0,0.0,0.0,0.0,0.0,0.0,0.0,-4.058,0.0,0.0,0.0,0.0,-3.9272,0.0,0.0,0.0,0.0,0.0,0.0,-3.9501,0.0,0.0,0.0,0.0,0.0,0.0,0.0,0.0,0.0,0.0,0.0,-4.2783,-4.2844,-4.2176,-4.06,-4.0492,-3.9767,-3.8228,-3.8192,-3.8192,-3.8192,-3.7377,-3.6598,-3.5802,-3.4598,-3.3595,-3.2763,-3.1986,-3.1939,-3.2537,-3.2798,-3.3245,-3.3885,-3.4615,-3.5727,-3.7069,-3.7102,-3.798,-3.9239,-3.9239,-3.9255,-3.9325,0.0,0.0,0.0,0.0,0.0,0.0,0.0,-5.0491,0.0,0.0,0.0,0.0,0.0,-5.3471,-5.217,0.0,0.0,-4.826,-4.75,-4.6351,0.0,0.0,0.0,-4.7085,0.0,0.0,0.0,0.0,0.0,0.0,0.0,0.0,0.0,0.0,0.0,-3.9475,0.0,0.0,0.0,0.0,0.0,-3.9432,-3.9448,0.0,0.0,-3.962,-3.9371,-3.9272,0.0,-3.957,-3.9967,-4.0332,-4.0083,-4.0183,-4.0415,-4.0663,-4.0564,0.0,0.0,0.0,-4.0663,-4.0448,0.0,0.0,0.0,0.0,0.0,0.0,0.0,0.0,0.0,0.0,0.0,0.0,0.0,0.0,0.0,0.0,0.0,0.0,0.0,0.0,0.0,0.0,0.0,-4.2826,-4.2109,-4.153,0.0,-4.1011,-4.0254,-3.9025,-3.8989,-3.8596,-3.7756,-3.7452,-3.6809,-3.5723,-3.4836,-3.3882,-3.2841,-3.2472,-3.2514,-3.285,-3.3395,-3.3964,-3.4535,-3.4894,-3.5575,-3.6423,-3.702,-3.7766,-3.8626,-3.9106,-3.9342,-3.9432,-4.6346,0.0,0.0,0.0,0.0,0.0,0.0,0.0,0.0,0.0,-5.4337,0.0,-5.5732,0.0,-5.3078,0.0,-5.0718,-4.9447,-4.7978,-4.7322,0.0,-4.7591,-4.824,0.0,0.0,0.0,0.0,0.0,0.0,-4.328,0.0,0.0,0.0,0.0,0.0,0.0,0.0,0.0,-3.9642,0.0,0.0,-3.9501,0.0,0.0,-3.9272,-3.9272,0.0,-3.9272,-3.9272,-3.9272,-3.9587,-3.9901,-3.9421,-3.9603,-3.9984,-3.9984,-3.9984,-4.0083,-4.0531,-4.0332,0.0,-4.0038,-3.9871,0.0,-3.9468,0.0,0.0,0.0,0.0,0.0,0.0,0.0,0.0,0.0,0.0,0.0,0.0,-4.2573,0.0,0.0,0.0,0.0,0.0,0.0,-4.2264,-4.2637,-4.1895,-4.1443,0.0,0.0,-4.0605,-3.984,-3.9355,-3.8744,-3.7916,-3.75,-3.6622,-3.53,-3.4679,-3.3862,-3.2904,-3.2576,-3.2831,-3.3439,-3.3789,-3.4283,-3.4916,-3.5276,-3.5675,-3.6108,-3.7219,-3.79,-3.8347,-3.9113,-3.9501,-3.9659,0.0,0.0,0.0,0.0,-4.8854,0.0,0.0,0.0,-5.3737,0.0,-5.434,-5.4326,-5.508,-5.3606,-5.2106,-5.1057,-5.1064,0.0,-4.6903,-4.7401,0.0,0.0,-4.7269,-4.7316,-4.5897,0.0,0.0,0.0,0.0,0.0,0.0,0.0,0.0,0.0,-3.996,0.0,-3.9729,-3.9729,-3.9729,-3.9729,-3.959,-3.9501,-3.9484,-3.9325,-3.9272,-3.9272,-3.9272,-3.9272,-3.9272,-3.9272,-3.9272,-3.9272,-3.9272,-3.9272,-3.9272,-3.9272,-3.9272,-3.9272,-3.9325,-3.9325,-3.9325,-3.9484,0.0,0.0,0.0,0.0,-4.0269,0.0,0.0,0.0,0.0,0.0,0.0,0.0,0.0,0.0,0.0,0.0,0.0,0.0,0.0,0.0,0.0,-4.281,-4.2582,-4.2239,-4.2085,0.0,0.0,0.0,-4.0853,-4.051,-3.9352,-3.8699,-3.8645,-3.7443,-3.6124,-3.4649,-3.4198,-3.368,-3.2986,-3.2367,-3.288,-3.4175,-3.3948,-3.4237,-3.4949,-3.5661,-3.5976,-3.6141,-3.7582,-3.8299,-3.857,-3.9235,-3.9694,-3.9901,-4.7626,-4.8626,-4.9287,0.0,-4.8534,-4.9227,0.0,0.0,0.0,0.0,-5.5201,-5.5257,-5.585,-5.4878,-5.356,-5.2017,-5.19,0.0,0.0,0.0,0.0,-4.8246,-4.9137,-4.8661,-4.6659,-4.699,0.0,-4.5516,0.0,0.0,-4.3456,0.0,0.0,0.0,0.0,0.0,-3.9849,-3.9849,-3.9884,-3.9986,-3.9729,-3.9625,0.0,0.0,-3.9272,-3.9272,-3.9272,-3.9272,-3.9272,-3.9272,-3.9272,-3.9272,-3.9272,-3.9272,-3.9272,-3.9272,-3.9272,-3.9325,-3.9448,-3.9448,-3.9573,-4.0037,-3.9986,-3.9901,0.0,0.0,0.0,0.0,0.0,0.0,0.0,0.0,0.0,0.0,0.0,0.0,0.0,0.0,0.0,-4.2882,0.0,0.0,-4.2828,-4.1533,-4.1085,-4.2109,-4.0489,0.0,0.0,0.0,0.0,-4.087,-3.9713,-3.862,-3.7728,-3.6856,-3.6094,-3.5318,-3.467,-3.427,-3.41,-3.3748,-3.3851,-3.4208,-3.4479,-3.4717,-3.4916,-3.5098,-3.5512,-3.6092,-3.7103,-3.8337,-3.9529,-3.9731,-3.9849,-3.9901,-4.8111,0.0,0.0,-5.0322,0.0,0.0,-5.1572,0.0,0.0,-5.4378,-5.4527,0.0,-5.4656,-5.4178,-5.3179,-5.1356,-5.1606,0.0,-4.9264,0.0,0.0,-4.8396,-4.8728,-4.808,-4.6184,-4.6433,0.0,-4.5097,0.0,0.0,-4.2922,0.0,0.0,0.0,0.0,-3.9935,0.0,-3.9986,-4.0037,-4.0087,-3.9833,0.0,0.0,-3.9432,-3.9272,-3.9272,-3.9272,-3.9272,-3.9272,-3.9272,-3.9272,-3.9272,-3.9272,-3.9272,-3.9259,-3.8997,-3.9129,-3.9365,-3.9154,-3.9478,-4.0003,-4.04,-4.0449,-4.0449,-4.0546,-4.0546,-4.0417,0.0,0.0,0.0,0.0,0.0,0.0,0.0,0.0,0.0,0.0,0.0,0.0,0.0,-4.2502,0.0,-4.258,-4.0963,-4.0362,-4.1525,0.0,0.0,0.0,0.0,0.0,-4.0754,-3.9894,-3.8929,-3.7905,-3.7006,-3.6059,-3.5115,-3.4692,-3.4489,-3.4401,-3.4303,-3.4415,-3.4705,-3.4922,-3.5177,-3.5509,-3.5824,-3.6007,-3.6173,-3.7102,-3.8489,-3.9901,-3.9952,-3.9986,-3.9986,0.0,0.0,0.0,0.0,0.0,0.0,0.0,-5.1775,0.0,-5.328,0.0,-5.3009,-5.2781,-5.2544,-5.1777,-5.0245,0.0,-5.0452,-4.8282,-4.8962,-4.8802,-4.7328,-4.7278,-4.6675,-4.5386,-4.5711,0.0,0.0,0.0,0.0,0.0,0.0,0.0,0.0,0.0,0.0,0.0,-4.007,-4.007,0.0,-3.9833,-3.9729,-3.9677,-3.9432,-3.9325,-3.9325,-3.9325,-3.9325,-3.9272,-3.9325,-3.9325,-3.9325,-3.9325,-3.9325,-3.9246,-3.8718,-3.9037,-3.9404,-3.9009,-3.9563,-4.0417,-4.0672,-4.0938,-4.1059,-4.0728,-4.0664,-4.0504,-3.9949,-4.0288,-4.0712,0.0,0.0,0.0,0.0,0.0,0.0,0.0,0.0,0.0,0.0,0.0,0.0,0.0,-4.0758,-4.0206,0.0,0.0,0.0,0.0,0.0,0.0,-4.0192,-3.9708,0.0,-3.8515,0.0,-3.6011,-3.4793,-3.4692,-3.4597,-3.4448,-3.4448,-3.4841,-3.5442,-3.5332,-3.5719,-3.6404,-3.7069,-3.7019,-3.6668,-3.7599,-3.8773,-3.9952,-4.0037,-4.007,-4.007,0.0,0.0,0.0,0.0,0.0,-5.0287,-5.0287,-5.1437,-5.2807,-5.4194,-5.323,-5.2606,-5.3043,-5.2034,-5.1112,-5.0625,-5.076,0.0,0.0,0.0,0.0,-4.6592,-4.6464,-4.6407,-4.6079,-4.5051,-4.4348,0.0,0.0,0.0,0.0,0.0,0.0,0.0,0.0,0.0,-4.007,-4.007,0.0,-4.0087,-3.9935,-3.9833,-3.9849,-3.9677,-3.959,-3.9484,-3.9573,-3.9484,-3.9325,-3.9448,-3.9432,-3.9484,-3.959,-3.9625,-3.9609,-3.9527,-3.9577,-3.9747,-4.0148,-4.0135,-4.0204,-4.1139,-4.0832,-4.0231,-3.995,-3.9888,-3.9593,-3.8509,-3.9251,-4.0147,-4.0403,0.0,0.0,0.0,0.0,0.0,0.0,0.0,0.0,0.0,0.0,0.0,0.0,0.0,0.0,0.0,0.0,0.0,0.0,0.0,0.0,0.0,0.0,0.0,0.0,0.0,-3.6011,-3.6366,-3.5723,-3.5346,-3.529,-3.529,-3.5631,-3.6226,-3.6178,-3.6597,-3.73,-3.7434,-3.7818,-3.8421,-3.9228,-3.9767,-4.0087,-4.007,-4.007,-4.007,0.0,0.0,0.0,0.0,0.0,0.0,0.0,-5.0693,0.0,-5.2049,-5.1558,-5.1237,-5.1345,-5.111,-5.0606,-4.9639,-4.9636,-4.9063,-4.7569,-4.7547,-4.6969,-4.5488,-4.5421,0.0,-4.4259,-4.3166,-4.298,-4.3738,0.0,0.0,0.0,0.0,0.0,0.0,0.0,-4.007,0.0,0.0,0.0,-4.007,-3.9935,-3.9901,-3.9901,-3.9729,-3.9677,-3.959,-3.9677,-3.9625,-3.9537,-3.959,-3.959,-3.9642,-3.9677,-3.9677,-3.9578,-3.8875,-3.9194,-3.9631,-3.8826,-3.935,-4.0065,-4.0016,-3.9794,-3.9629,-3.9681,-3.9238,-3.87,-3.8512,-3.8864,-3.9405,-4.0023,-4.0984,0.0,0.0,0.0,0.0,0.0,0.0,0.0,0.0,0.0,0.0,0.0,0.0,0.0,0.0,0.0,0.0,0.0,0.0,0.0,0.0,0.0,0.0,0.0,0.0,0.0,-3.618,-3.5808,-3.5549,-3.5508,-3.5987,-3.6295,-3.6538,-3.6925,-3.7263,-3.7565,-3.7163,-3.7764,-3.8889,-3.8873,-3.9378,-4.007,-4.007,-4.007,-4.007,0.0,-5.0879,0.0,0.0,-5.0871,0.0,-4.9899,-4.9903,-5.0011,-5.0177,-4.9886,-4.962,-4.9684,-4.9964,-4.9628,-4.8446,-4.832,-4.7642,-4.6203,-4.6237,-4.5652,-4.4164,-4.4096,-4.3521,-4.232,-4.1576,-4.1779,0.0,0.0,0.0,0.0,0.0,0.0,0.0,0.0,0.0,0.0,0.0,-4.007,-4.007,-3.9986,-3.9935,-3.9935,-3.9833,-3.9781,-3.9781,-3.9867,-3.9918,-3.9918,-3.9901,-3.9867,-3.9729,-3.9781,-3.9781,-3.9563,-3.8504,-3.9125,-3.9714,-3.8018,-3.8901,-4.0096,-3.9112,-3.8946,-3.9068,-3.9202,-3.8418,-3.7835,-3.8336,-3.8448,-3.8719,-3.9494,-4.0414,0.0,0.0,0.0,0.0,0.0,0.0,0.0,0.0,0.0,0.0,0.0,0.0,0.0,0.0,0.0,0.0,0.0,0.0,0.0,0.0,0.0,-3.7905,-3.7905,0.0,-3.6315,0.0,-3.569,-3.5549,-3.5508,-3.6236,-3.6574,-3.6649,-3.7256,-3.7593,-3.7711,-3.7208,-3.7826,-3.8954,-3.8531,-3.9073,-4.007,-4.007,-4.0171,-4.0254,0.0,0.0,0.0,0.0,0.0,0.0,0.0,-4.926,-4.9933,-5.0956,-4.9373,-4.8629,-4.9886,-4.8359,-4.7428,-4.7909,-4.7335,-4.6363,-4.4874,-4.479,-4.4096,-4.2574,-4.2506,-4.2439,-4.2286,-4.1576,-4.1271,0.0,0.0,0.0,0.0,0.0,0.0,0.0,0.0,0.0,0.0,-4.007,-4.007,-4.007,-4.0087,-4.0087,-4.0087,-4.0087,-3.9986,-3.9935,-4.0483,-4.0594,-4.0546,-4.0659,-4.0353,-3.9901,-4.002,-4.007,-4.0054,-3.9918,-4.0283,-4.0612,-4.0087,-4.0123,-4.0207,-3.9784,-3.9115,-3.8387,-3.7767,-3.7257,-3.6842,-3.6577,-3.7374,-3.8285,-3.8714,-3.8899,-3.9317,0.0,0.0,0.0,0.0,0.0,0.0,0.0,0.0,0.0,0.0,0.0,0.0,0.0,0.0,0.0,0.0,0.0,0.0,-3.6924,0.0,-3.7905,-3.7905,-3.6468,0.0,-3.6671,-3.596,-3.5549,-3.5492,-3.5661,-3.6067,-3.6632,-3.6793,-3.728,-3.7956,-3.8531,-3.887,-3.9056,-3.9648,-3.9952,-4.007,-4.007,-4.0353,-4.0707,0.0,0.0,0.0,0.0,0.0,0.0,0.0,-4.8781,-4.8404,-4.8374,-4.8008,-4.7841,-4.8098,-4.7327,-4.6549,-4.5974,-4.5635,-4.4823,-4.3301,-4.32,-4.2743,-4.1694,-4.1904,-4.1834,-4.1389,-4.1081,-4.1297,0.0,0.0,0.0,0.0,0.0,0.0,0.0,0.0,-4.007,-4.007,-4.007,-4.007,-4.007,-4.007,-4.007,-4.007,-4.007,-4.0271,-4.0483,-4.0707,-4.0972,-4.1052,-4.0662,-4.0469,-4.0402,-4.0171,-4.0303,-4.036,-3.9405,-3.9767,-4.0184,-3.866,-3.8742,-3.9062,-3.8284,-3.7972,-3.7888,-3.7801,-3.728,-3.6894,-3.6939,-3.7005,-3.7132,-3.757,-3.8211,-3.8796,0.0,0.0,0.0,0.0,0.0,0.0,0.0,0.0,0.0,0.0,0.0,0.0,0.0,0.0,0.0,0.0,0.0,0.0,-3.8108,0.0,-3.7652,-3.8548,-3.7077,-3.6705,-3.7449,-3.6214,-3.583,-3.6303,-3.6743,-3.7351,-3.7993,-3.7161,-3.6958,-3.7246,-3.755,-3.7939,-3.8413,-3.914,-3.9863,-4.0531,-4.0531,-4.0849,-4.123,-5.1175,0.0,-5.0729,0.0,-5.0083,-4.9239,-4.928,-4.8307,-4.7212,-4.6291,-4.6255,-4.6344,-4.6455,-4.6058,-4.5466,-4.4654,-4.4367,-4.3589,-4.2066,-4.1965,-4.1644,-4.0899,-4.117,0.0,-4.0819,-4.0802,-4.1279,-4.2261,-4.1091,0.0,0.0,0.0,0.0,0.0,-4.007,-4.007,-4.007,-4.007,-4.007,-4.007,-4.007,-4.007,-4.007,-4.007,-4.0402,-4.0802,-4.0972,-4.1181,-4.1276,-4.0704,-4.0525,-4.0468,-4.0216,-4.038,-4.0435,-3.9361,-3.9722,-4.0052,-3.7972,-3.8122,-3.8597,-3.7534,-3.7395,-3.7574,-3.7803,-3.7365,-3.6978,-3.7193,-3.6856,-3.6597,-3.7017,-3.7707,-3.8128,-3.8023,0.0,0.0,0.0,0.0,0.0,0.0,-3.5554,-3.547,-3.4573,0.0,0.0,0.0,0.0,0.0,0.0,0.0,0.0,0.0,0.0,0.0,0.0,-3.7533,-3.7043,-3.7567,-3.6248,-3.591,-3.6451,-3.6992,-3.7516,-3.7939,-3.6891,-3.6434,-3.6468,-3.6924,-3.7509,-3.821,-3.9163,-4.01,-4.1019,-4.1019,-4.1321,-4.1717,-4.877,-4.872,-4.872,-4.877,-4.9144,-4.9223,-4.8434,-4.7698,-4.6767,-4.5556,-4.4104,-4.3786,-4.5523,-4.4367,-4.3758,-4.4519,-4.3876,-4.2811,-4.1322,-4.1221,-4.0882,0.0,0.0,-4.0303,-4.0802,-4.0802,-4.1019,-4.1499,0.0,0.0,-4.0819,0.0,-4.007,-4.007,-4.007,-4.007,-4.007,-4.007,-4.007,-4.007,-4.007,-4.007,-4.007,-4.007,-4.0402,-4.0849,-4.1321,-4.129,-4.098,-4.098,-4.0463,-3.9868,-4.0197,-4.0289,-4.0272,-4.0254,-4.0636,-4.0624,-3.9017,-3.8995,-3.9206,-3.8391,-3.7845,-3.7505,-3.7523,-3.7208,-3.69,-3.6917,-3.6917,-3.7017,-3.7432,-3.717,-3.7055,-3.7432,0.0,0.0,0.0,0.0,0.0,0.0,-3.8041,-3.777,-3.4776,0.0,0.0,0.0,0.0,0.0,0.0,0.0,0.0,-3.8988,-3.8971,0.0,-3.8988,-3.7533,-3.6772,-3.6772,-3.5994,-3.5622,-3.5639,-3.5639,-3.5656,-3.5656,-3.5639,-3.5639,-3.574,-3.728,-3.8184,-3.8743,-4.0198,-4.1047,-4.1481,-4.1481,-4.1803,-4.2198,-4.8821,-4.8713,-4.8783,-4.9073,-4.8764,-4.8383,-4.8068,-4.6554,-4.5062,-4.41,-4.2768,-4.2159,-4.27,-4.2695,-4.254,0.0,-4.2049,-4.1491,0.0,-4.0443,-4.0341,-4.0087,-4.0402,-4.0676,-4.0802,-4.0802,-4.1202,-4.199,0.0,0.0,0.0,-4.0303,-4.007,-4.007,-4.007,-4.007,-4.007,-4.007,-4.007,-4.007,-4.007,-4.007,-4.0121,-4.0451,-4.0521,-4.0577,-4.1609,-4.1399,-4.0634,-4.0634,-4.0167,-3.9554,-3.9641,-3.9807,-3.9855,-3.9301,-3.9488,-3.9698,-3.8599,-3.8433,-3.8432,-3.7864,-3.7632,-3.7432,-3.7152,-3.6379,-3.5891,-3.6388,-3.5659,-3.5205,-3.6119,-3.5951,-3.6007,-3.698,-3.6648,0.0,0.0,0.0,0.0,0.0,-3.4832,-3.4891,0.0,-3.5548,0.0,0.0,0.0,0.0,0.0,0.0,0.0,0.0,-3.9357,0.0,-3.8988,-3.8041,-3.755,-3.7533,-3.6231,-3.5893,-3.64,-3.5859,-3.591,-3.6383,-3.5859,-3.6072,-3.6989,-3.7985,-3.8943,-3.9922,-4.0874,-4.1569,-4.1973,-4.2074,-4.2436,-4.2824,-4.7319,-4.7173,-4.723,-4.7482,-4.7069,-4.673,-4.6684,-4.5047,-4.3672,-4.3088,-4.1862,-4.0985,-4.0985,-4.129,0.0,-4.1273,-4.1256,-4.0882,-4.0121,-4.007,-4.007,-4.007,-4.0402,-4.0628,-4.0802,0.0,0.0,-4.1931,-4.1185,-4.0896,-4.1065,-4.0385,-4.007,-4.007,-4.007,-4.007,-4.007,-4.007,-4.007,-4.0054,-3.9783,-3.9665,-3.9681,-3.989,-3.9919,-4.0032,-4.0966,-4.0753,-4.0093,-4.0093,-3.9586,-3.8934,-3.8934,-3.9049,-3.9155,-3.8958,-3.9139,-3.9206,-3.8409,-3.8054,-3.788,-3.7578,-3.7395,-3.712,-3.6647,-3.613,-3.5773,-3.5966,-3.5209,-3.4883,-3.6043,-3.5899,-3.595,-3.7102,-3.6756,-3.6189,-3.5657,0.0,0.0,0.0,0.0,0.0,0.0,-3.5613,0.0,0.0,0.0,0.0,0.0,0.0,0.0,-4.0171,-3.9846,0.0,-3.9394,-3.8461,-3.7953,-3.7889,-3.6349,-3.5876,-3.6332,-3.5842,-3.5876,-3.6315,-3.5825,-3.6225,-3.7288,-3.8205,-3.9329,-4.0471,-4.1417,-4.2074,-4.2555,-4.2613,-4.2862,-4.316,-4.455,-4.4507,0.0,0.0,-4.4535,0.0,-4.451,-4.3384,-4.2544,-4.2544,-4.1223,-4.0305,-4.0288,-4.0188,-4.0459,-4.1257,0.0,0.0,0.0,-4.007,-4.007,-4.007,-4.007,-4.0303,-4.0754,-4.0754,-4.0972,-4.1437,-4.1019,-4.1019,-4.1437,-4.0514,-4.007,-4.007,-4.007,-4.007,-4.007,-4.0087,-4.0053,-3.9935,-3.9257,-3.892,-3.8885,-3.8654,-3.8799,-3.9194,-3.9651,-3.9606,-3.9315,-3.9369,-3.8862,-3.8225,-3.8225,-3.8207,-3.837,-3.9132,-3.9297,-3.9152,-3.8391,-3.7845,-3.7487,-3.7361,-3.7008,-3.651,-3.5905,-3.6061,-3.6195,-3.5565,-3.5385,-3.5681,-3.6867,-3.6699,-3.6663,-3.7506,-3.756,-3.6929,-3.5444,0.0,0.0,0.0,0.0,0.0,0.0,-3.6978,-3.7311,0.0,0.0,0.0,0.0,0.0,-4.0517,-4.0337,-4.0468,-4.0385,-4.0053,-3.8775,-3.8027,-3.7736,-3.6299,-3.5622,-3.5622,-3.5622,-3.5622,-3.5622,-3.5673,-3.6175,-3.7029,-3.8229,-3.946,-4.0687,-4.1831,-4.2613,-4.3104,-4.3104,-4.316,-4.3196,0.0,0.0,-4.3667,-4.3545,-4.3822,-4.3944,-4.3602,-4.267,-4.1992,-4.1992,-4.1192,-4.0551,-4.0485,-4.0551,-4.0571,-4.0543,-4.0459,-4.0273,-4.0087,-4.007,-4.007,-4.007,-4.007,-4.0171,-4.0254,-4.0271,-4.0483,-4.0972,-4.0832,-4.0849,-4.0972,-4.0402,-4.007,-4.007,-4.007,-4.007,-4.0087,-3.9595,-3.9357,-3.924,-3.8605,-3.8316,-3.8238,-3.8921,-3.8831,-3.8518,-3.9874,-3.9569,-3.8655,-3.9273,-3.8946,-3.8274,-3.8354,-3.8336,-3.8372,-3.8525,-3.8564,-3.8477,-3.8003,-3.7774,-3.7344,-3.6106,-3.5094,-3.4404,-3.4497,-3.4222,-3.411,-3.4765,-3.4702,-3.4839,-3.5678,-3.5983,-3.6368,-3.7185,-3.7012,-3.6485,-3.556,-3.6006,0.0,0.0,-3.5563,-3.6399,-3.6023,-3.7112,-3.8259,0.0,0.0,0.0,0.0,-4.1584,-4.1157,-4.0926,-4.1047,-4.0619,-3.96,-3.8917,-3.7762,-3.6163,-3.5898,-3.5773,-3.5773,-3.5844,-3.5888,-3.5922,-3.6502,-3.7374,-3.8495,-3.9719,-4.0931,-4.2163,-4.2734,-4.305,-4.3178,-4.3269,-4.3359,-4.334,-4.202,-4.2093,-4.2216,-4.2189,-4.2384,-4.2462,-4.2161,-4.1719,-4.1346,-4.1297,-4.0954,-4.0648,-4.0436,-4.0502,-4.0453,-4.0305,-4.0238,-4.0188,-4.0121,-4.007,-4.007,-4.007,-4.0188,-4.0271,-4.0449,-4.0303,-4.0402,-4.0802,-4.058,-4.0628,-4.0896,-4.0402,-4.0238,-4.0271,-3.9931,-3.9729,-3.9645,-3.9027,-3.8656,-3.8523,-3.8128,-3.7909,-3.7875,-3.8448,-3.8374,-3.8091,-3.8942,-3.8862,-3.8376,-3.8645,-3.8567,-3.8336,-3.8401,-3.8267,-3.8135,-3.8138,-3.8104,-3.7911,-3.7202,-3.6806,-3.6274,-3.4881,-3.4215,-3.3876,-3.3769,-3.3757,-3.3789,-3.4026,-3.4362,-3.4861,-3.5678,-3.6224,-3.6876,-3.7679,-3.7598,-3.7112,-3.6185,-3.6537,0.0,-3.4766,-3.5849,-3.6705,-3.6687,-3.7494,-3.8572,-3.9995,0.0,0.0,-4.2541,-4.192,-4.1428,-4.1213,-4.1157,-4.055,-3.9392,-3.8459,-3.722,-3.58,-3.5861,-3.5905,-3.5888,-3.5975,-3.6019,-3.6027,-3.6778,-3.7765,-3.8998,-4.0217,-4.1444,-4.2595,-4.3032,-4.3251,-4.3305,-4.3376,-4.3411,-4.3446,-4.0965,-4.0888,-4.0888,-4.0888,-4.0888,-4.0888,-4.0888,-4.0888,-4.0888,-4.0745,-4.0745,-4.0648,-4.0404,-4.0404,-4.0387,-4.0337,-4.0355,-4.0288,-4.0171,-4.0171,-4.0171,-4.0254,-4.037,-4.0611,-4.1041,-4.0611,-4.0597,-4.0972,-4.0451,-4.0434,-4.1019,-4.0597,-4.0368,-4.028,-3.9744,-3.9307,-3.9027,-3.8413,-3.8025,-3.7865,-3.7655,-3.7513,-3.746,-3.7589,-3.7632,-3.7632,-3.7703,-3.7948,-3.8201,-3.7844,-3.7966,-3.8234,-3.8267,-3.8034,-3.7792,-3.7827,-3.7739,-3.7453,-3.6466,-3.5682,-3.4823,-3.3796,-3.3744,-3.3868,-3.3406,-3.383,-3.4142,-3.3524,-3.4235,-3.5275,-3.6138,-3.6868,-3.7613,-3.8578,-3.8569,-3.8113,-3.713,0.0,-3.7101,-3.6028,-3.6662,-3.7298,-3.7661,-3.8,-3.8718,-3.9978,-4.0336,-4.1085,0.0,-4.1877,-4.1454,-4.135,-4.1122,-4.044,-3.9345,-3.7866,-3.6727,-3.6019,-3.6019,-3.6019,-3.6019,-3.6182,-3.6165,-3.6114,-3.7151,-3.8104,-3.9058,-4.0483,-4.1654,-4.2619,-4.3069,-4.3322,-4.3429,-4.3429,-4.3446,-4.3497,-4.0965,-4.0888,-4.0888,-4.0888,-4.0888,-4.0888,-4.0888,-4.0888,-4.0871,-4.0888,-4.0888,-4.0793,-4.0648,-4.0745,-4.0728,-4.0485,-4.06,-4.0583,-4.0436,-4.0436,-4.0597,-4.0955,-4.0955,-4.1213,-4.1664,-4.1213,-4.1213,-4.1639,-4.0849,-4.0676,-4.1076,-4.1001,-4.0457,-3.9593,-3.9824,-3.9319,-3.835,-3.8053,-3.7655,-3.7205,-3.7085,-3.673,-3.6285,-3.6771,-3.6939,-3.6904,-3.7208,-3.7413,-3.7523,-3.7487,-3.7487,-3.7559,-3.7614,-3.7614,-3.7469,-3.717,-3.7055,-3.6981,-3.6837,-3.5484,-3.3945,-3.3308,-3.2873,-3.2669,-3.3104,-3.3352,-3.3524,-3.3671,-3.4394,-3.5275,-3.6138,-3.6945,-3.7955,-3.946,-3.9098,-3.859,-3.8413,0.0,-3.8163,-3.7308,-3.7931,-3.8444,-3.8524,-3.8554,-3.925,-4.0818,-4.0954,-4.1669,-4.3222,-4.2195,-4.1571,-4.1571,-4.1467,-4.0674,-3.9172,-3.787,-3.686,-3.6019,-3.6122,-3.6182,-3.6182,-3.6922,-3.6896,-3.6379,-3.885,-3.9659,-3.9417,-4.1647,-4.268,-4.2882,-4.3304,-4.3463,-4.3497,-4.3497,-4.3497,-4.3497,-4.0918,-4.0888,-4.0888,-4.0888,-4.0888,-4.0888,-4.0888,-4.0888,-4.0888,-4.0888,-4.0888,-4.084,-4.0697,-4.0745,-4.0745,-4.0648,-4.0648,-4.0697,-4.0728,-4.0583,-4.0566,-4.0754,-4.1047,-4.1303,-4.1508,-4.1552,-4.1508,-4.142,-4.0602,-4.044,-4.0936,-4.0471,-4.0034,-3.9616,-3.937,-3.8942,-3.8325,-3.7656,-3.7323,-3.7213,-3.7235,-3.7208,-3.7152,-3.7395,-3.7469,-3.7414,-3.7132,-3.7208,-3.7395,-3.7208,-3.7283,-3.7469,-3.7505,-3.7358,-3.7132,-3.6939,-3.6182,-3.5357,-3.53,-3.3995,-3.2655,-3.2611,-3.2529,-3.2603,-3.3124,-3.3408,-3.3752,-3.4348,-3.5128,-3.5973,-3.678,-3.7588,-3.8377,-3.9129,-3.8946,0.0,0.0,-3.8707,-3.856,-3.8193,-3.8469,-3.8707,-3.8707,-3.8707,-3.9203,-4.0377,-4.0451,-4.0881,-4.181,-4.107,-4.063,-4.063,-4.0005,-3.9423,-3.8842,-3.7448,-3.6578,-3.6174,-3.6233,-3.6233,-3.6251,-3.668,-3.7022,-3.7359,-3.9087,-4.0106,-4.0692,-4.228,-4.3032,-4.3232,-4.341,-4.3497,-4.3497,-4.3497,-4.3497,-4.3497,-4.0836,-4.0888,-4.0888,-4.0888,-4.0888,-4.0888,-4.0888,-4.0888,-4.0888,-4.0888,-4.0888,-4.0888,-4.0745,-4.0745,-4.0745,-4.0745,-4.0745,-4.0793,-4.0871,-4.0728,-4.0614,-4.0741,-4.1321,-4.1611,-4.1545,-4.1991,-4.1949,-4.1357,-4.056,-4.0433,-4.0985,-4.016,-3.9715,-3.9519,-3.9008,-3.8595,-3.8211,-3.7494,-3.7228,-3.7342,-3.756,-3.7721,-3.7844,-3.7844,-3.7756,-3.7614,-3.6978,-3.6978,-3.717,-3.686,-3.6978,-3.7228,-3.7228,-3.7017,-3.6724,-3.6549,-3.5275,-3.39,-3.3805,-3.2904,-3.2083,-3.237,-3.2651,-3.2939,-3.3321,-3.3625,-3.4027,-3.4825,-3.5532,-3.6303,-3.7294,-3.7991,-3.8542,-3.8927,0.0,0.0,0.0,-3.8737,-3.8596,-3.8707,-3.8627,-3.8596,-3.8707,-3.8707,-3.9038,-3.9827,-3.99,-4.0134,-4.0631,-4.0113,-3.9766,-3.9636,-3.8656,-3.8227,-3.8495,-3.7206,-3.649,-3.6301,-3.649,-3.6473,-3.6301,-3.6599,-3.7126,-3.791,-3.9252,-4.0456,-4.1488,-4.2577,-4.3232,-4.3497,-4.3497,-4.3497,-4.3497,-4.3497,-4.3497,-4.3497,-4.0733,-4.0888,-4.0888,-4.0888,-4.0888,-4.0888,-4.0888,-4.0888,-4.0888,-4.0888,-4.0888,-4.0888,-4.0888,-4.0888,-4.0888,-4.0888,-4.0888,-4.0888,-4.0888,-4.0871,-4.1041,-4.1401,-4.2279,-4.2613,-4.2242,-4.2613,-4.2631,-4.2223,-4.1351,-4.1121,-4.1541,-4.0727,-3.9733,-3.8681,-3.9067,-3.8635,-3.7577,-3.7897,-3.7809,-3.7542,-3.7913,-3.7614,-3.6978,-3.6978,-3.6759,-3.6409,-3.6385,-3.6367,-3.6367,-3.6326,-3.6367,-3.6367,-3.6367,-3.6385,-3.6205,-3.5514,-3.4436,-3.3457,-3.3421,-3.3334,-3.3248,-3.3212,-3.3262,-3.335,-3.368,-3.3762,-3.4027,-3.4825,-3.5045,-3.5605,-3.7184,-3.7562,-3.8065,-3.957,0.0,0.0,-3.9698,-3.8857,-3.8285,-3.8676,-3.8368,-3.8285,-3.8658,-3.8707,-3.9038,-3.9827,-3.99,-4.0249,-4.1024,-4.0313,-3.9692,-3.9281,-3.849,-3.8088,-3.8158,-3.7637,-3.7025,-3.6301,-3.7042,-3.7008,-3.6318,-3.7446,-3.7597,-3.7132,-4.0141,-4.1089,-4.0727,-4.2646,-4.3479,-4.3497,-4.3497,-4.3497,-4.3497,-4.3497,-4.3497,-4.3497,-4.0819,-4.0888,-4.0888,-4.0888,-4.0888,-4.0888,-4.0888,-4.0888,-4.0888,-4.0888,-4.0888,-4.0888,-4.0888,-4.0888,-4.0888,-4.0888,-4.0888,-4.0888,-4.0888,-4.0888,-4.1088,-4.1472,-4.1652,-4.189,-4.2242,-4.2137,-4.2032,-4.1886,-4.1016,-4.0872,-4.1243,-3.9947,-3.9234,-3.9013,-3.8685,-3.8305,-3.7879,-3.7774,-3.7913,-3.8219,-3.7879,-3.7685,-3.7578,-3.7094,-3.6799,-3.6638,-3.6367,-3.6301,-3.6301,-3.6301,-3.6301,-3.6301,-3.6301,-3.6301,-3.6101,-3.5114,-3.4504,-3.4146,-3.4097,-3.3583,-3.3072,-3.3256,-3.3291,-3.3379,-3.3734,-3.4192,-3.4798,-3.5642,-3.6193,-3.689,-3.8028,-3.823,-3.8432,-3.9056,0.0,-3.8737,-3.8769,-3.8401,-3.8068,-3.7966,-3.7844,-3.7879,-3.8285,-3.8336,-3.8561,-3.9129,-3.9166,-3.9182,-3.9261,-3.8937,-3.8689,-3.8502,-3.8258,-3.8201,-3.8398,-3.7821,-3.7355,-3.7055,-3.7355,-3.7355,-3.7055,-3.7527,-3.8251,-3.9173,-3.9878,-4.0996,-4.239,-4.2656,-4.3039,-4.3497,-4.3497,-4.3497,-4.3497,-4.3497,-4.3497,-4.3497,-4.0836,-4.0888,-4.0888,-4.0888,-4.0888,-4.0888,-4.0888,-4.0888,-4.0888,-4.0888,-4.0888,-4.0888,-4.0888,-4.0888,-4.0888,-4.0888,-4.0888,-4.0888,-4.0888,-4.0888,-4.1088,-4.1472,-4.1434,-4.1578,-4.1984,-4.1885,-4.1687,-4.1433,-4.0633,-4.0388,-4.0689,-3.9331,-3.8775,-3.888,-3.8337,-3.8101,-3.8068,-3.7809,-3.8068,-3.8627,-3.7948,-3.7774,-3.7844,-3.717,-3.6821,-3.6678,-3.6409,-3.6301,-3.6301,-3.6301,-3.6301,-3.6301,-3.6301,-3.6146,-3.5832,-3.5168,-3.4902,-3.4801,-3.4848,-3.422,-3.3563,-3.3789,-3.3847,-3.3876,-3.4119,-3.4835,-3.5661,-3.6486,-3.711,-3.7734,-3.856,-3.8707,-3.8676,-3.8515,-3.8515,-3.8368,-3.7966,-3.7791,-3.765,-3.7505,-3.7395,-3.7469,-3.7879,-3.8034,-3.8219,-3.8483,-3.8627,-3.8596,-3.8285,-3.8285,-3.8285,-3.8285,-3.8285,-3.8389,-3.8636,-3.8115,-3.7737,-3.7505,-3.7737,-3.7737,-3.7505,-3.7614,-3.8438,-3.9766,-3.9833,-4.0967,-4.2745,-4.269,-4.3002,-4.3497,-4.3497,-4.3497,-4.3497,-4.3497,-4.3497,-4.3497,-4.0716,-4.0888,-4.0888,-4.0888,-4.0888,-4.0888,-4.0888,-4.0888,-4.0888,-4.0888,-4.0888,-4.0888,-4.0888,-4.0888,-4.0888,-4.0888,-4.0888,-4.0888,-4.0888,-4.0871,-4.1088,-4.1472,-4.1931,-4.2024,-4.1614,-4.2063,-4.1901,-4.1111,-4.0286,-3.99,-3.9863,-3.9074,-3.8483,-3.8119,-3.8101,-3.8101,-3.8101,-3.8101,-3.8336,-3.8658,-3.8252,-3.7844,-3.7469,-3.7055,-3.6638,-3.6301,-3.6301,-3.6301,-3.6301,-3.6301,-3.6301,-3.6301,-3.6301,-3.5801,-3.5278,-3.57,-3.5526,-3.5272,-3.5612,-3.5356,-3.499,-3.5009,-3.5009,-3.499,-3.5009,-3.5679,-3.6541,-3.7331,-3.7526,-3.7734,-3.856,-3.8707,-3.8546,-3.8168,-3.8101,-3.7966,-3.7542,-3.717,-3.7073,-3.7432,-3.7132,-3.7055,-3.7469,-3.7879,-3.8101,-3.8101,-3.8483,-3.8707,-3.8707,-3.8707,-3.8707,-3.8707,-3.8707,-3.8707,-3.8707,-3.8635,-3.8255,-3.7505,-3.8272,-3.82,-3.7542,-3.7913,-3.8101,-3.8244,-4.0215,-4.1111,-4.1258,-4.2818,-4.3479,-4.3497,-4.3497,-4.3497,-4.3497,-4.3497,-4.3497,-4.3497,-4.0836,-4.0888,-4.0888,-4.0888,-4.0888,-4.0888,-4.0888,-4.0888,-4.0888,-4.0888,-4.0888,-4.0888,-4.0888,-4.0888,-4.0888,-4.0888,-4.0888,-4.0888,-4.0888,-4.1163,-4.1356,-4.1472,-4.1416,-4.156,-4.2002,-4.1649,-4.135,-4.1111,-4.0286,-3.99,-3.9863,-3.9074,-3.8775,-3.8932,-3.8337,-3.8101,-3.8101,-3.8101,-3.8336,-3.8627,-3.7948,-3.7614,-3.7432,-3.6759,-3.6409,-3.6301,-3.6301,-3.6301,-3.6301,-3.6301,-3.6301,-3.6343,-3.6638,-3.6561,-3.6422,-3.6524,-3.6494,-3.6479,-3.6863,-3.6007,-3.5137,-3.5771,-3.5459,-3.5155,-3.5771,-3.6541,-3.7202,-3.747,-3.7936,-3.8334,-3.8281,-3.8285,-3.8153,-3.7721,-3.7685,-3.7738,-3.7892,-3.7822,-3.7662,-3.7515,-3.7391,-3.7265,-3.7108,-3.7414,-3.7809,-3.8068,-3.8483,-3.8707,-3.8707,-3.8707,-3.8707,-3.8707,-3.8707,-3.8707,-3.8707,-3.867,-3.8554,-3.8336,-3.8573,-3.8554,-3.8336,-3.8483,-3.9136,-4.0196,-4.0253,-4.1222,-4.2782,-4.269,-4.2983,-4.3497,-4.3497,-4.3497,-4.3497,-4.3497,-4.3497,-4.3497,-4.0888,-4.0888,-4.0888,-4.0888,-4.0888,-4.0888,-4.0888,-4.0888,-4.0888,-4.0888,-4.1041,-4.1117,-4.1117,-4.1117,-4.1117,-4.1117,-4.1012,-4.0965,-4.1117,-4.1356,-4.1561,-4.1778,-4.1431,-4.1471,-4.1956,-4.1376,-4.0946,-4.0634,-4.0139,-3.9735,-3.9405,-3.8927,-3.8739,-3.879,-3.8319,-3.8101,-3.8101,-3.8101,-3.8336,-3.8627,-3.7844,-3.7505,-3.7432,-3.6597,-3.6301,-3.6301,-3.6301,-3.6409,-3.6533,-3.6533,-3.6638,-3.6821,-3.7055,-3.7132,-3.7177,-3.7336,-3.7377,-3.7443,-3.7863,-3.678,-3.5789,-3.6964,-3.6376,-3.5661,-3.6174,-3.7165,-3.7833,-3.7363,-3.7898,-3.8336,-3.7948,-3.7879,-3.7721,-3.7321,-3.7266,-3.7415,-3.7801,-3.7603,-3.7408,-3.7482,-3.7369,-3.7095,-3.669,-3.7303,-3.8039,-3.8773,-3.8729,-3.8836,-3.9166,-3.8872,-3.8707,-3.8707,-3.8707,-3.8707,-3.8707,-3.8707,-3.8707,-3.8707,-3.8707,-3.8707,-3.8707,-3.8707,-3.9405,-4.0616,-4.0451,-4.1387,-4.3002,-4.2837,-4.3057,-4.3497,-4.3497,-4.3497,-4.3497,-4.3497,-4.3497,-4.3497,-4.0888,-4.0888,-4.0888,-4.0888,-4.0888,-4.0888,-4.0888,-4.0888,-4.0888,-4.0888,-4.1209,-4.1445,-4.1445,-4.1445,-4.1445,-4.1445,-4.1117,-4.1088,-4.1472,-4.1464,-4.1707,-4.2239,-4.1735,-4.1488,-4.156,-4.1168,-4.0634,-3.99,-3.9827,-3.9423,-3.8707,-3.8707,-3.8515,-3.8135,-3.8135,-3.8135,-3.8135,-3.8135,-3.8314,-3.8517,-3.7736,-3.7362,-3.7218,-3.6475,-3.6197,-3.6215,-3.6308,-3.6597,-3.69,-3.6939,-3.7208,-3.7505,-3.7542,-3.7542,-3.765,-3.8034,-3.8135,-3.8234,-3.8504,-3.7477,-3.6652,-3.812,-3.7283,-3.6219,-3.6468,-3.7613,-3.8345,-3.7225,-3.7561,-3.7913,-3.7505,-3.7469,-3.7303,-3.69,-3.686,-3.7015,-3.7543,-3.6956,-3.6766,-3.7491,-3.7283,-3.6898,-3.6385,-3.7485,-3.8722,-3.9905,-3.9331,-3.9203,-3.9845,-3.9276,-3.8891,-3.8817,-3.8817,-3.8817,-3.8817,-3.8744,-3.8707,-3.8707,-3.8707,-3.8707,-3.8707,-3.8707,-3.9148,-3.9937,-4.0763,-4.157,-4.2359,-4.3167,-4.3497,-4.3497,-4.3497,-4.3497,-4.3497,-4.3497,-4.3497,-4.3497,-4.0888,-4.0888,-4.0888,-4.0888,-4.0888,-4.0888,-4.0888,-4.0888,-4.0888,-4.0888,-4.0965,-4.1041,-4.1041,-4.1041,-4.1041,-4.1041,-4.0965,-4.1088,-4.1472,-4.1237,-4.1596,-4.2693,-4.1174,-4.0559,-4.1199,-4.0529,-4.0065,-3.99,-3.9276,-3.8872,-3.8707,-3.8707,-3.8658,-3.8564,-3.8564,-3.8564,-3.8564,-3.8564,-3.8261,-3.7674,-3.6926,-3.6238,-3.5669,-3.5501,-3.5439,-3.5549,-3.6469,-3.6821,-3.6939,-3.7266,-3.7432,-3.7542,-3.7879,-3.7948,-3.8068,-3.8451,-3.8564,-3.8449,-3.7918,-3.7037,-3.6376,-3.6725,-3.5853,-3.546,-3.7674,-3.8196,-3.8165,-3.7884,-3.7718,-3.7505,-3.7094,-3.7017,-3.69,-3.6492,-3.6409,-3.6894,-3.8207,-3.8198,-3.8163,-3.8336,-3.8554,-3.8211,-3.6904,-3.8168,-3.954,-4.0749,-4.0689,-4.0396,-3.9918,-4.0341,-4.0304,-3.9662,-3.9643,-3.9643,-3.9643,-3.9019,-3.8707,-3.8707,-3.8707,-3.8707,-3.8707,-3.8707,-3.9148,-3.9937,-4.0763,-4.157,-4.2359,-4.3167,-4.3497,-4.3497,-4.3497,-4.3497,-4.3497,-4.3497,-4.3497,-4.3497,-4.0888,-4.0888,-4.0888,-4.0888,-4.0888,-4.0965,-4.1163,-4.1209,-4.1209,-4.1209,-4.1373,-4.1418,-4.1209,-4.1373,-4.1507,-4.1507,-4.1346,-4.1463,-4.2115,-4.1608,-4.1683,-4.2559,-4.0866,-4.0102,-4.0524,-3.9735,-3.9331,-3.9331,-3.9294,-3.9074,-3.8707,-3.8707,-3.8707,-3.8707,-3.8707,-3.8707,-3.8707,-3.8707,-3.8469,-3.8034,-3.7453,-3.6843,-3.6275,-3.6085,-3.6023,-3.6098,-3.6681,-3.717,-3.7542,-3.7948,-3.8068,-3.8068,-3.8101,-3.8219,-3.8401,-3.8401,-3.8272,-3.8028,-3.7606,-3.6597,-3.5834,-3.6437,-3.5817,-3.5374,-3.6468,-3.7011,-3.7109,-3.6559,-3.6843,-3.7094,-3.6678,-3.6597,-3.6516,-3.6343,-3.6301,-3.6715,-3.7905,-3.7732,-3.7716,-3.8295,-3.8397,-3.8368,-3.8313,-3.9264,-4.0377,-4.1574,-4.1332,-4.1093,-4.1038,-4.1093,-4.0928,-4.0487,-4.0469,-4.0469,-4.0469,-4.0065,-3.9845,-3.9845,-3.9074,-3.8707,-3.8707,-3.8707,-3.9148,-3.9918,-4.0341,-4.1203,-4.2323,-4.2745,-4.3149,-4.3497,-4.3497,-4.3497,-4.3497,-4.3497,-4.3497,-4.3497,-4.0681,-4.0784,-4.0888,-4.0888,-4.0965,-4.1117,-4.1445,-4.1561,-4.1552,-4.1429,-4.1817,-4.1895,-4.1341,-4.169,-4.2032,-4.2216,-4.1692,-4.1725,-4.2531,-4.1699,-4.1397,-4.1862,-4.0394,-3.9671,-3.98,-3.908,-3.8707,-3.8707,-3.9368,-3.935,-3.8707,-3.856,-3.8579,-3.8689,-3.856,-3.8579,-3.8707,-3.848,-3.8303,-3.8144,-3.7703,-3.7289,-3.688,-3.6615,-3.6552,-3.6629,-3.665,-3.7274,-3.8071,-3.8541,-3.8707,-3.8627,-3.8303,-3.8433,-3.8609,-3.8122,-3.7758,-3.7489,-3.7342,-3.6237,-3.536,-3.6427,-3.6103,-3.5339,-3.4655,-3.5643,-3.6398,-3.5392,-3.6155,-3.6888,-3.6575,-3.6387,-3.6301,-3.6301,-3.6422,-3.6774,-3.7517,-3.7153,-3.7148,-3.8063,-3.7962,-3.8472,-4.0148,-4.0607,-4.1283,-4.2399,-4.1901,-4.1754,-4.2268,-4.1809,-4.146,-4.1313,-4.1313,-4.1313,-4.1313,-4.1185,-4.1111,-4.1093,-3.9753,-3.9038,-3.8909,-3.8909,-3.9184,-3.9698,-3.9827,-4.0744,-4.2121,-4.2249,-4.2763,-4.3497,-4.3497,-4.3532,-4.3513,-4.3532,-4.3532,-4.3532,-3.9853,-4.0405,-4.0888,-4.0888,-4.1209,-4.1445,-4.1472,-4.1864,-4.1884,-4.1149,-4.1396,-4.1315,-4.0543,-4.0854,-4.1373,-4.2115,-4.1463,-4.1093,-4.135,-4.0187,-3.9727,-4.0195,-3.9028,-3.8658,-3.9381,-3.8917,-3.8707,-3.8707,-3.8817,-3.8817,-3.8689,-3.7973,-3.8028,-3.867,-3.7955,-3.8046,-3.8621,-3.764,-3.6767,-3.6064,-3.5438,-3.4889,-3.451,-3.4798,-3.5135,-3.549,-3.5777,-3.6585,-3.7692,-3.8469,-3.8707,-3.8707,-3.8627,-3.8676,-3.856,-3.7814,-3.7539,-3.7331,-3.6652,-3.6042,-3.5652,-3.5838,-3.5291,-3.471,-3.4604,-3.6312,-3.784,-3.7654,-3.7544,-3.7404,-3.7361,-3.6766,-3.6301,-3.6301,-3.687,-3.7525,-3.793,-3.8443,-3.8731,-3.8567,-3.8834,-3.9817,-4.1794,-4.2032,-4.2417,-4.3259,-4.3222,-4.291,-4.2323,-4.2855,-4.2855,-4.2158,-4.2139,-4.2139,-4.2139,-4.146,-4.1111,-4.1111,-4.0891,-4.0414,-3.9735,-3.9735,-3.9423,-3.8909,-3.9588,-4.0414,-4.1332,-4.2011,-4.2763,-4.3497,-4.3497,-4.3532,-4.3582,-4.3719,-4.3686,-4.3582,-3.9612,-3.9974,-4.0353,-4.0802,-4.1041,-4.1237,-4.149,-4.1339,-4.106,-4.0707,-4.0433,-4.0202,-3.9981,-4.0739,-4.1402,-4.1812,-4.1351,-4.0949,-4.0795,-3.959,-3.9029,-3.922,-3.8295,-3.7918,-3.8312,-3.8128,-3.8034,-3.8034,-3.8252,-3.8483,-3.8689,-3.7435,-3.7521,-3.8652,-3.7162,-3.696,-3.769,-3.6676,-3.5937,-3.5364,-3.4652,-3.4392,-3.4376,-3.4287,-3.464,-3.5272,-3.5841,-3.6662,-3.7533,-3.7648,-3.7546,-3.7363,-3.7337,-3.7353,-3.7338,-3.7192,-3.6541,-3.5848,-3.5939,-3.5041,-3.4225,-3.4938,-3.4853,-3.4769,-3.5374,-3.6713,-3.7513,-3.6643,-3.6693,-3.6818,-3.6818,-3.6542,-3.6506,-3.7195,-3.7603,-3.8135,-3.8978,-3.9394,-3.9601,-3.9679,-4.0453,-4.1311,-4.2231,-4.2708,-4.3112,-4.3461,-4.3497,-4.3332,-4.2983,-4.3296,-4.3332,-4.2983,-4.2965,-4.2965,-4.2965,-4.2616,-4.2433,-4.2433,-4.2433,-4.1552,-3.99,-3.99,-3.946,-3.8726,-3.9074,-3.9698,-4.0487,-4.1313,-4.2103,-4.2873,-4.3314,-4.3532,-4.3548,-4.3738,-4.3686,-4.3548]}]]